<?xml version="1.0" encoding="UTF-8" standalone="no" ?>
<gpx xmlns="http://www.topografix.com/GPX/1/1" xmlns:xsi="http://www.w3.org/2001/XMLSchema-instance" xsi:schemaLocation="http://www.topografix.com/GPX/1/1 http://www.topografix.com/GPX/1/1/gpx.xsd" version="1.1" creator="VisuGPX - https://www.visugpx.com">
  <metadata>
    <name>L'Agenaise J2</name>
    <desc><![CDATA[Le retour de la classique agenaise]]></desc>
  </metadata>
  <trk>
    <name><![CDATA[Sortie à vélo le midi]]></name>
    <trkseg>
      <trkpt lat="44.33131" lon="1.11969">
        <ele>209.4</ele>
        <time>2016-05-16T09:14:07Z</time>
      </trkpt>
      <trkpt lat="44.33127" lon="1.11971">
        <ele>208.2</ele>
        <time>2016-05-16T09:14:34Z</time>
      </trkpt>
      <trkpt lat="44.33123" lon="1.11971">
        <ele>208</ele>
        <time>2016-05-16T09:14:37Z</time>
      </trkpt>
      <trkpt lat="44.33119" lon="1.11972">
        <ele>207.6</ele>
        <time>2016-05-16T09:14:39Z</time>
      </trkpt>
      <trkpt lat="44.33112" lon="1.11972">
        <ele>207.2</ele>
        <time>2016-05-16T09:14:41Z</time>
      </trkpt>
      <trkpt lat="44.33101" lon="1.11976">
        <ele>206.2</ele>
        <time>2016-05-16T09:14:44Z</time>
      </trkpt>
      <trkpt lat="44.33097" lon="1.11977">
        <ele>206</ele>
        <time>2016-05-16T09:14:45Z</time>
      </trkpt>
      <trkpt lat="44.33093" lon="1.11978">
        <ele>205.8</ele>
        <time>2016-05-16T09:14:46Z</time>
      </trkpt>
      <trkpt lat="44.33081" lon="1.1198">
        <ele>204.8</ele>
        <time>2016-05-16T09:14:50Z</time>
      </trkpt>
      <trkpt lat="44.3308" lon="1.11978">
        <ele>204.8</ele>
        <time>2016-05-16T09:14:51Z</time>
      </trkpt>
      <trkpt lat="44.33081" lon="1.11972">
        <ele>204.2</ele>
        <time>2016-05-16T09:14:55Z</time>
      </trkpt>
      <trkpt lat="44.33087" lon="1.1197">
        <ele>203.6</ele>
        <time>2016-05-16T09:15:01Z</time>
      </trkpt>
      <trkpt lat="44.33094" lon="1.11963">
        <ele>203.2</ele>
        <time>2016-05-16T09:15:05Z</time>
      </trkpt>
      <trkpt lat="44.33101" lon="1.11956">
        <ele>202.6</ele>
        <time>2016-05-16T09:15:07Z</time>
      </trkpt>
      <trkpt lat="44.33104" lon="1.1195">
        <ele>202.2</ele>
        <time>2016-05-16T09:15:08Z</time>
      </trkpt>
      <trkpt lat="44.33107" lon="1.11943">
        <ele>201.6</ele>
        <time>2016-05-16T09:15:09Z</time>
      </trkpt>
      <trkpt lat="44.33109" lon="1.11935">
        <ele>201.4</ele>
        <time>2016-05-16T09:15:10Z</time>
      </trkpt>
      <trkpt lat="44.3311" lon="1.11917">
        <ele>200</ele>
        <time>2016-05-16T09:15:12Z</time>
      </trkpt>
      <trkpt lat="44.33108" lon="1.11907">
        <ele>199</ele>
        <time>2016-05-16T09:15:13Z</time>
      </trkpt>
      <trkpt lat="44.33103" lon="1.11888">
        <ele>196.6</ele>
        <time>2016-05-16T09:15:15Z</time>
      </trkpt>
      <trkpt lat="44.33096" lon="1.11871">
        <ele>194.8</ele>
        <time>2016-05-16T09:15:17Z</time>
      </trkpt>
      <trkpt lat="44.33085" lon="1.11856">
        <ele>192.8</ele>
        <time>2016-05-16T09:15:19Z</time>
      </trkpt>
      <trkpt lat="44.33079" lon="1.11849">
        <ele>192</ele>
        <time>2016-05-16T09:15:20Z</time>
      </trkpt>
      <trkpt lat="44.33073" lon="1.11841">
        <ele>190.8</ele>
        <time>2016-05-16T09:15:21Z</time>
      </trkpt>
      <trkpt lat="44.33063" lon="1.1182">
        <ele>189.6</ele>
        <time>2016-05-16T09:15:23Z</time>
      </trkpt>
      <trkpt lat="44.33054" lon="1.11798">
        <ele>187.4</ele>
        <time>2016-05-16T09:15:25Z</time>
      </trkpt>
      <trkpt lat="44.33042" lon="1.11776">
        <ele>185</ele>
        <time>2016-05-16T09:15:27Z</time>
      </trkpt>
      <trkpt lat="44.33036" lon="1.1176">
        <ele>183.8</ele>
        <time>2016-05-16T09:15:28Z</time>
      </trkpt>
      <trkpt lat="44.3303" lon="1.11745">
        <ele>182</ele>
        <time>2016-05-16T09:15:29Z</time>
      </trkpt>
      <trkpt lat="44.33023" lon="1.11732">
        <ele>180.2</ele>
        <time>2016-05-16T09:15:30Z</time>
      </trkpt>
      <trkpt lat="44.33016" lon="1.11719">
        <ele>178.8</ele>
        <time>2016-05-16T09:15:31Z</time>
      </trkpt>
      <trkpt lat="44.33008" lon="1.11708">
        <ele>177.6</ele>
        <time>2016-05-16T09:15:32Z</time>
      </trkpt>
      <trkpt lat="44.33" lon="1.11697">
        <ele>175.8</ele>
        <time>2016-05-16T09:15:33Z</time>
      </trkpt>
      <trkpt lat="44.32991" lon="1.11686">
        <ele>174.2</ele>
        <time>2016-05-16T09:15:34Z</time>
      </trkpt>
      <trkpt lat="44.32981" lon="1.11674">
        <ele>172.6</ele>
        <time>2016-05-16T09:15:35Z</time>
      </trkpt>
      <trkpt lat="44.3297" lon="1.11663">
        <ele>171.4</ele>
        <time>2016-05-16T09:15:36Z</time>
      </trkpt>
      <trkpt lat="44.32958" lon="1.11652">
        <ele>170.2</ele>
        <time>2016-05-16T09:15:37Z</time>
      </trkpt>
      <trkpt lat="44.32946" lon="1.11641">
        <ele>169.2</ele>
        <time>2016-05-16T09:15:38Z</time>
      </trkpt>
      <trkpt lat="44.32924" lon="1.11627">
        <ele>168.4</ele>
        <time>2016-05-16T09:15:40Z</time>
      </trkpt>
      <trkpt lat="44.32903" lon="1.1162">
        <ele>167.2</ele>
        <time>2016-05-16T09:15:42Z</time>
      </trkpt>
      <trkpt lat="44.32894" lon="1.11618">
        <ele>167.4</ele>
        <time>2016-05-16T09:15:43Z</time>
      </trkpt>
      <trkpt lat="44.32885" lon="1.11616">
        <ele>167.8</ele>
        <time>2016-05-16T09:15:44Z</time>
      </trkpt>
      <trkpt lat="44.3286" lon="1.11608">
        <ele>167.6</ele>
        <time>2016-05-16T09:15:47Z</time>
      </trkpt>
      <trkpt lat="44.32846" lon="1.11598">
        <ele>167.4</ele>
        <time>2016-05-16T09:15:49Z</time>
      </trkpt>
      <trkpt lat="44.32831" lon="1.11588">
        <ele>166.6</ele>
        <time>2016-05-16T09:15:51Z</time>
      </trkpt>
      <trkpt lat="44.32811" lon="1.11572">
        <ele>166</ele>
        <time>2016-05-16T09:15:54Z</time>
      </trkpt>
      <trkpt lat="44.32796" lon="1.11564">
        <ele>165.4</ele>
        <time>2016-05-16T09:15:56Z</time>
      </trkpt>
      <trkpt lat="44.32789" lon="1.11561">
        <ele>165.4</ele>
        <time>2016-05-16T09:15:57Z</time>
      </trkpt>
      <trkpt lat="44.32774" lon="1.11557">
        <ele>165</ele>
        <time>2016-05-16T09:15:59Z</time>
      </trkpt>
      <trkpt lat="44.32752" lon="1.11551">
        <ele>164.4</ele>
        <time>2016-05-16T09:16:02Z</time>
      </trkpt>
      <trkpt lat="44.32729" lon="1.11548">
        <ele>163.8</ele>
        <time>2016-05-16T09:16:05Z</time>
      </trkpt>
      <trkpt lat="44.32714" lon="1.11547">
        <ele>163.2</ele>
        <time>2016-05-16T09:16:07Z</time>
      </trkpt>
      <trkpt lat="44.32692" lon="1.11544">
        <ele>163</ele>
        <time>2016-05-16T09:16:10Z</time>
      </trkpt>
      <trkpt lat="44.32677" lon="1.11543">
        <ele>162.6</ele>
        <time>2016-05-16T09:16:12Z</time>
      </trkpt>
      <trkpt lat="44.32649" lon="1.1154">
        <ele>162.2</ele>
        <time>2016-05-16T09:16:16Z</time>
      </trkpt>
      <trkpt lat="44.32642" lon="1.1154">
        <ele>161.6</ele>
        <time>2016-05-16T09:16:17Z</time>
      </trkpt>
      <trkpt lat="44.32607" lon="1.11535">
        <ele>160.4</ele>
        <time>2016-05-16T09:16:22Z</time>
      </trkpt>
      <trkpt lat="44.32584" lon="1.11527">
        <ele>159.4</ele>
        <time>2016-05-16T09:16:25Z</time>
      </trkpt>
      <trkpt lat="44.32571" lon="1.11521">
        <ele>158.2</ele>
        <time>2016-05-16T09:16:27Z</time>
      </trkpt>
      <trkpt lat="44.32566" lon="1.11515">
        <ele>157.4</ele>
        <time>2016-05-16T09:16:28Z</time>
      </trkpt>
      <trkpt lat="44.32562" lon="1.11507">
        <ele>156.8</ele>
        <time>2016-05-16T09:16:29Z</time>
      </trkpt>
      <trkpt lat="44.32559" lon="1.11498">
        <ele>156</ele>
        <time>2016-05-16T09:16:30Z</time>
      </trkpt>
      <trkpt lat="44.32558" lon="1.11488">
        <ele>155.6</ele>
        <time>2016-05-16T09:16:31Z</time>
      </trkpt>
      <trkpt lat="44.32561" lon="1.11472">
        <ele>155.8</ele>
        <time>2016-05-16T09:16:33Z</time>
      </trkpt>
      <trkpt lat="44.32572" lon="1.11442">
        <ele>155.4</ele>
        <time>2016-05-16T09:16:37Z</time>
      </trkpt>
      <trkpt lat="44.32579" lon="1.11423">
        <ele>155.6</ele>
        <time>2016-05-16T09:16:40Z</time>
      </trkpt>
      <trkpt lat="44.32584" lon="1.11406">
        <ele>156.2</ele>
        <time>2016-05-16T09:16:43Z</time>
      </trkpt>
      <trkpt lat="44.32586" lon="1.11391">
        <ele>156.6</ele>
        <time>2016-05-16T09:16:46Z</time>
      </trkpt>
      <trkpt lat="44.32587" lon="1.11381">
        <ele>157</ele>
        <time>2016-05-16T09:16:48Z</time>
      </trkpt>
      <trkpt lat="44.32585" lon="1.11368">
        <ele>157.2</ele>
        <time>2016-05-16T09:16:51Z</time>
      </trkpt>
      <trkpt lat="44.32583" lon="1.11354">
        <ele>157.4</ele>
        <time>2016-05-16T09:16:54Z</time>
      </trkpt>
      <trkpt lat="44.32579" lon="1.11325">
        <ele>157.6</ele>
        <time>2016-05-16T09:17:01Z</time>
      </trkpt>
      <trkpt lat="44.32578" lon="1.11321">
        <ele>157.6</ele>
        <time>2016-05-16T09:17:02Z</time>
      </trkpt>
      <trkpt lat="44.32574" lon="1.11302">
        <ele>157.8</ele>
        <time>2016-05-16T09:17:07Z</time>
      </trkpt>
      <trkpt lat="44.32572" lon="1.11281">
        <ele>157.2</ele>
        <time>2016-05-16T09:17:12Z</time>
      </trkpt>
      <trkpt lat="44.32571" lon="1.11273">
        <ele>157.2</ele>
        <time>2016-05-16T09:17:14Z</time>
      </trkpt>
      <trkpt lat="44.32567" lon="1.11242">
        <ele>157</ele>
        <time>2016-05-16T09:17:20Z</time>
      </trkpt>
      <trkpt lat="44.32565" lon="1.11226">
        <ele>156.6</ele>
        <time>2016-05-16T09:17:23Z</time>
      </trkpt>
      <trkpt lat="44.32559" lon="1.11196">
        <ele>155.8</ele>
        <time>2016-05-16T09:17:28Z</time>
      </trkpt>
      <trkpt lat="44.32556" lon="1.11183">
        <ele>155.6</ele>
        <time>2016-05-16T09:17:30Z</time>
      </trkpt>
      <trkpt lat="44.3255" lon="1.11158">
        <ele>155.4</ele>
        <time>2016-05-16T09:17:35Z</time>
      </trkpt>
      <trkpt lat="44.32549" lon="1.11149">
        <ele>154.8</ele>
        <time>2016-05-16T09:17:49Z</time>
      </trkpt>
      <trkpt lat="44.32547" lon="1.11139">
        <ele>154.4</ele>
        <time>2016-05-16T09:17:51Z</time>
      </trkpt>
      <trkpt lat="44.32547" lon="1.11134">
        <ele>153.8</ele>
        <time>2016-05-16T09:17:52Z</time>
      </trkpt>
      <trkpt lat="44.32545" lon="1.11122">
        <ele>154.6</ele>
        <time>2016-05-16T09:17:54Z</time>
      </trkpt>
      <trkpt lat="44.32539" lon="1.1108">
        <ele>153.2</ele>
        <time>2016-05-16T09:18:01Z</time>
      </trkpt>
      <trkpt lat="44.32538" lon="1.11074">
        <ele>153.2</ele>
        <time>2016-05-16T09:18:02Z</time>
      </trkpt>
      <trkpt lat="44.32537" lon="1.1106">
        <ele>156.2</ele>
        <time>2016-05-16T09:18:04Z</time>
      </trkpt>
      <trkpt lat="44.32536" lon="1.11053">
        <ele>155</ele>
        <time>2016-05-16T09:18:05Z</time>
      </trkpt>
      <trkpt lat="44.32535" lon="1.1104">
        <ele>154.6</ele>
        <time>2016-05-16T09:18:07Z</time>
      </trkpt>
      <trkpt lat="44.32529" lon="1.11002">
        <ele>154.8</ele>
        <time>2016-05-16T09:18:14Z</time>
      </trkpt>
      <trkpt lat="44.32524" lon="1.10965">
        <ele>154.4</ele>
        <time>2016-05-16T09:18:19Z</time>
      </trkpt>
      <trkpt lat="44.3251" lon="1.10922">
        <ele>154</ele>
        <time>2016-05-16T09:18:25Z</time>
      </trkpt>
      <trkpt lat="44.32507" lon="1.10915">
        <ele>154</ele>
        <time>2016-05-16T09:18:26Z</time>
      </trkpt>
      <trkpt lat="44.32489" lon="1.1089">
        <ele>153.4</ele>
        <time>2016-05-16T09:18:30Z</time>
      </trkpt>
      <trkpt lat="44.32481" lon="1.10876">
        <ele>153.8</ele>
        <time>2016-05-16T09:18:32Z</time>
      </trkpt>
      <trkpt lat="44.32475" lon="1.10858">
        <ele>153.6</ele>
        <time>2016-05-16T09:18:34Z</time>
      </trkpt>
      <trkpt lat="44.32469" lon="1.10839">
        <ele>152.8</ele>
        <time>2016-05-16T09:18:36Z</time>
      </trkpt>
      <trkpt lat="44.32453" lon="1.10789">
        <ele>153.2</ele>
        <time>2016-05-16T09:18:41Z</time>
      </trkpt>
      <trkpt lat="44.32442" lon="1.10747">
        <ele>153</ele>
        <time>2016-05-16T09:18:45Z</time>
      </trkpt>
      <trkpt lat="44.3244" lon="1.10736">
        <ele>152.8</ele>
        <time>2016-05-16T09:18:46Z</time>
      </trkpt>
      <trkpt lat="44.32443" lon="1.10692">
        <ele>152.2</ele>
        <time>2016-05-16T09:18:50Z</time>
      </trkpt>
      <trkpt lat="44.32444" lon="1.10682">
        <ele>152.2</ele>
        <time>2016-05-16T09:18:51Z</time>
      </trkpt>
      <trkpt lat="44.32454" lon="1.10634">
        <ele>152</ele>
        <time>2016-05-16T09:18:56Z</time>
      </trkpt>
      <trkpt lat="44.32465" lon="1.10566">
        <ele>152.2</ele>
        <time>2016-05-16T09:19:04Z</time>
      </trkpt>
      <trkpt lat="44.32472" lon="1.1051">
        <ele>152</ele>
        <time>2016-05-16T09:19:11Z</time>
      </trkpt>
      <trkpt lat="44.32472" lon="1.10493">
        <ele>151.6</ele>
        <time>2016-05-16T09:19:13Z</time>
      </trkpt>
      <trkpt lat="44.32469" lon="1.10467">
        <ele>151.6</ele>
        <time>2016-05-16T09:19:16Z</time>
      </trkpt>
      <trkpt lat="44.32465" lon="1.1045">
        <ele>150.6</ele>
        <time>2016-05-16T09:19:18Z</time>
      </trkpt>
      <trkpt lat="44.32458" lon="1.10421">
        <ele>150</ele>
        <time>2016-05-16T09:19:21Z</time>
      </trkpt>
      <trkpt lat="44.32456" lon="1.10411">
        <ele>149.2</ele>
        <time>2016-05-16T09:19:22Z</time>
      </trkpt>
      <trkpt lat="44.32454" lon="1.10396">
        <ele>148</ele>
        <time>2016-05-16T09:19:24Z</time>
      </trkpt>
      <trkpt lat="44.32453" lon="1.10391">
        <ele>147.8</ele>
        <time>2016-05-16T09:19:25Z</time>
      </trkpt>
      <trkpt lat="44.32453" lon="1.1038">
        <ele>147.2</ele>
        <time>2016-05-16T09:19:29Z</time>
      </trkpt>
      <trkpt lat="44.32453" lon="1.10378">
        <ele>147</ele>
        <time>2016-05-16T09:19:30Z</time>
      </trkpt>
      <trkpt lat="44.32446" lon="1.10366">
        <ele>146</ele>
        <time>2016-05-16T09:19:35Z</time>
      </trkpt>
      <trkpt lat="44.32443" lon="1.10365">
        <ele>146</ele>
        <time>2016-05-16T09:19:36Z</time>
      </trkpt>
      <trkpt lat="44.32437" lon="1.10364">
        <ele>145.2</ele>
        <time>2016-05-16T09:19:38Z</time>
      </trkpt>
      <trkpt lat="44.32432" lon="1.10366">
        <ele>145.2</ele>
        <time>2016-05-16T09:19:41Z</time>
      </trkpt>
      <trkpt lat="44.32428" lon="1.10366">
        <ele>145</ele>
        <time>2016-05-16T09:19:43Z</time>
      </trkpt>
      <trkpt lat="44.32422" lon="1.10364">
        <ele>144.8</ele>
        <time>2016-05-16T09:19:45Z</time>
      </trkpt>
      <trkpt lat="44.32412" lon="1.10364">
        <ele>145.2</ele>
        <time>2016-05-16T09:19:50Z</time>
      </trkpt>
      <trkpt lat="44.32397" lon="1.10368">
        <ele>145.2</ele>
        <time>2016-05-16T09:19:57Z</time>
      </trkpt>
      <trkpt lat="44.32377" lon="1.10375">
        <ele>145.2</ele>
        <time>2016-05-16T09:20:03Z</time>
      </trkpt>
      <trkpt lat="44.32355" lon="1.1037">
        <ele>144.8</ele>
        <time>2016-05-16T09:20:10Z</time>
      </trkpt>
      <trkpt lat="44.32348" lon="1.10365">
        <ele>145.4</ele>
        <time>2016-05-16T09:20:15Z</time>
      </trkpt>
      <trkpt lat="44.32344" lon="1.10358">
        <ele>145.4</ele>
        <time>2016-05-16T09:20:47Z</time>
      </trkpt>
      <trkpt lat="44.32343" lon="1.10342">
        <ele>145.2</ele>
        <time>2016-05-16T09:20:51Z</time>
      </trkpt>
      <trkpt lat="44.32343" lon="1.10337">
        <ele>145</ele>
        <time>2016-05-16T09:20:52Z</time>
      </trkpt>
      <trkpt lat="44.32344" lon="1.10295">
        <ele>144</ele>
        <time>2016-05-16T09:20:59Z</time>
      </trkpt>
      <trkpt lat="44.32344" lon="1.10284">
        <ele>143.8</ele>
        <time>2016-05-16T09:21:01Z</time>
      </trkpt>
      <trkpt lat="44.32346" lon="1.10245">
        <ele>143.4</ele>
        <time>2016-05-16T09:21:07Z</time>
      </trkpt>
      <trkpt lat="44.32348" lon="1.1019">
        <ele>142.6</ele>
        <time>2016-05-16T09:21:15Z</time>
      </trkpt>
      <trkpt lat="44.32348" lon="1.10183">
        <ele>143</ele>
        <time>2016-05-16T09:21:16Z</time>
      </trkpt>
      <trkpt lat="44.3235" lon="1.10114">
        <ele>142.2</ele>
        <time>2016-05-16T09:21:26Z</time>
      </trkpt>
      <trkpt lat="44.32354" lon="1.10062">
        <ele>142</ele>
        <time>2016-05-16T09:21:34Z</time>
      </trkpt>
      <trkpt lat="44.32365" lon="1.10009">
        <ele>142</ele>
        <time>2016-05-16T09:21:42Z</time>
      </trkpt>
      <trkpt lat="44.32373" lon="1.09993">
        <ele>142.2</ele>
        <time>2016-05-16T09:21:45Z</time>
      </trkpt>
      <trkpt lat="44.32381" lon="1.09978">
        <ele>142.6</ele>
        <time>2016-05-16T09:21:48Z</time>
      </trkpt>
      <trkpt lat="44.324" lon="1.09946">
        <ele>143</ele>
        <time>2016-05-16T09:21:55Z</time>
      </trkpt>
      <trkpt lat="44.32415" lon="1.09907">
        <ele>142.2</ele>
        <time>2016-05-16T09:22:02Z</time>
      </trkpt>
      <trkpt lat="44.3242" lon="1.0989">
        <ele>142</ele>
        <time>2016-05-16T09:22:05Z</time>
      </trkpt>
      <trkpt lat="44.32424" lon="1.09865">
        <ele>141.8</ele>
        <time>2016-05-16T09:22:10Z</time>
      </trkpt>
      <trkpt lat="44.32426" lon="1.09856">
        <ele>141.8</ele>
        <time>2016-05-16T09:22:12Z</time>
      </trkpt>
      <trkpt lat="44.3243" lon="1.0984">
        <ele>141.8</ele>
        <time>2016-05-16T09:22:17Z</time>
      </trkpt>
      <trkpt lat="44.32431" lon="1.09839">
        <ele>141.6</ele>
        <time>2016-05-16T09:22:18Z</time>
      </trkpt>
      <trkpt lat="44.32431" lon="1.09832">
        <ele>141.2</ele>
        <time>2016-05-16T09:22:42Z</time>
      </trkpt>
      <trkpt lat="44.32431" lon="1.09823">
        <ele>141</ele>
        <time>2016-05-16T09:22:44Z</time>
      </trkpt>
      <trkpt lat="44.32432" lon="1.09814">
        <ele>141</ele>
        <time>2016-05-16T09:22:46Z</time>
      </trkpt>
      <trkpt lat="44.32433" lon="1.09789">
        <ele>141</ele>
        <time>2016-05-16T09:22:51Z</time>
      </trkpt>
      <trkpt lat="44.32437" lon="1.09753">
        <ele>141.2</ele>
        <time>2016-05-16T09:22:58Z</time>
      </trkpt>
      <trkpt lat="44.3244" lon="1.09719">
        <ele>141.8</ele>
        <time>2016-05-16T09:23:04Z</time>
      </trkpt>
      <trkpt lat="44.32442" lon="1.09695">
        <ele>142.8</ele>
        <time>2016-05-16T09:23:09Z</time>
      </trkpt>
      <trkpt lat="44.32443" lon="1.09691">
        <ele>142.8</ele>
        <time>2016-05-16T09:23:10Z</time>
      </trkpt>
      <trkpt lat="44.32446" lon="1.09666">
        <ele>143.8</ele>
        <time>2016-05-16T09:23:16Z</time>
      </trkpt>
      <trkpt lat="44.32446" lon="1.09658">
        <ele>144.4</ele>
        <time>2016-05-16T09:23:18Z</time>
      </trkpt>
      <trkpt lat="44.32442" lon="1.09647">
        <ele>145</ele>
        <time>2016-05-16T09:23:22Z</time>
      </trkpt>
      <trkpt lat="44.3244" lon="1.09644">
        <ele>145.4</ele>
        <time>2016-05-16T09:23:23Z</time>
      </trkpt>
      <trkpt lat="44.32433" lon="1.09636">
        <ele>146</ele>
        <time>2016-05-16T09:23:26Z</time>
      </trkpt>
      <trkpt lat="44.32426" lon="1.09629">
        <ele>146.6</ele>
        <time>2016-05-16T09:23:29Z</time>
      </trkpt>
      <trkpt lat="44.32418" lon="1.09623">
        <ele>147</ele>
        <time>2016-05-16T09:23:32Z</time>
      </trkpt>
      <trkpt lat="44.32407" lon="1.09616">
        <ele>147.8</ele>
        <time>2016-05-16T09:23:36Z</time>
      </trkpt>
      <trkpt lat="44.32404" lon="1.09614">
        <ele>148.2</ele>
        <time>2016-05-16T09:23:37Z</time>
      </trkpt>
      <trkpt lat="44.32392" lon="1.09603">
        <ele>149</ele>
        <time>2016-05-16T09:23:42Z</time>
      </trkpt>
      <trkpt lat="44.3239" lon="1.09601">
        <ele>149.4</ele>
        <time>2016-05-16T09:23:43Z</time>
      </trkpt>
      <trkpt lat="44.32387" lon="1.09592">
        <ele>149.8</ele>
        <time>2016-05-16T09:23:46Z</time>
      </trkpt>
      <trkpt lat="44.32387" lon="1.09592">
        <ele>150.6</ele>
        <time>2016-05-16T09:23:48Z</time>
      </trkpt>
      <trkpt lat="44.32387" lon="1.0959">
        <ele>150.8</ele>
        <time>2016-05-16T09:23:53Z</time>
      </trkpt>
      <trkpt lat="44.3239" lon="1.09585">
        <ele>151</ele>
        <time>2016-05-16T09:23:57Z</time>
      </trkpt>
      <trkpt lat="44.32392" lon="1.09585">
        <ele>151</ele>
        <time>2016-05-16T09:23:58Z</time>
      </trkpt>
      <trkpt lat="44.32404" lon="1.09592">
        <ele>151.6</ele>
        <time>2016-05-16T09:24:02Z</time>
      </trkpt>
      <trkpt lat="44.32415" lon="1.09593">
        <ele>152.6</ele>
        <time>2016-05-16T09:24:07Z</time>
      </trkpt>
      <trkpt lat="44.32429" lon="1.09593">
        <ele>153.6</ele>
        <time>2016-05-16T09:24:13Z</time>
      </trkpt>
      <trkpt lat="44.32431" lon="1.09594">
        <ele>153.8</ele>
        <time>2016-05-16T09:24:14Z</time>
      </trkpt>
      <trkpt lat="44.32447" lon="1.09598">
        <ele>154.8</ele>
        <time>2016-05-16T09:24:21Z</time>
      </trkpt>
      <trkpt lat="44.32449" lon="1.09599">
        <ele>155</ele>
        <time>2016-05-16T09:24:22Z</time>
      </trkpt>
      <trkpt lat="44.32466" lon="1.09602">
        <ele>156.2</ele>
        <time>2016-05-16T09:24:29Z</time>
      </trkpt>
      <trkpt lat="44.32469" lon="1.09602">
        <ele>156.6</ele>
        <time>2016-05-16T09:24:30Z</time>
      </trkpt>
      <trkpt lat="44.3248" lon="1.09601">
        <ele>157.4</ele>
        <time>2016-05-16T09:24:34Z</time>
      </trkpt>
      <trkpt lat="44.32489" lon="1.09599">
        <ele>157.6</ele>
        <time>2016-05-16T09:24:37Z</time>
      </trkpt>
      <trkpt lat="44.325" lon="1.09595">
        <ele>158.4</ele>
        <time>2016-05-16T09:24:41Z</time>
      </trkpt>
      <trkpt lat="44.3251" lon="1.09596">
        <ele>159</ele>
        <time>2016-05-16T09:24:44Z</time>
      </trkpt>
      <trkpt lat="44.32517" lon="1.09595">
        <ele>159.6</ele>
        <time>2016-05-16T09:24:47Z</time>
      </trkpt>
      <trkpt lat="44.32529" lon="1.09598">
        <ele>160.4</ele>
        <time>2016-05-16T09:24:52Z</time>
      </trkpt>
      <trkpt lat="44.32534" lon="1.096">
        <ele>160.8</ele>
        <time>2016-05-16T09:24:54Z</time>
      </trkpt>
      <trkpt lat="44.3255" lon="1.09607">
        <ele>161</ele>
        <time>2016-05-16T09:24:59Z</time>
      </trkpt>
      <trkpt lat="44.32558" lon="1.09612">
        <ele>160.8</ele>
        <time>2016-05-16T09:25:01Z</time>
      </trkpt>
      <trkpt lat="44.32572" lon="1.09623">
        <ele>160.8</ele>
        <time>2016-05-16T09:25:05Z</time>
      </trkpt>
      <trkpt lat="44.32585" lon="1.09633">
        <ele>160.8</ele>
        <time>2016-05-16T09:25:09Z</time>
      </trkpt>
      <trkpt lat="44.32592" lon="1.09638">
        <ele>160.8</ele>
        <time>2016-05-16T09:25:11Z</time>
      </trkpt>
      <trkpt lat="44.32614" lon="1.09648">
        <ele>161.2</ele>
        <time>2016-05-16T09:25:17Z</time>
      </trkpt>
      <trkpt lat="44.32621" lon="1.09648">
        <ele>161.8</ele>
        <time>2016-05-16T09:25:19Z</time>
      </trkpt>
      <trkpt lat="44.32636" lon="1.09645">
        <ele>162.2</ele>
        <time>2016-05-16T09:25:23Z</time>
      </trkpt>
      <trkpt lat="44.32656" lon="1.09634">
        <ele>163</ele>
        <time>2016-05-16T09:25:28Z</time>
      </trkpt>
      <trkpt lat="44.32663" lon="1.09628">
        <ele>163.4</ele>
        <time>2016-05-16T09:25:30Z</time>
      </trkpt>
      <trkpt lat="44.32678" lon="1.09613">
        <ele>164.2</ele>
        <time>2016-05-16T09:25:35Z</time>
      </trkpt>
      <trkpt lat="44.32684" lon="1.09605">
        <ele>164.6</ele>
        <time>2016-05-16T09:25:37Z</time>
      </trkpt>
      <trkpt lat="44.32699" lon="1.09573">
        <ele>165</ele>
        <time>2016-05-16T09:25:44Z</time>
      </trkpt>
      <trkpt lat="44.32707" lon="1.09554">
        <ele>165.2</ele>
        <time>2016-05-16T09:25:48Z</time>
      </trkpt>
      <trkpt lat="44.32717" lon="1.09529">
        <ele>165.2</ele>
        <time>2016-05-16T09:25:53Z</time>
      </trkpt>
      <trkpt lat="44.32731" lon="1.09496">
        <ele>165.8</ele>
        <time>2016-05-16T09:26:00Z</time>
      </trkpt>
      <trkpt lat="44.32745" lon="1.09461">
        <ele>166.2</ele>
        <time>2016-05-16T09:26:07Z</time>
      </trkpt>
      <trkpt lat="44.32747" lon="1.09457">
        <ele>166.2</ele>
        <time>2016-05-16T09:26:08Z</time>
      </trkpt>
      <trkpt lat="44.32757" lon="1.09421">
        <ele>166.4</ele>
        <time>2016-05-16T09:26:15Z</time>
      </trkpt>
      <trkpt lat="44.32762" lon="1.09378">
        <ele>166.4</ele>
        <time>2016-05-16T09:26:23Z</time>
      </trkpt>
      <trkpt lat="44.32768" lon="1.09324">
        <ele>167.4</ele>
        <time>2016-05-16T09:26:32Z</time>
      </trkpt>
      <trkpt lat="44.3277" lon="1.09298">
        <ele>167</ele>
        <time>2016-05-16T09:26:38Z</time>
      </trkpt>
      <trkpt lat="44.32775" lon="1.09271">
        <ele>166</ele>
        <time>2016-05-16T09:26:43Z</time>
      </trkpt>
      <trkpt lat="44.3278" lon="1.09245">
        <ele>165.2</ele>
        <time>2016-05-16T09:26:48Z</time>
      </trkpt>
      <trkpt lat="44.32783" lon="1.0923">
        <ele>165.6</ele>
        <time>2016-05-16T09:26:53Z</time>
      </trkpt>
      <trkpt lat="44.32785" lon="1.09213">
        <ele>165.2</ele>
        <time>2016-05-16T09:26:58Z</time>
      </trkpt>
      <trkpt lat="44.3279" lon="1.09209">
        <ele>165.2</ele>
        <time>2016-05-16T09:27:02Z</time>
      </trkpt>
      <trkpt lat="44.3279" lon="1.09208">
        <ele>165</ele>
        <time>2016-05-16T09:27:03Z</time>
      </trkpt>
      <trkpt lat="44.3279" lon="1.09209">
        <ele>165.2</ele>
        <time>2016-05-16T09:27:06Z</time>
      </trkpt>
      <trkpt lat="44.3279" lon="1.09214">
        <ele>165.2</ele>
        <time>2016-05-16T09:27:09Z</time>
      </trkpt>
      <trkpt lat="44.32788" lon="1.09217">
        <ele>165.4</ele>
        <time>2016-05-16T09:27:12Z</time>
      </trkpt>
      <trkpt lat="44.32786" lon="1.09219">
        <ele>165.6</ele>
        <time>2016-05-16T09:27:13Z</time>
      </trkpt>
      <trkpt lat="44.32781" lon="1.09223">
        <ele>165.4</ele>
        <time>2016-05-16T09:27:16Z</time>
      </trkpt>
      <trkpt lat="44.32781" lon="1.09225">
        <ele>165.8</ele>
        <time>2016-05-16T09:27:17Z</time>
      </trkpt>
      <trkpt lat="44.32778" lon="1.0923">
        <ele>165.6</ele>
        <time>2016-05-16T09:27:22Z</time>
      </trkpt>
      <trkpt lat="44.32778" lon="1.09231">
        <ele>165.2</ele>
        <time>2016-05-16T09:27:28Z</time>
      </trkpt>
      <trkpt lat="44.32779" lon="1.0923">
        <ele>165.4</ele>
        <time>2016-05-16T09:27:29Z</time>
      </trkpt>
      <trkpt lat="44.32785" lon="1.09218">
        <ele>165.6</ele>
        <time>2016-05-16T09:27:34Z</time>
      </trkpt>
      <trkpt lat="44.32788" lon="1.09203">
        <ele>165.2</ele>
        <time>2016-05-16T09:27:41Z</time>
      </trkpt>
      <trkpt lat="44.32788" lon="1.09204">
        <ele>165.2</ele>
        <time>2016-05-16T09:27:54Z</time>
      </trkpt>
      <trkpt lat="44.32793" lon="1.09203">
        <ele>165.2</ele>
        <time>2016-05-16T09:28:25Z</time>
      </trkpt>
      <trkpt lat="44.32798" lon="1.09191">
        <ele>164.2</ele>
        <time>2016-05-16T09:28:29Z</time>
      </trkpt>
      <trkpt lat="44.32801" lon="1.09189">
        <ele>163.8</ele>
        <time>2016-05-16T09:28:30Z</time>
      </trkpt>
      <trkpt lat="44.32808" lon="1.09188">
        <ele>162.6</ele>
        <time>2016-05-16T09:28:32Z</time>
      </trkpt>
      <trkpt lat="44.32814" lon="1.0919">
        <ele>162.2</ele>
        <time>2016-05-16T09:28:33Z</time>
      </trkpt>
      <trkpt lat="44.32819" lon="1.09192">
        <ele>161.8</ele>
        <time>2016-05-16T09:28:34Z</time>
      </trkpt>
      <trkpt lat="44.32825" lon="1.09193">
        <ele>161.2</ele>
        <time>2016-05-16T09:28:35Z</time>
      </trkpt>
      <trkpt lat="44.3283" lon="1.09192">
        <ele>160.8</ele>
        <time>2016-05-16T09:28:36Z</time>
      </trkpt>
      <trkpt lat="44.32841" lon="1.09187">
        <ele>160</ele>
        <time>2016-05-16T09:28:38Z</time>
      </trkpt>
      <trkpt lat="44.32853" lon="1.09181">
        <ele>159.4</ele>
        <time>2016-05-16T09:28:40Z</time>
      </trkpt>
      <trkpt lat="44.32867" lon="1.09173">
        <ele>158.8</ele>
        <time>2016-05-16T09:28:42Z</time>
      </trkpt>
      <trkpt lat="44.32882" lon="1.09165">
        <ele>157.4</ele>
        <time>2016-05-16T09:28:44Z</time>
      </trkpt>
      <trkpt lat="44.3289" lon="1.09162">
        <ele>157</ele>
        <time>2016-05-16T09:28:45Z</time>
      </trkpt>
      <trkpt lat="44.32898" lon="1.09161">
        <ele>156.6</ele>
        <time>2016-05-16T09:28:46Z</time>
      </trkpt>
      <trkpt lat="44.32907" lon="1.0916">
        <ele>156.2</ele>
        <time>2016-05-16T09:28:47Z</time>
      </trkpt>
      <trkpt lat="44.32923" lon="1.09159">
        <ele>155.8</ele>
        <time>2016-05-16T09:28:49Z</time>
      </trkpt>
      <trkpt lat="44.32931" lon="1.09158">
        <ele>156</ele>
        <time>2016-05-16T09:28:50Z</time>
      </trkpt>
      <trkpt lat="44.32963" lon="1.09152">
        <ele>156.8</ele>
        <time>2016-05-16T09:28:55Z</time>
      </trkpt>
      <trkpt lat="44.32967" lon="1.09148">
        <ele>157.2</ele>
        <time>2016-05-16T09:28:56Z</time>
      </trkpt>
      <trkpt lat="44.32971" lon="1.0914">
        <ele>158.2</ele>
        <time>2016-05-16T09:28:58Z</time>
      </trkpt>
      <trkpt lat="44.32972" lon="1.09136">
        <ele>158.6</ele>
        <time>2016-05-16T09:28:59Z</time>
      </trkpt>
      <trkpt lat="44.32975" lon="1.09128">
        <ele>159</ele>
        <time>2016-05-16T09:29:01Z</time>
      </trkpt>
      <trkpt lat="44.32979" lon="1.09117">
        <ele>160</ele>
        <time>2016-05-16T09:29:03Z</time>
      </trkpt>
      <trkpt lat="44.32983" lon="1.09104">
        <ele>160.6</ele>
        <time>2016-05-16T09:29:05Z</time>
      </trkpt>
      <trkpt lat="44.32984" lon="1.09098">
        <ele>161.2</ele>
        <time>2016-05-16T09:29:06Z</time>
      </trkpt>
      <trkpt lat="44.32988" lon="1.09084">
        <ele>162.4</ele>
        <time>2016-05-16T09:29:08Z</time>
      </trkpt>
      <trkpt lat="44.32989" lon="1.09077">
        <ele>162.8</ele>
        <time>2016-05-16T09:29:09Z</time>
      </trkpt>
      <trkpt lat="44.32992" lon="1.09067">
        <ele>163.6</ele>
        <time>2016-05-16T09:29:11Z</time>
      </trkpt>
      <trkpt lat="44.32997" lon="1.09052">
        <ele>164.6</ele>
        <time>2016-05-16T09:29:14Z</time>
      </trkpt>
      <trkpt lat="44.32999" lon="1.09046">
        <ele>164.6</ele>
        <time>2016-05-16T09:29:15Z</time>
      </trkpt>
      <trkpt lat="44.33005" lon="1.09035">
        <ele>165.6</ele>
        <time>2016-05-16T09:29:17Z</time>
      </trkpt>
      <trkpt lat="44.33008" lon="1.09029">
        <ele>166.2</ele>
        <time>2016-05-16T09:29:18Z</time>
      </trkpt>
      <trkpt lat="44.33011" lon="1.09023">
        <ele>166.6</ele>
        <time>2016-05-16T09:29:19Z</time>
      </trkpt>
      <trkpt lat="44.33013" lon="1.09018">
        <ele>166.6</ele>
        <time>2016-05-16T09:29:20Z</time>
      </trkpt>
      <trkpt lat="44.33022" lon="1.09004">
        <ele>168.2</ele>
        <time>2016-05-16T09:29:23Z</time>
      </trkpt>
      <trkpt lat="44.33024" lon="1.08998">
        <ele>168.6</ele>
        <time>2016-05-16T09:29:24Z</time>
      </trkpt>
      <trkpt lat="44.3303" lon="1.08987">
        <ele>169.2</ele>
        <time>2016-05-16T09:29:26Z</time>
      </trkpt>
      <trkpt lat="44.33039" lon="1.0897">
        <ele>170.4</ele>
        <time>2016-05-16T09:29:29Z</time>
      </trkpt>
      <trkpt lat="44.33047" lon="1.08954">
        <ele>171.4</ele>
        <time>2016-05-16T09:29:32Z</time>
      </trkpt>
      <trkpt lat="44.33054" lon="1.0894">
        <ele>172.6</ele>
        <time>2016-05-16T09:29:35Z</time>
      </trkpt>
      <trkpt lat="44.33056" lon="1.08937">
        <ele>172.8</ele>
        <time>2016-05-16T09:29:36Z</time>
      </trkpt>
      <trkpt lat="44.33061" lon="1.08925">
        <ele>173.2</ele>
        <time>2016-05-16T09:29:40Z</time>
      </trkpt>
      <trkpt lat="44.33063" lon="1.08923">
        <ele>173.2</ele>
        <time>2016-05-16T09:29:41Z</time>
      </trkpt>
      <trkpt lat="44.33075" lon="1.08897">
        <ele>173.4</ele>
        <time>2016-05-16T09:29:48Z</time>
      </trkpt>
      <trkpt lat="44.33078" lon="1.0889">
        <ele>173.6</ele>
        <time>2016-05-16T09:29:50Z</time>
      </trkpt>
      <trkpt lat="44.33087" lon="1.08871">
        <ele>174</ele>
        <time>2016-05-16T09:29:56Z</time>
      </trkpt>
      <trkpt lat="44.33095" lon="1.08853">
        <ele>174.2</ele>
        <time>2016-05-16T09:30:03Z</time>
      </trkpt>
      <trkpt lat="44.33097" lon="1.08844">
        <ele>174</ele>
        <time>2016-05-16T09:30:07Z</time>
      </trkpt>
      <trkpt lat="44.331" lon="1.0884">
        <ele>174.2</ele>
        <time>2016-05-16T09:30:10Z</time>
      </trkpt>
      <trkpt lat="44.33105" lon="1.08828">
        <ele>174</ele>
        <time>2016-05-16T09:30:17Z</time>
      </trkpt>
      <trkpt lat="44.33115" lon="1.08812">
        <ele>173.6</ele>
        <time>2016-05-16T09:30:24Z</time>
      </trkpt>
      <trkpt lat="44.33127" lon="1.08791">
        <ele>173.6</ele>
        <time>2016-05-16T09:30:30Z</time>
      </trkpt>
      <trkpt lat="44.33144" lon="1.08762">
        <ele>173.8</ele>
        <time>2016-05-16T09:30:39Z</time>
      </trkpt>
      <trkpt lat="44.33162" lon="1.0873">
        <ele>173.4</ele>
        <time>2016-05-16T09:30:47Z</time>
      </trkpt>
      <trkpt lat="44.3318" lon="1.08699">
        <ele>172.8</ele>
        <time>2016-05-16T09:30:54Z</time>
      </trkpt>
      <trkpt lat="44.33201" lon="1.08667">
        <ele>172.6</ele>
        <time>2016-05-16T09:31:01Z</time>
      </trkpt>
      <trkpt lat="44.33204" lon="1.08662">
        <ele>172.4</ele>
        <time>2016-05-16T09:31:02Z</time>
      </trkpt>
      <trkpt lat="44.33228" lon="1.08623">
        <ele>173.4</ele>
        <time>2016-05-16T09:31:11Z</time>
      </trkpt>
      <trkpt lat="44.3323" lon="1.0862">
        <ele>173.8</ele>
        <time>2016-05-16T09:31:12Z</time>
      </trkpt>
      <trkpt lat="44.3324" lon="1.086">
        <ele>174.4</ele>
        <time>2016-05-16T09:31:17Z</time>
      </trkpt>
      <trkpt lat="44.33247" lon="1.08585">
        <ele>174.6</ele>
        <time>2016-05-16T09:31:21Z</time>
      </trkpt>
      <trkpt lat="44.33249" lon="1.08582">
        <ele>174.8</ele>
        <time>2016-05-16T09:31:22Z</time>
      </trkpt>
      <trkpt lat="44.33256" lon="1.08565">
        <ele>175.6</ele>
        <time>2016-05-16T09:31:26Z</time>
      </trkpt>
      <trkpt lat="44.33261" lon="1.08553">
        <ele>175.8</ele>
        <time>2016-05-16T09:31:29Z</time>
      </trkpt>
      <trkpt lat="44.33266" lon="1.08544">
        <ele>174.4</ele>
        <time>2016-05-16T09:31:31Z</time>
      </trkpt>
      <trkpt lat="44.33272" lon="1.08532">
        <ele>176</ele>
        <time>2016-05-16T09:31:34Z</time>
      </trkpt>
      <trkpt lat="44.33293" lon="1.08501">
        <ele>175.2</ele>
        <time>2016-05-16T09:31:41Z</time>
      </trkpt>
      <trkpt lat="44.33297" lon="1.08497">
        <ele>175</ele>
        <time>2016-05-16T09:31:42Z</time>
      </trkpt>
      <trkpt lat="44.33318" lon="1.08471">
        <ele>175.2</ele>
        <time>2016-05-16T09:31:48Z</time>
      </trkpt>
      <trkpt lat="44.33325" lon="1.08464">
        <ele>175</ele>
        <time>2016-05-16T09:31:50Z</time>
      </trkpt>
      <trkpt lat="44.33332" lon="1.08458">
        <ele>175</ele>
        <time>2016-05-16T09:31:52Z</time>
      </trkpt>
      <trkpt lat="44.33337" lon="1.08453">
        <ele>175.2</ele>
        <time>2016-05-16T09:31:54Z</time>
      </trkpt>
      <trkpt lat="44.33351" lon="1.08442">
        <ele>176.2</ele>
        <time>2016-05-16T09:31:59Z</time>
      </trkpt>
      <trkpt lat="44.33355" lon="1.08437">
        <ele>176.4</ele>
        <time>2016-05-16T09:32:01Z</time>
      </trkpt>
      <trkpt lat="44.33368" lon="1.08424">
        <ele>177</ele>
        <time>2016-05-16T09:32:07Z</time>
      </trkpt>
      <trkpt lat="44.33371" lon="1.08422">
        <ele>177.2</ele>
        <time>2016-05-16T09:32:08Z</time>
      </trkpt>
      <trkpt lat="44.33387" lon="1.08409">
        <ele>177.8</ele>
        <time>2016-05-16T09:32:14Z</time>
      </trkpt>
      <trkpt lat="44.33402" lon="1.08396">
        <ele>178.4</ele>
        <time>2016-05-16T09:32:19Z</time>
      </trkpt>
      <trkpt lat="44.33414" lon="1.08388">
        <ele>179</ele>
        <time>2016-05-16T09:32:23Z</time>
      </trkpt>
      <trkpt lat="44.33417" lon="1.08385">
        <ele>179</ele>
        <time>2016-05-16T09:32:24Z</time>
      </trkpt>
      <trkpt lat="44.33426" lon="1.0838">
        <ele>179.6</ele>
        <time>2016-05-16T09:32:27Z</time>
      </trkpt>
      <trkpt lat="44.33438" lon="1.08372">
        <ele>179.8</ele>
        <time>2016-05-16T09:32:31Z</time>
      </trkpt>
      <trkpt lat="44.33455" lon="1.08364">
        <ele>180.6</ele>
        <time>2016-05-16T09:32:37Z</time>
      </trkpt>
      <trkpt lat="44.33458" lon="1.08363">
        <ele>180.6</ele>
        <time>2016-05-16T09:32:38Z</time>
      </trkpt>
      <trkpt lat="44.33479" lon="1.08356">
        <ele>181.8</ele>
        <time>2016-05-16T09:32:45Z</time>
      </trkpt>
      <trkpt lat="44.33482" lon="1.08355">
        <ele>182</ele>
        <time>2016-05-16T09:32:46Z</time>
      </trkpt>
      <trkpt lat="44.33502" lon="1.08349">
        <ele>182.8</ele>
        <time>2016-05-16T09:32:52Z</time>
      </trkpt>
      <trkpt lat="44.33509" lon="1.08346">
        <ele>182.8</ele>
        <time>2016-05-16T09:32:54Z</time>
      </trkpt>
      <trkpt lat="44.33529" lon="1.08335">
        <ele>183.4</ele>
        <time>2016-05-16T09:33:01Z</time>
      </trkpt>
      <trkpt lat="44.33544" lon="1.08325">
        <ele>183.8</ele>
        <time>2016-05-16T09:33:06Z</time>
      </trkpt>
      <trkpt lat="44.3355" lon="1.08321">
        <ele>184.2</ele>
        <time>2016-05-16T09:33:08Z</time>
      </trkpt>
      <trkpt lat="44.33571" lon="1.08301">
        <ele>184.8</ele>
        <time>2016-05-16T09:33:16Z</time>
      </trkpt>
      <trkpt lat="44.33586" lon="1.08288">
        <ele>185.6</ele>
        <time>2016-05-16T09:33:22Z</time>
      </trkpt>
      <trkpt lat="44.33593" lon="1.08282">
        <ele>186</ele>
        <time>2016-05-16T09:33:25Z</time>
      </trkpt>
      <trkpt lat="44.33601" lon="1.08276">
        <ele>186.4</ele>
        <time>2016-05-16T09:33:28Z</time>
      </trkpt>
      <trkpt lat="44.33611" lon="1.08271">
        <ele>187.2</ele>
        <time>2016-05-16T09:33:32Z</time>
      </trkpt>
      <trkpt lat="44.33618" lon="1.08267">
        <ele>187.6</ele>
        <time>2016-05-16T09:33:35Z</time>
      </trkpt>
      <trkpt lat="44.33631" lon="1.08259">
        <ele>188.2</ele>
        <time>2016-05-16T09:33:40Z</time>
      </trkpt>
      <trkpt lat="44.33634" lon="1.08258">
        <ele>188.2</ele>
        <time>2016-05-16T09:33:41Z</time>
      </trkpt>
      <trkpt lat="44.33649" lon="1.0825">
        <ele>189.2</ele>
        <time>2016-05-16T09:33:47Z</time>
      </trkpt>
      <trkpt lat="44.33664" lon="1.08241">
        <ele>190.2</ele>
        <time>2016-05-16T09:33:54Z</time>
      </trkpt>
      <trkpt lat="44.33667" lon="1.08238">
        <ele>190.4</ele>
        <time>2016-05-16T09:33:55Z</time>
      </trkpt>
      <trkpt lat="44.33681" lon="1.08222">
        <ele>191.2</ele>
        <time>2016-05-16T09:34:01Z</time>
      </trkpt>
      <trkpt lat="44.33684" lon="1.08215">
        <ele>191.4</ele>
        <time>2016-05-16T09:34:03Z</time>
      </trkpt>
      <trkpt lat="44.33688" lon="1.08205">
        <ele>191.4</ele>
        <time>2016-05-16T09:34:06Z</time>
      </trkpt>
      <trkpt lat="44.33696" lon="1.0819">
        <ele>192.6</ele>
        <time>2016-05-16T09:34:11Z</time>
      </trkpt>
      <trkpt lat="44.33701" lon="1.08181">
        <ele>193.2</ele>
        <time>2016-05-16T09:34:14Z</time>
      </trkpt>
      <trkpt lat="44.33705" lon="1.08171">
        <ele>193.8</ele>
        <time>2016-05-16T09:34:17Z</time>
      </trkpt>
      <trkpt lat="44.33711" lon="1.08158">
        <ele>194.8</ele>
        <time>2016-05-16T09:34:21Z</time>
      </trkpt>
      <trkpt lat="44.33712" lon="1.08155">
        <ele>195</ele>
        <time>2016-05-16T09:34:22Z</time>
      </trkpt>
      <trkpt lat="44.33716" lon="1.08147">
        <ele>196.2</ele>
        <time>2016-05-16T09:34:25Z</time>
      </trkpt>
      <trkpt lat="44.33721" lon="1.08138">
        <ele>196.8</ele>
        <time>2016-05-16T09:34:28Z</time>
      </trkpt>
      <trkpt lat="44.33726" lon="1.0813">
        <ele>197.4</ele>
        <time>2016-05-16T09:34:30Z</time>
      </trkpt>
      <trkpt lat="44.33728" lon="1.08126">
        <ele>197.6</ele>
        <time>2016-05-16T09:34:31Z</time>
      </trkpt>
      <trkpt lat="44.33733" lon="1.08118">
        <ele>198.2</ele>
        <time>2016-05-16T09:34:33Z</time>
      </trkpt>
      <trkpt lat="44.33738" lon="1.0811">
        <ele>198.8</ele>
        <time>2016-05-16T09:34:35Z</time>
      </trkpt>
      <trkpt lat="44.33743" lon="1.08105">
        <ele>199.8</ele>
        <time>2016-05-16T09:34:37Z</time>
      </trkpt>
      <trkpt lat="44.33745" lon="1.08103">
        <ele>200.2</ele>
        <time>2016-05-16T09:34:38Z</time>
      </trkpt>
      <trkpt lat="44.3375" lon="1.08094">
        <ele>200.8</ele>
        <time>2016-05-16T09:34:41Z</time>
      </trkpt>
      <trkpt lat="44.33755" lon="1.08088">
        <ele>201.2</ele>
        <time>2016-05-16T09:34:43Z</time>
      </trkpt>
      <trkpt lat="44.33763" lon="1.08078">
        <ele>202.6</ele>
        <time>2016-05-16T09:34:46Z</time>
      </trkpt>
      <trkpt lat="44.33775" lon="1.08064">
        <ele>203.8</ele>
        <time>2016-05-16T09:34:52Z</time>
      </trkpt>
      <trkpt lat="44.33785" lon="1.0805">
        <ele>204.8</ele>
        <time>2016-05-16T09:34:57Z</time>
      </trkpt>
      <trkpt lat="44.3379" lon="1.08045">
        <ele>205.2</ele>
        <time>2016-05-16T09:34:59Z</time>
      </trkpt>
      <trkpt lat="44.33797" lon="1.08033">
        <ele>206</ele>
        <time>2016-05-16T09:35:03Z</time>
      </trkpt>
      <trkpt lat="44.33799" lon="1.0803">
        <ele>206.2</ele>
        <time>2016-05-16T09:35:04Z</time>
      </trkpt>
      <trkpt lat="44.33805" lon="1.08021">
        <ele>207.8</ele>
        <time>2016-05-16T09:35:07Z</time>
      </trkpt>
      <trkpt lat="44.33812" lon="1.08013">
        <ele>206.8</ele>
        <time>2016-05-16T09:35:10Z</time>
      </trkpt>
      <trkpt lat="44.33824" lon="1.07989">
        <ele>208.4</ele>
        <time>2016-05-16T09:35:17Z</time>
      </trkpt>
      <trkpt lat="44.33825" lon="1.07983">
        <ele>208.8</ele>
        <time>2016-05-16T09:35:18Z</time>
      </trkpt>
      <trkpt lat="44.33829" lon="1.0796">
        <ele>209.6</ele>
        <time>2016-05-16T09:35:22Z</time>
      </trkpt>
      <trkpt lat="44.3383" lon="1.07954">
        <ele>209.6</ele>
        <time>2016-05-16T09:35:23Z</time>
      </trkpt>
      <trkpt lat="44.33831" lon="1.07949">
        <ele>209.8</ele>
        <time>2016-05-16T09:35:24Z</time>
      </trkpt>
      <trkpt lat="44.33837" lon="1.07938">
        <ele>210.8</ele>
        <time>2016-05-16T09:35:27Z</time>
      </trkpt>
      <trkpt lat="44.33839" lon="1.07935">
        <ele>211.4</ele>
        <time>2016-05-16T09:35:28Z</time>
      </trkpt>
      <trkpt lat="44.33842" lon="1.07933">
        <ele>211.6</ele>
        <time>2016-05-16T09:35:29Z</time>
      </trkpt>
      <trkpt lat="44.3385" lon="1.07928">
        <ele>213</ele>
        <time>2016-05-16T09:35:32Z</time>
      </trkpt>
      <trkpt lat="44.33852" lon="1.07926">
        <ele>213</ele>
        <time>2016-05-16T09:35:33Z</time>
      </trkpt>
      <trkpt lat="44.33862" lon="1.0792">
        <ele>214.4</ele>
        <time>2016-05-16T09:35:37Z</time>
      </trkpt>
      <trkpt lat="44.33868" lon="1.07914">
        <ele>215.2</ele>
        <time>2016-05-16T09:35:40Z</time>
      </trkpt>
      <trkpt lat="44.33875" lon="1.07907">
        <ele>215.4</ele>
        <time>2016-05-16T09:35:43Z</time>
      </trkpt>
      <trkpt lat="44.33882" lon="1.07896">
        <ele>216.4</ele>
        <time>2016-05-16T09:35:47Z</time>
      </trkpt>
      <trkpt lat="44.33883" lon="1.07893">
        <ele>216.6</ele>
        <time>2016-05-16T09:35:48Z</time>
      </trkpt>
      <trkpt lat="44.3389" lon="1.07876">
        <ele>217.8</ele>
        <time>2016-05-16T09:35:53Z</time>
      </trkpt>
      <trkpt lat="44.33891" lon="1.07872">
        <ele>216.8</ele>
        <time>2016-05-16T09:35:54Z</time>
      </trkpt>
      <trkpt lat="44.33892" lon="1.07869">
        <ele>215.8</ele>
        <time>2016-05-16T09:35:55Z</time>
      </trkpt>
      <trkpt lat="44.33895" lon="1.07859">
        <ele>218.8</ele>
        <time>2016-05-16T09:35:58Z</time>
      </trkpt>
      <trkpt lat="44.33903" lon="1.07839">
        <ele>219</ele>
        <time>2016-05-16T09:36:04Z</time>
      </trkpt>
      <trkpt lat="44.33913" lon="1.07811">
        <ele>219.8</ele>
        <time>2016-05-16T09:36:12Z</time>
      </trkpt>
      <trkpt lat="44.3392" lon="1.07796">
        <ele>219.8</ele>
        <time>2016-05-16T09:36:18Z</time>
      </trkpt>
      <trkpt lat="44.33922" lon="1.07792">
        <ele>220</ele>
        <time>2016-05-16T09:36:20Z</time>
      </trkpt>
      <trkpt lat="44.33928" lon="1.07781">
        <ele>220.2</ele>
        <time>2016-05-16T09:36:25Z</time>
      </trkpt>
      <trkpt lat="44.33931" lon="1.07774">
        <ele>220</ele>
        <time>2016-05-16T09:36:28Z</time>
      </trkpt>
      <trkpt lat="44.33932" lon="1.07772">
        <ele>220</ele>
        <time>2016-05-16T09:36:29Z</time>
      </trkpt>
      <trkpt lat="44.33934" lon="1.07771">
        <ele>220.2</ele>
        <time>2016-05-16T09:36:33Z</time>
      </trkpt>
      <trkpt lat="44.33938" lon="1.07763">
        <ele>220.4</ele>
        <time>2016-05-16T09:38:12Z</time>
      </trkpt>
      <trkpt lat="44.33941" lon="1.07757">
        <ele>220.6</ele>
        <time>2016-05-16T09:38:14Z</time>
      </trkpt>
      <trkpt lat="44.33953" lon="1.0773">
        <ele>220.4</ele>
        <time>2016-05-16T09:38:21Z</time>
      </trkpt>
      <trkpt lat="44.33967" lon="1.07691">
        <ele>221.2</ele>
        <time>2016-05-16T09:38:30Z</time>
      </trkpt>
      <trkpt lat="44.33969" lon="1.07686">
        <ele>221.2</ele>
        <time>2016-05-16T09:38:31Z</time>
      </trkpt>
      <trkpt lat="44.33981" lon="1.0765">
        <ele>222.2</ele>
        <time>2016-05-16T09:38:39Z</time>
      </trkpt>
      <trkpt lat="44.33983" lon="1.07646">
        <ele>222.4</ele>
        <time>2016-05-16T09:38:40Z</time>
      </trkpt>
      <trkpt lat="44.33989" lon="1.07631">
        <ele>223.2</ele>
        <time>2016-05-16T09:38:44Z</time>
      </trkpt>
      <trkpt lat="44.33994" lon="1.07615">
        <ele>224</ele>
        <time>2016-05-16T09:38:48Z</time>
      </trkpt>
      <trkpt lat="44.33996" lon="1.07611">
        <ele>224.4</ele>
        <time>2016-05-16T09:38:49Z</time>
      </trkpt>
      <trkpt lat="44.34003" lon="1.0759">
        <ele>225.6</ele>
        <time>2016-05-16T09:38:54Z</time>
      </trkpt>
      <trkpt lat="44.34009" lon="1.07572">
        <ele>226.6</ele>
        <time>2016-05-16T09:38:58Z</time>
      </trkpt>
      <trkpt lat="44.34014" lon="1.0756">
        <ele>227.6</ele>
        <time>2016-05-16T09:39:01Z</time>
      </trkpt>
      <trkpt lat="44.34022" lon="1.07538">
        <ele>228.8</ele>
        <time>2016-05-16T09:39:06Z</time>
      </trkpt>
      <trkpt lat="44.34023" lon="1.07534">
        <ele>229.2</ele>
        <time>2016-05-16T09:39:07Z</time>
      </trkpt>
      <trkpt lat="44.34025" lon="1.07527">
        <ele>229.8</ele>
        <time>2016-05-16T09:39:09Z</time>
      </trkpt>
      <trkpt lat="44.3403" lon="1.07514">
        <ele>230.2</ele>
        <time>2016-05-16T09:39:13Z</time>
      </trkpt>
      <trkpt lat="44.34033" lon="1.07504">
        <ele>230.8</ele>
        <time>2016-05-16T09:39:16Z</time>
      </trkpt>
      <trkpt lat="44.34039" lon="1.0749">
        <ele>231.8</ele>
        <time>2016-05-16T09:39:21Z</time>
      </trkpt>
      <trkpt lat="44.3404" lon="1.07487">
        <ele>232</ele>
        <time>2016-05-16T09:39:22Z</time>
      </trkpt>
      <trkpt lat="44.34045" lon="1.07469">
        <ele>233</ele>
        <time>2016-05-16T09:39:28Z</time>
      </trkpt>
      <trkpt lat="44.34046" lon="1.07467">
        <ele>233.2</ele>
        <time>2016-05-16T09:39:29Z</time>
      </trkpt>
      <trkpt lat="44.34051" lon="1.07455">
        <ele>233.4</ele>
        <time>2016-05-16T09:39:36Z</time>
      </trkpt>
      <trkpt lat="44.34052" lon="1.07453">
        <ele>233.4</ele>
        <time>2016-05-16T09:39:38Z</time>
      </trkpt>
      <trkpt lat="44.34053" lon="1.07452">
        <ele>233.4</ele>
        <time>2016-05-16T09:39:42Z</time>
      </trkpt>
      <trkpt lat="44.34056" lon="1.07443">
        <ele>233.8</ele>
        <time>2016-05-16T09:40:05Z</time>
      </trkpt>
      <trkpt lat="44.34058" lon="1.07439">
        <ele>233.4</ele>
        <time>2016-05-16T09:40:06Z</time>
      </trkpt>
      <trkpt lat="44.34073" lon="1.07414">
        <ele>233.4</ele>
        <time>2016-05-16T09:40:12Z</time>
      </trkpt>
      <trkpt lat="44.34096" lon="1.07387">
        <ele>232.4</ele>
        <time>2016-05-16T09:40:18Z</time>
      </trkpt>
      <trkpt lat="44.34105" lon="1.07376">
        <ele>231.8</ele>
        <time>2016-05-16T09:40:20Z</time>
      </trkpt>
      <trkpt lat="44.3412" lon="1.07359">
        <ele>230.8</ele>
        <time>2016-05-16T09:40:23Z</time>
      </trkpt>
      <trkpt lat="44.3413" lon="1.07347">
        <ele>230</ele>
        <time>2016-05-16T09:40:25Z</time>
      </trkpt>
      <trkpt lat="44.34142" lon="1.07333">
        <ele>229.6</ele>
        <time>2016-05-16T09:40:27Z</time>
      </trkpt>
      <trkpt lat="44.34166" lon="1.07302">
        <ele>228.8</ele>
        <time>2016-05-16T09:40:31Z</time>
      </trkpt>
      <trkpt lat="44.34172" lon="1.07295">
        <ele>228.4</ele>
        <time>2016-05-16T09:40:32Z</time>
      </trkpt>
      <trkpt lat="44.34185" lon="1.07279">
        <ele>227.2</ele>
        <time>2016-05-16T09:40:34Z</time>
      </trkpt>
      <trkpt lat="44.34197" lon="1.07263">
        <ele>226.2</ele>
        <time>2016-05-16T09:40:36Z</time>
      </trkpt>
      <trkpt lat="44.34206" lon="1.07243">
        <ele>225.4</ele>
        <time>2016-05-16T09:40:38Z</time>
      </trkpt>
      <trkpt lat="44.3421" lon="1.07233">
        <ele>224.8</ele>
        <time>2016-05-16T09:40:39Z</time>
      </trkpt>
      <trkpt lat="44.34214" lon="1.07222">
        <ele>224.6</ele>
        <time>2016-05-16T09:40:40Z</time>
      </trkpt>
      <trkpt lat="44.34224" lon="1.07189">
        <ele>223.8</ele>
        <time>2016-05-16T09:40:43Z</time>
      </trkpt>
      <trkpt lat="44.3423" lon="1.07167">
        <ele>223.2</ele>
        <time>2016-05-16T09:40:45Z</time>
      </trkpt>
      <trkpt lat="44.34244" lon="1.07115">
        <ele>223.2</ele>
        <time>2016-05-16T09:40:50Z</time>
      </trkpt>
      <trkpt lat="44.34266" lon="1.07045">
        <ele>222.2</ele>
        <time>2016-05-16T09:40:57Z</time>
      </trkpt>
      <trkpt lat="44.34269" lon="1.07035">
        <ele>221.8</ele>
        <time>2016-05-16T09:40:58Z</time>
      </trkpt>
      <trkpt lat="44.34278" lon="1.07003">
        <ele>221.2</ele>
        <time>2016-05-16T09:41:01Z</time>
      </trkpt>
      <trkpt lat="44.34287" lon="1.06972">
        <ele>220</ele>
        <time>2016-05-16T09:41:04Z</time>
      </trkpt>
      <trkpt lat="44.34291" lon="1.06949">
        <ele>219.6</ele>
        <time>2016-05-16T09:41:06Z</time>
      </trkpt>
      <trkpt lat="44.34293" lon="1.06925">
        <ele>218.8</ele>
        <time>2016-05-16T09:41:08Z</time>
      </trkpt>
      <trkpt lat="44.3429" lon="1.06901">
        <ele>217.8</ele>
        <time>2016-05-16T09:41:10Z</time>
      </trkpt>
      <trkpt lat="44.34284" lon="1.06877">
        <ele>216.6</ele>
        <time>2016-05-16T09:41:12Z</time>
      </trkpt>
      <trkpt lat="44.34277" lon="1.06853">
        <ele>214.8</ele>
        <time>2016-05-16T09:41:14Z</time>
      </trkpt>
      <trkpt lat="44.34274" lon="1.06841">
        <ele>214.8</ele>
        <time>2016-05-16T09:41:15Z</time>
      </trkpt>
      <trkpt lat="44.34263" lon="1.06784">
        <ele>215</ele>
        <time>2016-05-16T09:41:20Z</time>
      </trkpt>
      <trkpt lat="44.34262" lon="1.06733">
        <ele>214.8</ele>
        <time>2016-05-16T09:41:25Z</time>
      </trkpt>
      <trkpt lat="44.34265" lon="1.06669">
        <ele>214.8</ele>
        <time>2016-05-16T09:41:32Z</time>
      </trkpt>
      <trkpt lat="44.34266" lon="1.06636">
        <ele>217</ele>
        <time>2016-05-16T09:41:36Z</time>
      </trkpt>
      <trkpt lat="44.34268" lon="1.06611">
        <ele>215</ele>
        <time>2016-05-16T09:41:39Z</time>
      </trkpt>
      <trkpt lat="44.3427" lon="1.06562">
        <ele>213.8</ele>
        <time>2016-05-16T09:41:44Z</time>
      </trkpt>
      <trkpt lat="44.34272" lon="1.06504">
        <ele>212.6</ele>
        <time>2016-05-16T09:41:49Z</time>
      </trkpt>
      <trkpt lat="44.34274" lon="1.0648">
        <ele>212.2</ele>
        <time>2016-05-16T09:41:51Z</time>
      </trkpt>
      <trkpt lat="44.34287" lon="1.06424">
        <ele>212.6</ele>
        <time>2016-05-16T09:41:56Z</time>
      </trkpt>
      <trkpt lat="44.34299" lon="1.0638">
        <ele>211.4</ele>
        <time>2016-05-16T09:42:00Z</time>
      </trkpt>
      <trkpt lat="44.34312" lon="1.06336">
        <ele>210.6</ele>
        <time>2016-05-16T09:42:04Z</time>
      </trkpt>
      <trkpt lat="44.34316" lon="1.06326">
        <ele>210</ele>
        <time>2016-05-16T09:42:05Z</time>
      </trkpt>
      <trkpt lat="44.3433" lon="1.06295">
        <ele>209</ele>
        <time>2016-05-16T09:42:08Z</time>
      </trkpt>
      <trkpt lat="44.34335" lon="1.06285">
        <ele>208.8</ele>
        <time>2016-05-16T09:42:09Z</time>
      </trkpt>
      <trkpt lat="44.34355" lon="1.06246">
        <ele>207.6</ele>
        <time>2016-05-16T09:42:13Z</time>
      </trkpt>
      <trkpt lat="44.34368" lon="1.06217">
        <ele>206.8</ele>
        <time>2016-05-16T09:42:16Z</time>
      </trkpt>
      <trkpt lat="44.34372" lon="1.06207">
        <ele>206.4</ele>
        <time>2016-05-16T09:42:17Z</time>
      </trkpt>
      <trkpt lat="44.34375" lon="1.06174">
        <ele>205.6</ele>
        <time>2016-05-16T09:42:20Z</time>
      </trkpt>
      <trkpt lat="44.34374" lon="1.06163">
        <ele>205</ele>
        <time>2016-05-16T09:42:21Z</time>
      </trkpt>
      <trkpt lat="44.34369" lon="1.06142">
        <ele>204.2</ele>
        <time>2016-05-16T09:42:23Z</time>
      </trkpt>
      <trkpt lat="44.34366" lon="1.06131">
        <ele>203.8</ele>
        <time>2016-05-16T09:42:24Z</time>
      </trkpt>
      <trkpt lat="44.34355" lon="1.06097">
        <ele>202.4</ele>
        <time>2016-05-16T09:42:27Z</time>
      </trkpt>
      <trkpt lat="44.34346" lon="1.06076">
        <ele>201.6</ele>
        <time>2016-05-16T09:42:29Z</time>
      </trkpt>
      <trkpt lat="44.34339" lon="1.06066">
        <ele>201.2</ele>
        <time>2016-05-16T09:42:30Z</time>
      </trkpt>
      <trkpt lat="44.34321" lon="1.06033">
        <ele>200.2</ele>
        <time>2016-05-16T09:42:33Z</time>
      </trkpt>
      <trkpt lat="44.34314" lon="1.06006">
        <ele>199</ele>
        <time>2016-05-16T09:42:35Z</time>
      </trkpt>
      <trkpt lat="44.34314" lon="1.05992">
        <ele>198.6</ele>
        <time>2016-05-16T09:42:36Z</time>
      </trkpt>
      <trkpt lat="44.34315" lon="1.05977">
        <ele>198</ele>
        <time>2016-05-16T09:42:37Z</time>
      </trkpt>
      <trkpt lat="44.34316" lon="1.05963">
        <ele>197.2</ele>
        <time>2016-05-16T09:42:38Z</time>
      </trkpt>
      <trkpt lat="44.34317" lon="1.05948">
        <ele>196.6</ele>
        <time>2016-05-16T09:42:39Z</time>
      </trkpt>
      <trkpt lat="44.34318" lon="1.05919">
        <ele>195.2</ele>
        <time>2016-05-16T09:42:41Z</time>
      </trkpt>
      <trkpt lat="44.34321" lon="1.05889">
        <ele>193.8</ele>
        <time>2016-05-16T09:42:43Z</time>
      </trkpt>
      <trkpt lat="44.34328" lon="1.05842">
        <ele>192.8</ele>
        <time>2016-05-16T09:42:46Z</time>
      </trkpt>
      <trkpt lat="44.34334" lon="1.05815">
        <ele>191.6</ele>
        <time>2016-05-16T09:42:48Z</time>
      </trkpt>
      <trkpt lat="44.34342" lon="1.05792">
        <ele>191.4</ele>
        <time>2016-05-16T09:42:50Z</time>
      </trkpt>
      <trkpt lat="44.34356" lon="1.05774">
        <ele>191.2</ele>
        <time>2016-05-16T09:42:52Z</time>
      </trkpt>
      <trkpt lat="44.34363" lon="1.05765">
        <ele>191.4</ele>
        <time>2016-05-16T09:42:53Z</time>
      </trkpt>
      <trkpt lat="44.3438" lon="1.05739">
        <ele>190.6</ele>
        <time>2016-05-16T09:42:56Z</time>
      </trkpt>
      <trkpt lat="44.34385" lon="1.05732">
        <ele>190.4</ele>
        <time>2016-05-16T09:42:57Z</time>
      </trkpt>
      <trkpt lat="44.34385" lon="1.05722">
        <ele>190</ele>
        <time>2016-05-16T09:42:58Z</time>
      </trkpt>
      <trkpt lat="44.34379" lon="1.05697">
        <ele>188.6</ele>
        <time>2016-05-16T09:43:00Z</time>
      </trkpt>
      <trkpt lat="44.34375" lon="1.05685">
        <ele>188</ele>
        <time>2016-05-16T09:43:01Z</time>
      </trkpt>
      <trkpt lat="44.34367" lon="1.05661">
        <ele>187.2</ele>
        <time>2016-05-16T09:43:03Z</time>
      </trkpt>
      <trkpt lat="44.34357" lon="1.05636">
        <ele>186.2</ele>
        <time>2016-05-16T09:43:05Z</time>
      </trkpt>
      <trkpt lat="44.34348" lon="1.05611">
        <ele>186</ele>
        <time>2016-05-16T09:43:07Z</time>
      </trkpt>
      <trkpt lat="44.34338" lon="1.05575">
        <ele>184.8</ele>
        <time>2016-05-16T09:43:10Z</time>
      </trkpt>
      <trkpt lat="44.34336" lon="1.05563">
        <ele>184.8</ele>
        <time>2016-05-16T09:43:11Z</time>
      </trkpt>
      <trkpt lat="44.34335" lon="1.05552">
        <ele>184.6</ele>
        <time>2016-05-16T09:43:12Z</time>
      </trkpt>
      <trkpt lat="44.34333" lon="1.05488">
        <ele>184.4</ele>
        <time>2016-05-16T09:43:18Z</time>
      </trkpt>
      <trkpt lat="44.34331" lon="1.05438">
        <ele>183.2</ele>
        <time>2016-05-16T09:43:23Z</time>
      </trkpt>
      <trkpt lat="44.34332" lon="1.05405">
        <ele>182.6</ele>
        <time>2016-05-16T09:43:26Z</time>
      </trkpt>
      <trkpt lat="44.34336" lon="1.05326">
        <ele>182.2</ele>
        <time>2016-05-16T09:43:33Z</time>
      </trkpt>
      <trkpt lat="44.34341" lon="1.05291">
        <ele>181</ele>
        <time>2016-05-16T09:43:36Z</time>
      </trkpt>
      <trkpt lat="44.34346" lon="1.05258">
        <ele>181.8</ele>
        <time>2016-05-16T09:43:39Z</time>
      </trkpt>
      <trkpt lat="44.34362" lon="1.05212">
        <ele>181.2</ele>
        <time>2016-05-16T09:43:44Z</time>
      </trkpt>
      <trkpt lat="44.34391" lon="1.05144">
        <ele>180.6</ele>
        <time>2016-05-16T09:43:52Z</time>
      </trkpt>
      <trkpt lat="44.34399" lon="1.05125">
        <ele>179.8</ele>
        <time>2016-05-16T09:43:54Z</time>
      </trkpt>
      <trkpt lat="44.34416" lon="1.05083">
        <ele>178.8</ele>
        <time>2016-05-16T09:43:58Z</time>
      </trkpt>
      <trkpt lat="44.34422" lon="1.05073">
        <ele>178.2</ele>
        <time>2016-05-16T09:43:59Z</time>
      </trkpt>
      <trkpt lat="44.34442" lon="1.05046">
        <ele>177.8</ele>
        <time>2016-05-16T09:44:02Z</time>
      </trkpt>
      <trkpt lat="44.34449" lon="1.05037">
        <ele>177.4</ele>
        <time>2016-05-16T09:44:03Z</time>
      </trkpt>
      <trkpt lat="44.34487" lon="1.04994">
        <ele>176.2</ele>
        <time>2016-05-16T09:44:08Z</time>
      </trkpt>
      <trkpt lat="44.34501" lon="1.04975">
        <ele>175.2</ele>
        <time>2016-05-16T09:44:10Z</time>
      </trkpt>
      <trkpt lat="44.34507" lon="1.04967">
        <ele>174.8</ele>
        <time>2016-05-16T09:44:11Z</time>
      </trkpt>
      <trkpt lat="44.34537" lon="1.04923">
        <ele>175</ele>
        <time>2016-05-16T09:44:16Z</time>
      </trkpt>
      <trkpt lat="44.34576" lon="1.04862">
        <ele>175.2</ele>
        <time>2016-05-16T09:44:24Z</time>
      </trkpt>
      <trkpt lat="44.34613" lon="1.048">
        <ele>174.2</ele>
        <time>2016-05-16T09:44:33Z</time>
      </trkpt>
      <trkpt lat="44.34621" lon="1.04786">
        <ele>174.8</ele>
        <time>2016-05-16T09:44:35Z</time>
      </trkpt>
      <trkpt lat="44.34653" lon="1.04733">
        <ele>175.2</ele>
        <time>2016-05-16T09:44:43Z</time>
      </trkpt>
      <trkpt lat="44.34684" lon="1.04681">
        <ele>175.4</ele>
        <time>2016-05-16T09:44:51Z</time>
      </trkpt>
      <trkpt lat="44.34722" lon="1.04624">
        <ele>175</ele>
        <time>2016-05-16T09:45:00Z</time>
      </trkpt>
      <trkpt lat="44.3475" lon="1.04583">
        <ele>173.8</ele>
        <time>2016-05-16T09:45:06Z</time>
      </trkpt>
      <trkpt lat="44.34766" lon="1.04556">
        <ele>172.6</ele>
        <time>2016-05-16T09:45:09Z</time>
      </trkpt>
      <trkpt lat="44.34784" lon="1.04527">
        <ele>171.4</ele>
        <time>2016-05-16T09:45:12Z</time>
      </trkpt>
      <trkpt lat="44.34805" lon="1.04499">
        <ele>169.8</ele>
        <time>2016-05-16T09:45:15Z</time>
      </trkpt>
      <trkpt lat="44.34821" lon="1.04483">
        <ele>168.8</ele>
        <time>2016-05-16T09:45:17Z</time>
      </trkpt>
      <trkpt lat="44.34829" lon="1.04475">
        <ele>168</ele>
        <time>2016-05-16T09:45:18Z</time>
      </trkpt>
      <trkpt lat="44.34864" lon="1.0443">
        <ele>167</ele>
        <time>2016-05-16T09:45:23Z</time>
      </trkpt>
      <trkpt lat="44.34895" lon="1.04368">
        <ele>166.6</ele>
        <time>2016-05-16T09:45:29Z</time>
      </trkpt>
      <trkpt lat="44.34917" lon="1.04317">
        <ele>165.8</ele>
        <time>2016-05-16T09:45:34Z</time>
      </trkpt>
      <trkpt lat="44.34919" lon="1.04306">
        <ele>165.8</ele>
        <time>2016-05-16T09:45:35Z</time>
      </trkpt>
      <trkpt lat="44.34922" lon="1.04269">
        <ele>165.4</ele>
        <time>2016-05-16T09:45:38Z</time>
      </trkpt>
      <trkpt lat="44.34921" lon="1.04256">
        <ele>165</ele>
        <time>2016-05-16T09:45:39Z</time>
      </trkpt>
      <trkpt lat="44.34918" lon="1.0422">
        <ele>164.6</ele>
        <time>2016-05-16T09:45:42Z</time>
      </trkpt>
      <trkpt lat="44.34915" lon="1.04197">
        <ele>163.8</ele>
        <time>2016-05-16T09:45:44Z</time>
      </trkpt>
      <trkpt lat="44.34913" lon="1.04185">
        <ele>163.6</ele>
        <time>2016-05-16T09:45:45Z</time>
      </trkpt>
      <trkpt lat="44.34904" lon="1.0414">
        <ele>162.4</ele>
        <time>2016-05-16T09:45:49Z</time>
      </trkpt>
      <trkpt lat="44.34897" lon="1.04108">
        <ele>161.6</ele>
        <time>2016-05-16T09:45:52Z</time>
      </trkpt>
      <trkpt lat="44.34895" lon="1.04097">
        <ele>161.4</ele>
        <time>2016-05-16T09:45:53Z</time>
      </trkpt>
      <trkpt lat="44.34886" lon="1.04056">
        <ele>160.2</ele>
        <time>2016-05-16T09:45:57Z</time>
      </trkpt>
      <trkpt lat="44.3488" lon="1.04036">
        <ele>160.2</ele>
        <time>2016-05-16T09:45:59Z</time>
      </trkpt>
      <trkpt lat="44.34865" lon="1.03988">
        <ele>159.2</ele>
        <time>2016-05-16T09:46:04Z</time>
      </trkpt>
      <trkpt lat="44.34857" lon="1.0396">
        <ele>158.8</ele>
        <time>2016-05-16T09:46:07Z</time>
      </trkpt>
      <trkpt lat="44.34842" lon="1.03915">
        <ele>158.2</ele>
        <time>2016-05-16T09:46:12Z</time>
      </trkpt>
      <trkpt lat="44.34829" lon="1.0388">
        <ele>158</ele>
        <time>2016-05-16T09:46:16Z</time>
      </trkpt>
      <trkpt lat="44.34803" lon="1.03825">
        <ele>157.8</ele>
        <time>2016-05-16T09:46:23Z</time>
      </trkpt>
      <trkpt lat="44.34777" lon="1.03773">
        <ele>158.2</ele>
        <time>2016-05-16T09:46:30Z</time>
      </trkpt>
      <trkpt lat="44.34753" lon="1.03729">
        <ele>157.8</ele>
        <time>2016-05-16T09:46:36Z</time>
      </trkpt>
      <trkpt lat="44.3475" lon="1.0372">
        <ele>157.8</ele>
        <time>2016-05-16T09:46:37Z</time>
      </trkpt>
      <trkpt lat="44.34744" lon="1.03683">
        <ele>158</ele>
        <time>2016-05-16T09:46:41Z</time>
      </trkpt>
      <trkpt lat="44.34743" lon="1.03674">
        <ele>157.8</ele>
        <time>2016-05-16T09:46:42Z</time>
      </trkpt>
      <trkpt lat="44.34735" lon="1.03612">
        <ele>157.6</ele>
        <time>2016-05-16T09:46:49Z</time>
      </trkpt>
      <trkpt lat="44.34722" lon="1.03561">
        <ele>157.8</ele>
        <time>2016-05-16T09:46:55Z</time>
      </trkpt>
      <trkpt lat="44.34711" lon="1.03492">
        <ele>157.2</ele>
        <time>2016-05-16T09:47:03Z</time>
      </trkpt>
      <trkpt lat="44.34709" lon="1.03483">
        <ele>157</ele>
        <time>2016-05-16T09:47:04Z</time>
      </trkpt>
      <trkpt lat="44.34694" lon="1.03434">
        <ele>156.4</ele>
        <time>2016-05-16T09:47:10Z</time>
      </trkpt>
      <trkpt lat="44.34673" lon="1.03388">
        <ele>156</ele>
        <time>2016-05-16T09:47:16Z</time>
      </trkpt>
      <trkpt lat="44.34663" lon="1.03365">
        <ele>156</ele>
        <time>2016-05-16T09:47:19Z</time>
      </trkpt>
      <trkpt lat="44.34637" lon="1.03314">
        <ele>155.8</ele>
        <time>2016-05-16T09:47:26Z</time>
      </trkpt>
      <trkpt lat="44.34609" lon="1.0326">
        <ele>156</ele>
        <time>2016-05-16T09:47:33Z</time>
      </trkpt>
      <trkpt lat="44.34581" lon="1.0319">
        <ele>155.6</ele>
        <time>2016-05-16T09:47:41Z</time>
      </trkpt>
      <trkpt lat="44.34559" lon="1.03145">
        <ele>155</ele>
        <time>2016-05-16T09:47:46Z</time>
      </trkpt>
      <trkpt lat="44.34523" lon="1.03095">
        <ele>154</ele>
        <time>2016-05-16T09:47:52Z</time>
      </trkpt>
      <trkpt lat="44.34484" lon="1.03046">
        <ele>152.8</ele>
        <time>2016-05-16T09:47:58Z</time>
      </trkpt>
      <trkpt lat="44.34478" lon="1.03038">
        <ele>152.8</ele>
        <time>2016-05-16T09:47:59Z</time>
      </trkpt>
      <trkpt lat="44.34441" lon="1.02977">
        <ele>151.8</ele>
        <time>2016-05-16T09:48:06Z</time>
      </trkpt>
      <trkpt lat="44.34407" lon="1.02932">
        <ele>152.2</ele>
        <time>2016-05-16T09:48:12Z</time>
      </trkpt>
      <trkpt lat="44.34374" lon="1.02886">
        <ele>151.6</ele>
        <time>2016-05-16T09:48:18Z</time>
      </trkpt>
      <trkpt lat="44.34364" lon="1.02868">
        <ele>151.8</ele>
        <time>2016-05-16T09:48:20Z</time>
      </trkpt>
      <trkpt lat="44.34344" lon="1.02821">
        <ele>151.4</ele>
        <time>2016-05-16T09:48:25Z</time>
      </trkpt>
      <trkpt lat="44.3434" lon="1.02811">
        <ele>151.6</ele>
        <time>2016-05-16T09:48:26Z</time>
      </trkpt>
      <trkpt lat="44.34314" lon="1.02743">
        <ele>150.6</ele>
        <time>2016-05-16T09:48:33Z</time>
      </trkpt>
      <trkpt lat="44.34303" lon="1.02713">
        <ele>150.2</ele>
        <time>2016-05-16T09:48:36Z</time>
      </trkpt>
      <trkpt lat="44.34275" lon="1.02645">
        <ele>149.2</ele>
        <time>2016-05-16T09:48:43Z</time>
      </trkpt>
      <trkpt lat="44.34271" lon="1.02635">
        <ele>149</ele>
        <time>2016-05-16T09:48:44Z</time>
      </trkpt>
      <trkpt lat="44.34241" lon="1.02572">
        <ele>148</ele>
        <time>2016-05-16T09:48:51Z</time>
      </trkpt>
      <trkpt lat="44.34232" lon="1.02555">
        <ele>148.2</ele>
        <time>2016-05-16T09:48:53Z</time>
      </trkpt>
      <trkpt lat="44.34222" lon="1.02527">
        <ele>147.6</ele>
        <time>2016-05-16T09:48:56Z</time>
      </trkpt>
      <trkpt lat="44.34218" lon="1.02507">
        <ele>147.2</ele>
        <time>2016-05-16T09:48:58Z</time>
      </trkpt>
      <trkpt lat="44.34209" lon="1.02435">
        <ele>147.2</ele>
        <time>2016-05-16T09:49:05Z</time>
      </trkpt>
      <trkpt lat="44.34208" lon="1.02425">
        <ele>146.8</ele>
        <time>2016-05-16T09:49:06Z</time>
      </trkpt>
      <trkpt lat="44.34198" lon="1.02364">
        <ele>146.2</ele>
        <time>2016-05-16T09:49:12Z</time>
      </trkpt>
      <trkpt lat="44.34175" lon="1.02291">
        <ele>146.4</ele>
        <time>2016-05-16T09:49:20Z</time>
      </trkpt>
      <trkpt lat="44.34171" lon="1.02282">
        <ele>145.8</ele>
        <time>2016-05-16T09:49:21Z</time>
      </trkpt>
      <trkpt lat="44.34142" lon="1.02209">
        <ele>145.8</ele>
        <time>2016-05-16T09:49:30Z</time>
      </trkpt>
      <trkpt lat="44.34113" lon="1.02137">
        <ele>144.4</ele>
        <time>2016-05-16T09:49:39Z</time>
      </trkpt>
      <trkpt lat="44.34093" lon="1.02088">
        <ele>143.4</ele>
        <time>2016-05-16T09:49:45Z</time>
      </trkpt>
      <trkpt lat="44.34087" lon="1.02072">
        <ele>143.8</ele>
        <time>2016-05-16T09:49:47Z</time>
      </trkpt>
      <trkpt lat="44.34084" lon="1.02065">
        <ele>144.4</ele>
        <time>2016-05-16T09:49:48Z</time>
      </trkpt>
      <trkpt lat="44.3407" lon="1.02026">
        <ele>143.8</ele>
        <time>2016-05-16T09:49:53Z</time>
      </trkpt>
      <trkpt lat="44.34052" lon="1.01982">
        <ele>143.4</ele>
        <time>2016-05-16T09:49:59Z</time>
      </trkpt>
      <trkpt lat="44.34046" lon="1.01968">
        <ele>143.2</ele>
        <time>2016-05-16T09:50:01Z</time>
      </trkpt>
      <trkpt lat="44.34031" lon="1.01933">
        <ele>143</ele>
        <time>2016-05-16T09:50:06Z</time>
      </trkpt>
      <trkpt lat="44.34023" lon="1.01913">
        <ele>143</ele>
        <time>2016-05-16T09:50:09Z</time>
      </trkpt>
      <trkpt lat="44.34004" lon="1.01865">
        <ele>142.6</ele>
        <time>2016-05-16T09:50:17Z</time>
      </trkpt>
      <trkpt lat="44.33993" lon="1.01839">
        <ele>142.4</ele>
        <time>2016-05-16T09:50:22Z</time>
      </trkpt>
      <trkpt lat="44.33988" lon="1.01824">
        <ele>142.6</ele>
        <time>2016-05-16T09:50:25Z</time>
      </trkpt>
      <trkpt lat="44.33984" lon="1.0181">
        <ele>142.2</ele>
        <time>2016-05-16T09:50:28Z</time>
      </trkpt>
      <trkpt lat="44.33982" lon="1.018">
        <ele>142.2</ele>
        <time>2016-05-16T09:50:30Z</time>
      </trkpt>
      <trkpt lat="44.33982" lon="1.01782">
        <ele>142.6</ele>
        <time>2016-05-16T09:50:34Z</time>
      </trkpt>
      <trkpt lat="44.33977" lon="1.01771">
        <ele>142.6</ele>
        <time>2016-05-16T09:50:38Z</time>
      </trkpt>
      <trkpt lat="44.33965" lon="1.01765">
        <ele>142.4</ele>
        <time>2016-05-16T09:50:43Z</time>
      </trkpt>
      <trkpt lat="44.33959" lon="1.01759">
        <ele>142.6</ele>
        <time>2016-05-16T09:50:47Z</time>
      </trkpt>
      <trkpt lat="44.33958" lon="1.01757">
        <ele>142.6</ele>
        <time>2016-05-16T09:50:48Z</time>
      </trkpt>
      <trkpt lat="44.33958" lon="1.01753">
        <ele>142.8</ele>
        <time>2016-05-16T09:50:52Z</time>
      </trkpt>
      <trkpt lat="44.33959" lon="1.01753">
        <ele>142.8</ele>
        <time>2016-05-16T09:50:53Z</time>
      </trkpt>
      <trkpt lat="44.33953" lon="1.01747">
        <ele>143.6</ele>
        <time>2016-05-16T09:52:52Z</time>
      </trkpt>
      <trkpt lat="44.3395" lon="1.01743">
        <ele>143.6</ele>
        <time>2016-05-16T09:52:54Z</time>
      </trkpt>
      <trkpt lat="44.33938" lon="1.01723">
        <ele>143.4</ele>
        <time>2016-05-16T09:53:00Z</time>
      </trkpt>
      <trkpt lat="44.33928" lon="1.01704">
        <ele>142.8</ele>
        <time>2016-05-16T09:53:04Z</time>
      </trkpt>
      <trkpt lat="44.33922" lon="1.01692">
        <ele>142.6</ele>
        <time>2016-05-16T09:53:06Z</time>
      </trkpt>
      <trkpt lat="44.33909" lon="1.01667">
        <ele>142.4</ele>
        <time>2016-05-16T09:53:10Z</time>
      </trkpt>
      <trkpt lat="44.33887" lon="1.01627">
        <ele>141.4</ele>
        <time>2016-05-16T09:53:16Z</time>
      </trkpt>
      <trkpt lat="44.3388" lon="1.01613">
        <ele>141.2</ele>
        <time>2016-05-16T09:53:18Z</time>
      </trkpt>
      <trkpt lat="44.33854" lon="1.01563">
        <ele>140.2</ele>
        <time>2016-05-16T09:53:25Z</time>
      </trkpt>
      <trkpt lat="44.33842" lon="1.0154">
        <ele>140</ele>
        <time>2016-05-16T09:53:28Z</time>
      </trkpt>
      <trkpt lat="44.33809" lon="1.01479">
        <ele>140</ele>
        <time>2016-05-16T09:53:36Z</time>
      </trkpt>
      <trkpt lat="44.33801" lon="1.01464">
        <ele>139.6</ele>
        <time>2016-05-16T09:53:38Z</time>
      </trkpt>
      <trkpt lat="44.33774" lon="1.01413">
        <ele>139.4</ele>
        <time>2016-05-16T09:53:45Z</time>
      </trkpt>
      <trkpt lat="44.33755" lon="1.01377">
        <ele>139.2</ele>
        <time>2016-05-16T09:53:50Z</time>
      </trkpt>
      <trkpt lat="44.33739" lon="1.01347">
        <ele>139.2</ele>
        <time>2016-05-16T09:53:54Z</time>
      </trkpt>
      <trkpt lat="44.33707" lon="1.01287">
        <ele>138.8</ele>
        <time>2016-05-16T09:54:02Z</time>
      </trkpt>
      <trkpt lat="44.3368" lon="1.01236">
        <ele>138.8</ele>
        <time>2016-05-16T09:54:09Z</time>
      </trkpt>
      <trkpt lat="44.33647" lon="1.01172">
        <ele>139.2</ele>
        <time>2016-05-16T09:54:18Z</time>
      </trkpt>
      <trkpt lat="44.33617" lon="1.01115">
        <ele>139.4</ele>
        <time>2016-05-16T09:54:26Z</time>
      </trkpt>
      <trkpt lat="44.33585" lon="1.01054">
        <ele>139.2</ele>
        <time>2016-05-16T09:54:35Z</time>
      </trkpt>
      <trkpt lat="44.33552" lon="1.00993">
        <ele>139.6</ele>
        <time>2016-05-16T09:54:44Z</time>
      </trkpt>
      <trkpt lat="44.33522" lon="1.00936">
        <ele>139.4</ele>
        <time>2016-05-16T09:54:52Z</time>
      </trkpt>
      <trkpt lat="44.33486" lon="1.00871">
        <ele>139.2</ele>
        <time>2016-05-16T09:55:01Z</time>
      </trkpt>
      <trkpt lat="44.33479" lon="1.00856">
        <ele>139</ele>
        <time>2016-05-16T09:55:03Z</time>
      </trkpt>
      <trkpt lat="44.33456" lon="1.00802">
        <ele>139</ele>
        <time>2016-05-16T09:55:10Z</time>
      </trkpt>
      <trkpt lat="44.33428" lon="1.0073">
        <ele>139</ele>
        <time>2016-05-16T09:55:19Z</time>
      </trkpt>
      <trkpt lat="44.33403" lon="1.00666">
        <ele>139.2</ele>
        <time>2016-05-16T09:55:27Z</time>
      </trkpt>
      <trkpt lat="44.33377" lon="1.00596">
        <ele>139</ele>
        <time>2016-05-16T09:55:36Z</time>
      </trkpt>
      <trkpt lat="44.33352" lon="1.00532">
        <ele>139.4</ele>
        <time>2016-05-16T09:55:44Z</time>
      </trkpt>
      <trkpt lat="44.33334" lon="1.00473">
        <ele>139</ele>
        <time>2016-05-16T09:55:51Z</time>
      </trkpt>
      <trkpt lat="44.33324" lon="1.00428">
        <ele>138.2</ele>
        <time>2016-05-16T09:55:56Z</time>
      </trkpt>
      <trkpt lat="44.33319" lon="1.00409">
        <ele>137.4</ele>
        <time>2016-05-16T09:55:58Z</time>
      </trkpt>
      <trkpt lat="44.33304" lon="1.00342">
        <ele>137</ele>
        <time>2016-05-16T09:56:05Z</time>
      </trkpt>
      <trkpt lat="44.333" lon="1.00323">
        <ele>137</ele>
        <time>2016-05-16T09:56:07Z</time>
      </trkpt>
      <trkpt lat="44.33282" lon="1.00246">
        <ele>136</ele>
        <time>2016-05-16T09:56:15Z</time>
      </trkpt>
      <trkpt lat="44.33264" lon="1.00169">
        <ele>135.2</ele>
        <time>2016-05-16T09:56:23Z</time>
      </trkpt>
      <trkpt lat="44.3326" lon="1.00149">
        <ele>135</ele>
        <time>2016-05-16T09:56:25Z</time>
      </trkpt>
      <trkpt lat="44.33249" lon="1.00091">
        <ele>134.2</ele>
        <time>2016-05-16T09:56:31Z</time>
      </trkpt>
      <trkpt lat="44.33239" lon="1.00013">
        <ele>134.4</ele>
        <time>2016-05-16T09:56:39Z</time>
      </trkpt>
      <trkpt lat="44.33231" lon="0.99936">
        <ele>134.2</ele>
        <time>2016-05-16T09:56:47Z</time>
      </trkpt>
      <trkpt lat="44.33228" lon="0.99908">
        <ele>134</ele>
        <time>2016-05-16T09:56:50Z</time>
      </trkpt>
      <trkpt lat="44.33221" lon="0.99835">
        <ele>133.6</ele>
        <time>2016-05-16T09:56:58Z</time>
      </trkpt>
      <trkpt lat="44.33215" lon="0.9978">
        <ele>132.8</ele>
        <time>2016-05-16T09:57:04Z</time>
      </trkpt>
      <trkpt lat="44.33214" lon="0.99771">
        <ele>132.8</ele>
        <time>2016-05-16T09:57:05Z</time>
      </trkpt>
      <trkpt lat="44.33208" lon="0.99696">
        <ele>132.2</ele>
        <time>2016-05-16T09:57:13Z</time>
      </trkpt>
      <trkpt lat="44.33207" lon="0.99677">
        <ele>132.2</ele>
        <time>2016-05-16T09:57:15Z</time>
      </trkpt>
      <trkpt lat="44.33206" lon="0.99639">
        <ele>131.6</ele>
        <time>2016-05-16T09:57:19Z</time>
      </trkpt>
      <trkpt lat="44.33206" lon="0.99581">
        <ele>130.6</ele>
        <time>2016-05-16T09:57:25Z</time>
      </trkpt>
      <trkpt lat="44.33205" lon="0.99502">
        <ele>129.8</ele>
        <time>2016-05-16T09:57:33Z</time>
      </trkpt>
      <trkpt lat="44.33206" lon="0.99483">
        <ele>129.4</ele>
        <time>2016-05-16T09:57:35Z</time>
      </trkpt>
      <trkpt lat="44.33206" lon="0.99473">
        <ele>129.2</ele>
        <time>2016-05-16T09:57:36Z</time>
      </trkpt>
      <trkpt lat="44.33206" lon="0.99398">
        <ele>128.6</ele>
        <time>2016-05-16T09:57:44Z</time>
      </trkpt>
      <trkpt lat="44.33207" lon="0.99389">
        <ele>128.2</ele>
        <time>2016-05-16T09:57:45Z</time>
      </trkpt>
      <trkpt lat="44.33211" lon="0.99335">
        <ele>127.4</ele>
        <time>2016-05-16T09:57:51Z</time>
      </trkpt>
      <trkpt lat="44.3322" lon="0.99274">
        <ele>127.4</ele>
        <time>2016-05-16T09:57:58Z</time>
      </trkpt>
      <trkpt lat="44.33222" lon="0.99257">
        <ele>127</ele>
        <time>2016-05-16T09:58:00Z</time>
      </trkpt>
      <trkpt lat="44.33232" lon="0.99189">
        <ele>126.8</ele>
        <time>2016-05-16T09:58:08Z</time>
      </trkpt>
      <trkpt lat="44.33244" lon="0.99112">
        <ele>126.8</ele>
        <time>2016-05-16T09:58:17Z</time>
      </trkpt>
      <trkpt lat="44.33246" lon="0.99095">
        <ele>126.6</ele>
        <time>2016-05-16T09:58:19Z</time>
      </trkpt>
      <trkpt lat="44.33254" lon="0.99046">
        <ele>128.2</ele>
        <time>2016-05-16T09:58:25Z</time>
      </trkpt>
      <trkpt lat="44.33258" lon="0.99022">
        <ele>126</ele>
        <time>2016-05-16T09:58:28Z</time>
      </trkpt>
      <trkpt lat="44.33267" lon="0.98959">
        <ele>126.4</ele>
        <time>2016-05-16T09:58:36Z</time>
      </trkpt>
      <trkpt lat="44.33278" lon="0.98888">
        <ele>126.6</ele>
        <time>2016-05-16T09:58:45Z</time>
      </trkpt>
      <trkpt lat="44.3329" lon="0.9881">
        <ele>126.8</ele>
        <time>2016-05-16T09:58:55Z</time>
      </trkpt>
      <trkpt lat="44.33301" lon="0.98748">
        <ele>127</ele>
        <time>2016-05-16T09:59:03Z</time>
      </trkpt>
      <trkpt lat="44.33304" lon="0.98725">
        <ele>127.2</ele>
        <time>2016-05-16T09:59:06Z</time>
      </trkpt>
      <trkpt lat="44.33312" lon="0.98666">
        <ele>127.8</ele>
        <time>2016-05-16T09:59:14Z</time>
      </trkpt>
      <trkpt lat="44.33315" lon="0.98642">
        <ele>128.2</ele>
        <time>2016-05-16T09:59:17Z</time>
      </trkpt>
      <trkpt lat="44.33319" lon="0.98595">
        <ele>127.6</ele>
        <time>2016-05-16T09:59:23Z</time>
      </trkpt>
      <trkpt lat="44.33319" lon="0.98586">
        <ele>129.4</ele>
        <time>2016-05-16T09:59:24Z</time>
      </trkpt>
      <trkpt lat="44.33319" lon="0.98552">
        <ele>127.8</ele>
        <time>2016-05-16T09:59:28Z</time>
      </trkpt>
      <trkpt lat="44.3332" lon="0.98534">
        <ele>127.6</ele>
        <time>2016-05-16T09:59:30Z</time>
      </trkpt>
      <trkpt lat="44.33318" lon="0.98472">
        <ele>126.8</ele>
        <time>2016-05-16T09:59:37Z</time>
      </trkpt>
      <trkpt lat="44.33318" lon="0.98408">
        <ele>126.6</ele>
        <time>2016-05-16T09:59:44Z</time>
      </trkpt>
      <trkpt lat="44.33319" lon="0.98343">
        <ele>125.6</ele>
        <time>2016-05-16T09:59:51Z</time>
      </trkpt>
      <trkpt lat="44.33319" lon="0.98334">
        <ele>125.6</ele>
        <time>2016-05-16T09:59:52Z</time>
      </trkpt>
      <trkpt lat="44.33319" lon="0.98261">
        <ele>125.6</ele>
        <time>2016-05-16T10:00:00Z</time>
      </trkpt>
      <trkpt lat="44.3332" lon="0.98182">
        <ele>124.8</ele>
        <time>2016-05-16T10:00:09Z</time>
      </trkpt>
      <trkpt lat="44.3332" lon="0.98173">
        <ele>124.6</ele>
        <time>2016-05-16T10:00:10Z</time>
      </trkpt>
      <trkpt lat="44.3332" lon="0.981">
        <ele>124</ele>
        <time>2016-05-16T10:00:18Z</time>
      </trkpt>
      <trkpt lat="44.3332" lon="0.98062">
        <ele>123.6</ele>
        <time>2016-05-16T10:00:22Z</time>
      </trkpt>
      <trkpt lat="44.3332" lon="0.97979">
        <ele>122.8</ele>
        <time>2016-05-16T10:00:31Z</time>
      </trkpt>
      <trkpt lat="44.3332" lon="0.9796">
        <ele>122.4</ele>
        <time>2016-05-16T10:00:33Z</time>
      </trkpt>
      <trkpt lat="44.33321" lon="0.97897">
        <ele>122.6</ele>
        <time>2016-05-16T10:00:40Z</time>
      </trkpt>
      <trkpt lat="44.33327" lon="0.97839">
        <ele>122.6</ele>
        <time>2016-05-16T10:00:47Z</time>
      </trkpt>
      <trkpt lat="44.33342" lon="0.97787">
        <ele>122.6</ele>
        <time>2016-05-16T10:00:54Z</time>
      </trkpt>
      <trkpt lat="44.3337" lon="0.9773">
        <ele>122.4</ele>
        <time>2016-05-16T10:01:03Z</time>
      </trkpt>
      <trkpt lat="44.33394" lon="0.97683">
        <ele>122.4</ele>
        <time>2016-05-16T10:01:11Z</time>
      </trkpt>
      <trkpt lat="44.3342" lon="0.97632">
        <ele>122.6</ele>
        <time>2016-05-16T10:01:20Z</time>
      </trkpt>
      <trkpt lat="44.33439" lon="0.97581">
        <ele>123</ele>
        <time>2016-05-16T10:01:28Z</time>
      </trkpt>
      <trkpt lat="44.33443" lon="0.97534">
        <ele>123.2</ele>
        <time>2016-05-16T10:01:34Z</time>
      </trkpt>
      <trkpt lat="44.33437" lon="0.9747">
        <ele>123.2</ele>
        <time>2016-05-16T10:01:42Z</time>
      </trkpt>
      <trkpt lat="44.33429" lon="0.97391">
        <ele>122</ele>
        <time>2016-05-16T10:01:52Z</time>
      </trkpt>
      <trkpt lat="44.33428" lon="0.97383">
        <ele>121.8</ele>
        <time>2016-05-16T10:01:53Z</time>
      </trkpt>
      <trkpt lat="44.33425" lon="0.9735">
        <ele>121.4</ele>
        <time>2016-05-16T10:01:57Z</time>
      </trkpt>
      <trkpt lat="44.33422" lon="0.97315">
        <ele>121</ele>
        <time>2016-05-16T10:02:01Z</time>
      </trkpt>
      <trkpt lat="44.33418" lon="0.97259">
        <ele>120</ele>
        <time>2016-05-16T10:02:07Z</time>
      </trkpt>
      <trkpt lat="44.33414" lon="0.97222">
        <ele>119.8</ele>
        <time>2016-05-16T10:02:11Z</time>
      </trkpt>
      <trkpt lat="44.33407" lon="0.97143">
        <ele>119.2</ele>
        <time>2016-05-16T10:02:19Z</time>
      </trkpt>
      <trkpt lat="44.33405" lon="0.97123">
        <ele>119</ele>
        <time>2016-05-16T10:02:21Z</time>
      </trkpt>
      <trkpt lat="44.33404" lon="0.97113">
        <ele>118.8</ele>
        <time>2016-05-16T10:02:22Z</time>
      </trkpt>
      <trkpt lat="44.33398" lon="0.97044">
        <ele>118</ele>
        <time>2016-05-16T10:02:29Z</time>
      </trkpt>
      <trkpt lat="44.33397" lon="0.97025">
        <ele>117.4</ele>
        <time>2016-05-16T10:02:31Z</time>
      </trkpt>
      <trkpt lat="44.3339" lon="0.96948">
        <ele>116.8</ele>
        <time>2016-05-16T10:02:39Z</time>
      </trkpt>
      <trkpt lat="44.33387" lon="0.96919">
        <ele>116.6</ele>
        <time>2016-05-16T10:02:42Z</time>
      </trkpt>
      <trkpt lat="44.3338" lon="0.96837">
        <ele>116.6</ele>
        <time>2016-05-16T10:02:51Z</time>
      </trkpt>
      <trkpt lat="44.3338" lon="0.96828">
        <ele>116.4</ele>
        <time>2016-05-16T10:02:52Z</time>
      </trkpt>
      <trkpt lat="44.33373" lon="0.96756">
        <ele>117</ele>
        <time>2016-05-16T10:03:01Z</time>
      </trkpt>
      <trkpt lat="44.33367" lon="0.96691">
        <ele>116.6</ele>
        <time>2016-05-16T10:03:09Z</time>
      </trkpt>
      <trkpt lat="44.33357" lon="0.96624">
        <ele>115.8</ele>
        <time>2016-05-16T10:03:17Z</time>
      </trkpt>
      <trkpt lat="44.33342" lon="0.96577">
        <ele>115.8</ele>
        <time>2016-05-16T10:03:23Z</time>
      </trkpt>
      <trkpt lat="44.33331" lon="0.96555">
        <ele>115.6</ele>
        <time>2016-05-16T10:03:26Z</time>
      </trkpt>
      <trkpt lat="44.33313" lon="0.9652">
        <ele>115.2</ele>
        <time>2016-05-16T10:03:31Z</time>
      </trkpt>
      <trkpt lat="44.3329" lon="0.96475">
        <ele>114.6</ele>
        <time>2016-05-16T10:03:37Z</time>
      </trkpt>
      <trkpt lat="44.33282" lon="0.9646">
        <ele>114.8</ele>
        <time>2016-05-16T10:03:39Z</time>
      </trkpt>
      <trkpt lat="44.33271" lon="0.96438">
        <ele>114.2</ele>
        <time>2016-05-16T10:03:42Z</time>
      </trkpt>
      <trkpt lat="44.33248" lon="0.96394">
        <ele>113.6</ele>
        <time>2016-05-16T10:03:48Z</time>
      </trkpt>
      <trkpt lat="44.3324" lon="0.96379">
        <ele>113.6</ele>
        <time>2016-05-16T10:03:50Z</time>
      </trkpt>
      <trkpt lat="44.3321" lon="0.96321">
        <ele>112.8</ele>
        <time>2016-05-16T10:03:58Z</time>
      </trkpt>
      <trkpt lat="44.33176" lon="0.96256">
        <ele>113</ele>
        <time>2016-05-16T10:04:07Z</time>
      </trkpt>
      <trkpt lat="44.33172" lon="0.96249">
        <ele>113</ele>
        <time>2016-05-16T10:04:08Z</time>
      </trkpt>
      <trkpt lat="44.33169" lon="0.96242">
        <ele>112.6</ele>
        <time>2016-05-16T10:04:09Z</time>
      </trkpt>
      <trkpt lat="44.33139" lon="0.96185">
        <ele>113.2</ele>
        <time>2016-05-16T10:04:17Z</time>
      </trkpt>
      <trkpt lat="44.33105" lon="0.9612">
        <ele>113</ele>
        <time>2016-05-16T10:04:26Z</time>
      </trkpt>
      <trkpt lat="44.3307" lon="0.96051">
        <ele>112</ele>
        <time>2016-05-16T10:04:35Z</time>
      </trkpt>
      <trkpt lat="44.33066" lon="0.96043">
        <ele>112.4</ele>
        <time>2016-05-16T10:04:36Z</time>
      </trkpt>
      <trkpt lat="44.33033" lon="0.9598">
        <ele>111.6</ele>
        <time>2016-05-16T10:04:44Z</time>
      </trkpt>
      <trkpt lat="44.33029" lon="0.95972">
        <ele>111.4</ele>
        <time>2016-05-16T10:04:45Z</time>
      </trkpt>
      <trkpt lat="44.32994" lon="0.95905">
        <ele>111.6</ele>
        <time>2016-05-16T10:04:54Z</time>
      </trkpt>
      <trkpt lat="44.32962" lon="0.95843">
        <ele>111.2</ele>
        <time>2016-05-16T10:05:03Z</time>
      </trkpt>
      <trkpt lat="44.32958" lon="0.95836">
        <ele>111.2</ele>
        <time>2016-05-16T10:05:04Z</time>
      </trkpt>
      <trkpt lat="44.32926" lon="0.95774">
        <ele>111.2</ele>
        <time>2016-05-16T10:05:13Z</time>
      </trkpt>
      <trkpt lat="44.32923" lon="0.95768">
        <ele>111.2</ele>
        <time>2016-05-16T10:05:14Z</time>
      </trkpt>
      <trkpt lat="44.32891" lon="0.95705">
        <ele>111.2</ele>
        <time>2016-05-16T10:05:24Z</time>
      </trkpt>
      <trkpt lat="44.32859" lon="0.95645">
        <ele>112</ele>
        <time>2016-05-16T10:05:34Z</time>
      </trkpt>
      <trkpt lat="44.3284" lon="0.95608">
        <ele>112.4</ele>
        <time>2016-05-16T10:05:40Z</time>
      </trkpt>
      <trkpt lat="44.32834" lon="0.95596">
        <ele>112.6</ele>
        <time>2016-05-16T10:05:42Z</time>
      </trkpt>
      <trkpt lat="44.32807" lon="0.95544">
        <ele>113.6</ele>
        <time>2016-05-16T10:05:51Z</time>
      </trkpt>
      <trkpt lat="44.3278" lon="0.95504">
        <ele>114.2</ele>
        <time>2016-05-16T10:05:59Z</time>
      </trkpt>
      <trkpt lat="44.32752" lon="0.95475">
        <ele>114.6</ele>
        <time>2016-05-16T10:06:06Z</time>
      </trkpt>
      <trkpt lat="44.32747" lon="0.95471">
        <ele>114.4</ele>
        <time>2016-05-16T10:06:07Z</time>
      </trkpt>
      <trkpt lat="44.32719" lon="0.95445">
        <ele>114.6</ele>
        <time>2016-05-16T10:06:14Z</time>
      </trkpt>
      <trkpt lat="44.32673" lon="0.95402">
        <ele>114</ele>
        <time>2016-05-16T10:06:24Z</time>
      </trkpt>
      <trkpt lat="44.32654" lon="0.95383">
        <ele>113.6</ele>
        <time>2016-05-16T10:06:28Z</time>
      </trkpt>
      <trkpt lat="44.32625" lon="0.95356">
        <ele>113.6</ele>
        <time>2016-05-16T10:06:34Z</time>
      </trkpt>
      <trkpt lat="44.32582" lon="0.95315">
        <ele>113.2</ele>
        <time>2016-05-16T10:06:43Z</time>
      </trkpt>
      <trkpt lat="44.32533" lon="0.95268">
        <ele>112.6</ele>
        <time>2016-05-16T10:06:53Z</time>
      </trkpt>
      <trkpt lat="44.32527" lon="0.95263">
        <ele>113</ele>
        <time>2016-05-16T10:06:54Z</time>
      </trkpt>
      <trkpt lat="44.32513" lon="0.95249">
        <ele>112.6</ele>
        <time>2016-05-16T10:06:57Z</time>
      </trkpt>
      <trkpt lat="44.32471" lon="0.95209">
        <ele>112.4</ele>
        <time>2016-05-16T10:07:05Z</time>
      </trkpt>
      <trkpt lat="44.32425" lon="0.95165">
        <ele>112.6</ele>
        <time>2016-05-16T10:07:14Z</time>
      </trkpt>
      <trkpt lat="44.3242" lon="0.9516">
        <ele>112.6</ele>
        <time>2016-05-16T10:07:15Z</time>
      </trkpt>
      <trkpt lat="44.32375" lon="0.95116">
        <ele>112.8</ele>
        <time>2016-05-16T10:07:24Z</time>
      </trkpt>
      <trkpt lat="44.32369" lon="0.95111">
        <ele>112.4</ele>
        <time>2016-05-16T10:07:25Z</time>
      </trkpt>
      <trkpt lat="44.32319" lon="0.95063">
        <ele>111.6</ele>
        <time>2016-05-16T10:07:34Z</time>
      </trkpt>
      <trkpt lat="44.32313" lon="0.95057">
        <ele>111.2</ele>
        <time>2016-05-16T10:07:35Z</time>
      </trkpt>
      <trkpt lat="44.32267" lon="0.95012">
        <ele>110.4</ele>
        <time>2016-05-16T10:07:42Z</time>
      </trkpt>
      <trkpt lat="44.3226" lon="0.95006">
        <ele>110</ele>
        <time>2016-05-16T10:07:43Z</time>
      </trkpt>
      <trkpt lat="44.32226" lon="0.94972">
        <ele>108.6</ele>
        <time>2016-05-16T10:07:48Z</time>
      </trkpt>
      <trkpt lat="44.32197" lon="0.94946">
        <ele>108</ele>
        <time>2016-05-16T10:07:52Z</time>
      </trkpt>
      <trkpt lat="44.32175" lon="0.94927">
        <ele>107.4</ele>
        <time>2016-05-16T10:07:55Z</time>
      </trkpt>
      <trkpt lat="44.32146" lon="0.94905">
        <ele>107.4</ele>
        <time>2016-05-16T10:07:59Z</time>
      </trkpt>
      <trkpt lat="44.32111" lon="0.94881">
        <ele>107.2</ele>
        <time>2016-05-16T10:08:04Z</time>
      </trkpt>
      <trkpt lat="44.32091" lon="0.94867">
        <ele>108</ele>
        <time>2016-05-16T10:08:07Z</time>
      </trkpt>
      <trkpt lat="44.32063" lon="0.94847">
        <ele>108.6</ele>
        <time>2016-05-16T10:08:12Z</time>
      </trkpt>
      <trkpt lat="44.32053" lon="0.94839">
        <ele>108.4</ele>
        <time>2016-05-16T10:08:14Z</time>
      </trkpt>
      <trkpt lat="44.32017" lon="0.94813">
        <ele>107.2</ele>
        <time>2016-05-16T10:08:21Z</time>
      </trkpt>
      <trkpt lat="44.32012" lon="0.9481">
        <ele>108.6</ele>
        <time>2016-05-16T10:08:22Z</time>
      </trkpt>
      <trkpt lat="44.32001" lon="0.94803">
        <ele>109.6</ele>
        <time>2016-05-16T10:08:24Z</time>
      </trkpt>
      <trkpt lat="44.31996" lon="0.94799">
        <ele>108.6</ele>
        <time>2016-05-16T10:08:25Z</time>
      </trkpt>
      <trkpt lat="44.31956" lon="0.9477">
        <ele>108.6</ele>
        <time>2016-05-16T10:08:33Z</time>
      </trkpt>
      <trkpt lat="44.31946" lon="0.94762">
        <ele>108.4</ele>
        <time>2016-05-16T10:08:35Z</time>
      </trkpt>
      <trkpt lat="44.31931" lon="0.94751">
        <ele>108.4</ele>
        <time>2016-05-16T10:08:38Z</time>
      </trkpt>
      <trkpt lat="44.31889" lon="0.9472">
        <ele>108.6</ele>
        <time>2016-05-16T10:08:46Z</time>
      </trkpt>
      <trkpt lat="44.31853" lon="0.94695">
        <ele>108.8</ele>
        <time>2016-05-16T10:08:53Z</time>
      </trkpt>
      <trkpt lat="44.31838" lon="0.94686">
        <ele>109</ele>
        <time>2016-05-16T10:08:56Z</time>
      </trkpt>
      <trkpt lat="44.31805" lon="0.9467">
        <ele>109</ele>
        <time>2016-05-16T10:09:02Z</time>
      </trkpt>
      <trkpt lat="44.31746" lon="0.94649">
        <ele>108.8</ele>
        <time>2016-05-16T10:09:12Z</time>
      </trkpt>
      <trkpt lat="44.31741" lon="0.94647">
        <ele>109</ele>
        <time>2016-05-16T10:09:13Z</time>
      </trkpt>
      <trkpt lat="44.31687" lon="0.94626">
        <ele>106.2</ele>
        <time>2016-05-16T10:09:22Z</time>
      </trkpt>
      <trkpt lat="44.3168" lon="0.94624">
        <ele>107.6</ele>
        <time>2016-05-16T10:09:23Z</time>
      </trkpt>
      <trkpt lat="44.31674" lon="0.94621">
        <ele>105.8</ele>
        <time>2016-05-16T10:09:24Z</time>
      </trkpt>
      <trkpt lat="44.31668" lon="0.94619">
        <ele>110</ele>
        <time>2016-05-16T10:09:25Z</time>
      </trkpt>
      <trkpt lat="44.31638" lon="0.94607">
        <ele>109</ele>
        <time>2016-05-16T10:09:30Z</time>
      </trkpt>
      <trkpt lat="44.3162" lon="0.94597">
        <ele>108.8</ele>
        <time>2016-05-16T10:09:33Z</time>
      </trkpt>
      <trkpt lat="44.31604" lon="0.94585">
        <ele>109</ele>
        <time>2016-05-16T10:09:36Z</time>
      </trkpt>
      <trkpt lat="44.31564" lon="0.94548">
        <ele>107.8</ele>
        <time>2016-05-16T10:09:43Z</time>
      </trkpt>
      <trkpt lat="44.31529" lon="0.94504">
        <ele>106.6</ele>
        <time>2016-05-16T10:09:49Z</time>
      </trkpt>
      <trkpt lat="44.31518" lon="0.94488">
        <ele>106</ele>
        <time>2016-05-16T10:09:51Z</time>
      </trkpt>
      <trkpt lat="44.31513" lon="0.9448">
        <ele>105.6</ele>
        <time>2016-05-16T10:09:52Z</time>
      </trkpt>
      <trkpt lat="44.31479" lon="0.94433">
        <ele>104.4</ele>
        <time>2016-05-16T10:09:58Z</time>
      </trkpt>
      <trkpt lat="44.31457" lon="0.94402">
        <ele>103.8</ele>
        <time>2016-05-16T10:10:02Z</time>
      </trkpt>
      <trkpt lat="44.31451" lon="0.94395">
        <ele>103.4</ele>
        <time>2016-05-16T10:10:03Z</time>
      </trkpt>
      <trkpt lat="44.31406" lon="0.94337">
        <ele>102.6</ele>
        <time>2016-05-16T10:10:11Z</time>
      </trkpt>
      <trkpt lat="44.314" lon="0.94331">
        <ele>102.4</ele>
        <time>2016-05-16T10:10:12Z</time>
      </trkpt>
      <trkpt lat="44.31394" lon="0.94326">
        <ele>102.6</ele>
        <time>2016-05-16T10:10:13Z</time>
      </trkpt>
      <trkpt lat="44.31367" lon="0.94312">
        <ele>102.8</ele>
        <time>2016-05-16T10:10:17Z</time>
      </trkpt>
      <trkpt lat="44.31331" lon="0.94309">
        <ele>102.6</ele>
        <time>2016-05-16T10:10:22Z</time>
      </trkpt>
      <trkpt lat="44.31325" lon="0.94311">
        <ele>102.4</ele>
        <time>2016-05-16T10:10:23Z</time>
      </trkpt>
      <trkpt lat="44.31299" lon="0.94323">
        <ele>102.4</ele>
        <time>2016-05-16T10:10:27Z</time>
      </trkpt>
      <trkpt lat="44.3127" lon="0.94344">
        <ele>102.2</ele>
        <time>2016-05-16T10:10:32Z</time>
      </trkpt>
      <trkpt lat="44.31259" lon="0.94352">
        <ele>102.4</ele>
        <time>2016-05-16T10:10:34Z</time>
      </trkpt>
      <trkpt lat="44.31206" lon="0.94394">
        <ele>101.2</ele>
        <time>2016-05-16T10:10:43Z</time>
      </trkpt>
      <trkpt lat="44.312" lon="0.94398">
        <ele>101</ele>
        <time>2016-05-16T10:10:44Z</time>
      </trkpt>
      <trkpt lat="44.31167" lon="0.94411">
        <ele>101.2</ele>
        <time>2016-05-16T10:10:49Z</time>
      </trkpt>
      <trkpt lat="44.31125" lon="0.94416">
        <ele>100.8</ele>
        <time>2016-05-16T10:10:55Z</time>
      </trkpt>
      <trkpt lat="44.31106" lon="0.94412">
        <ele>100.6</ele>
        <time>2016-05-16T10:10:58Z</time>
      </trkpt>
      <trkpt lat="44.31093" lon="0.94407">
        <ele>100.6</ele>
        <time>2016-05-16T10:11:00Z</time>
      </trkpt>
      <trkpt lat="44.31058" lon="0.94386">
        <ele>100.4</ele>
        <time>2016-05-16T10:11:06Z</time>
      </trkpt>
      <trkpt lat="44.31028" lon="0.94355">
        <ele>100.8</ele>
        <time>2016-05-16T10:11:12Z</time>
      </trkpt>
      <trkpt lat="44.30998" lon="0.9431">
        <ele>101.4</ele>
        <time>2016-05-16T10:11:19Z</time>
      </trkpt>
      <trkpt lat="44.30959" lon="0.94251">
        <ele>101</ele>
        <time>2016-05-16T10:11:28Z</time>
      </trkpt>
      <trkpt lat="44.30955" lon="0.94245">
        <ele>101.2</ele>
        <time>2016-05-16T10:11:29Z</time>
      </trkpt>
      <trkpt lat="44.30916" lon="0.94186">
        <ele>101</ele>
        <time>2016-05-16T10:11:38Z</time>
      </trkpt>
      <trkpt lat="44.30908" lon="0.94175">
        <ele>101.4</ele>
        <time>2016-05-16T10:11:40Z</time>
      </trkpt>
      <trkpt lat="44.30883" lon="0.94137">
        <ele>102.2</ele>
        <time>2016-05-16T10:11:47Z</time>
      </trkpt>
      <trkpt lat="44.3088" lon="0.94132">
        <ele>102.6</ele>
        <time>2016-05-16T10:11:48Z</time>
      </trkpt>
      <trkpt lat="44.30851" lon="0.94088">
        <ele>102.6</ele>
        <time>2016-05-16T10:11:57Z</time>
      </trkpt>
      <trkpt lat="44.30821" lon="0.94044">
        <ele>102.6</ele>
        <time>2016-05-16T10:12:05Z</time>
      </trkpt>
      <trkpt lat="44.30813" lon="0.94032">
        <ele>102.8</ele>
        <time>2016-05-16T10:12:07Z</time>
      </trkpt>
      <trkpt lat="44.30776" lon="0.93977">
        <ele>102.6</ele>
        <time>2016-05-16T10:12:16Z</time>
      </trkpt>
      <trkpt lat="44.30772" lon="0.93971">
        <ele>102.6</ele>
        <time>2016-05-16T10:12:17Z</time>
      </trkpt>
      <trkpt lat="44.30733" lon="0.93913">
        <ele>101.8</ele>
        <time>2016-05-16T10:12:26Z</time>
      </trkpt>
      <trkpt lat="44.30725" lon="0.939">
        <ele>101.8</ele>
        <time>2016-05-16T10:12:28Z</time>
      </trkpt>
      <trkpt lat="44.30711" lon="0.9388">
        <ele>101.2</ele>
        <time>2016-05-16T10:12:31Z</time>
      </trkpt>
      <trkpt lat="44.30682" lon="0.93836">
        <ele>100.6</ele>
        <time>2016-05-16T10:12:37Z</time>
      </trkpt>
      <trkpt lat="44.30644" lon="0.9378">
        <ele>100.6</ele>
        <time>2016-05-16T10:12:45Z</time>
      </trkpt>
      <trkpt lat="44.3063" lon="0.93759">
        <ele>100.4</ele>
        <time>2016-05-16T10:12:48Z</time>
      </trkpt>
      <trkpt lat="44.30604" lon="0.93705">
        <ele>100.8</ele>
        <time>2016-05-16T10:12:55Z</time>
      </trkpt>
      <trkpt lat="44.30586" lon="0.93646">
        <ele>100.8</ele>
        <time>2016-05-16T10:13:02Z</time>
      </trkpt>
      <trkpt lat="44.30567" lon="0.93578">
        <ele>100.8</ele>
        <time>2016-05-16T10:13:10Z</time>
      </trkpt>
      <trkpt lat="44.30551" lon="0.93521">
        <ele>100</ele>
        <time>2016-05-16T10:13:17Z</time>
      </trkpt>
      <trkpt lat="44.30541" lon="0.93488">
        <ele>100.2</ele>
        <time>2016-05-16T10:13:21Z</time>
      </trkpt>
      <trkpt lat="44.3052" lon="0.9342">
        <ele>100</ele>
        <time>2016-05-16T10:13:30Z</time>
      </trkpt>
      <trkpt lat="44.30508" lon="0.93373">
        <ele>100.6</ele>
        <time>2016-05-16T10:13:37Z</time>
      </trkpt>
      <trkpt lat="44.30503" lon="0.93355">
        <ele>101.2</ele>
        <time>2016-05-16T10:13:40Z</time>
      </trkpt>
      <trkpt lat="44.30494" lon="0.93321">
        <ele>102.2</ele>
        <time>2016-05-16T10:13:46Z</time>
      </trkpt>
      <trkpt lat="44.30494" lon="0.93315">
        <ele>102</ele>
        <time>2016-05-16T10:13:47Z</time>
      </trkpt>
      <trkpt lat="44.30495" lon="0.93308">
        <ele>102.2</ele>
        <time>2016-05-16T10:13:48Z</time>
      </trkpt>
      <trkpt lat="44.30496" lon="0.93294">
        <ele>102.2</ele>
        <time>2016-05-16T10:13:50Z</time>
      </trkpt>
      <trkpt lat="44.305" lon="0.93252">
        <ele>101</ele>
        <time>2016-05-16T10:13:55Z</time>
      </trkpt>
      <trkpt lat="44.30501" lon="0.93243">
        <ele>100.8</ele>
        <time>2016-05-16T10:13:56Z</time>
      </trkpt>
      <trkpt lat="44.30502" lon="0.93224">
        <ele>99.8</ele>
        <time>2016-05-16T10:13:58Z</time>
      </trkpt>
      <trkpt lat="44.30502" lon="0.93215">
        <ele>99</ele>
        <time>2016-05-16T10:13:59Z</time>
      </trkpt>
      <trkpt lat="44.305" lon="0.93186">
        <ele>99.2</ele>
        <time>2016-05-16T10:14:02Z</time>
      </trkpt>
      <trkpt lat="44.30499" lon="0.93168">
        <ele>98.6</ele>
        <time>2016-05-16T10:14:04Z</time>
      </trkpt>
      <trkpt lat="44.30496" lon="0.93122">
        <ele>98.8</ele>
        <time>2016-05-16T10:14:09Z</time>
      </trkpt>
      <trkpt lat="44.30491" lon="0.93056">
        <ele>98.6</ele>
        <time>2016-05-16T10:14:17Z</time>
      </trkpt>
      <trkpt lat="44.30478" lon="0.93012">
        <ele>98.4</ele>
        <time>2016-05-16T10:14:23Z</time>
      </trkpt>
      <trkpt lat="44.30457" lon="0.92958">
        <ele>98</ele>
        <time>2016-05-16T10:14:31Z</time>
      </trkpt>
      <trkpt lat="44.30451" lon="0.92945">
        <ele>97.4</ele>
        <time>2016-05-16T10:14:33Z</time>
      </trkpt>
      <trkpt lat="44.30437" lon="0.92912">
        <ele>97.4</ele>
        <time>2016-05-16T10:14:38Z</time>
      </trkpt>
      <trkpt lat="44.30411" lon="0.92852">
        <ele>97</ele>
        <time>2016-05-16T10:14:47Z</time>
      </trkpt>
      <trkpt lat="44.30384" lon="0.92789">
        <ele>97.2</ele>
        <time>2016-05-16T10:14:57Z</time>
      </trkpt>
      <trkpt lat="44.30359" lon="0.92725">
        <ele>97.4</ele>
        <time>2016-05-16T10:15:07Z</time>
      </trkpt>
      <trkpt lat="44.30344" lon="0.92686">
        <ele>97.4</ele>
        <time>2016-05-16T10:15:13Z</time>
      </trkpt>
      <trkpt lat="44.30341" lon="0.9268">
        <ele>97.6</ele>
        <time>2016-05-16T10:15:14Z</time>
      </trkpt>
      <trkpt lat="44.30321" lon="0.92632">
        <ele>97.6</ele>
        <time>2016-05-16T10:15:22Z</time>
      </trkpt>
      <trkpt lat="44.30304" lon="0.92589">
        <ele>97.6</ele>
        <time>2016-05-16T10:15:29Z</time>
      </trkpt>
      <trkpt lat="44.30283" lon="0.92539">
        <ele>97.4</ele>
        <time>2016-05-16T10:15:37Z</time>
      </trkpt>
      <trkpt lat="44.30258" lon="0.9248">
        <ele>96.8</ele>
        <time>2016-05-16T10:15:46Z</time>
      </trkpt>
      <trkpt lat="44.30238" lon="0.92423">
        <ele>96.6</ele>
        <time>2016-05-16T10:15:54Z</time>
      </trkpt>
      <trkpt lat="44.30236" lon="0.92416">
        <ele>96.4</ele>
        <time>2016-05-16T10:15:55Z</time>
      </trkpt>
      <trkpt lat="44.30226" lon="0.92368">
        <ele>95.8</ele>
        <time>2016-05-16T10:16:01Z</time>
      </trkpt>
      <trkpt lat="44.30212" lon="0.9231">
        <ele>95.4</ele>
        <time>2016-05-16T10:16:08Z</time>
      </trkpt>
      <trkpt lat="44.30209" lon="0.92302">
        <ele>95</ele>
        <time>2016-05-16T10:16:09Z</time>
      </trkpt>
      <trkpt lat="44.30192" lon="0.92262">
        <ele>94.6</ele>
        <time>2016-05-16T10:16:14Z</time>
      </trkpt>
      <trkpt lat="44.3017" lon="0.92215">
        <ele>94</ele>
        <time>2016-05-16T10:16:20Z</time>
      </trkpt>
      <trkpt lat="44.30156" lon="0.92181">
        <ele>93.4</ele>
        <time>2016-05-16T10:16:24Z</time>
      </trkpt>
      <trkpt lat="44.30124" lon="0.92111">
        <ele>93.2</ele>
        <time>2016-05-16T10:16:33Z</time>
      </trkpt>
      <trkpt lat="44.30097" lon="0.92051">
        <ele>93.8</ele>
        <time>2016-05-16T10:16:42Z</time>
      </trkpt>
      <trkpt lat="44.30077" lon="0.92005">
        <ele>94.2</ele>
        <time>2016-05-16T10:16:50Z</time>
      </trkpt>
      <trkpt lat="44.30049" lon="0.91942">
        <ele>94.8</ele>
        <time>2016-05-16T10:17:01Z</time>
      </trkpt>
      <trkpt lat="44.30035" lon="0.91891">
        <ele>95.2</ele>
        <time>2016-05-16T10:17:09Z</time>
      </trkpt>
      <trkpt lat="44.30026" lon="0.91842">
        <ele>95</ele>
        <time>2016-05-16T10:17:16Z</time>
      </trkpt>
      <trkpt lat="44.30013" lon="0.91767">
        <ele>94.6</ele>
        <time>2016-05-16T10:17:26Z</time>
      </trkpt>
      <trkpt lat="44.29999" lon="0.91693">
        <ele>94.2</ele>
        <time>2016-05-16T10:17:36Z</time>
      </trkpt>
      <trkpt lat="44.29998" lon="0.91685">
        <ele>93.8</ele>
        <time>2016-05-16T10:17:37Z</time>
      </trkpt>
      <trkpt lat="44.29997" lon="0.91678">
        <ele>94</ele>
        <time>2016-05-16T10:17:38Z</time>
      </trkpt>
      <trkpt lat="44.29994" lon="0.91648">
        <ele>93.6</ele>
        <time>2016-05-16T10:17:42Z</time>
      </trkpt>
      <trkpt lat="44.29989" lon="0.9161">
        <ele>93.6</ele>
        <time>2016-05-16T10:17:47Z</time>
      </trkpt>
      <trkpt lat="44.29981" lon="0.91543">
        <ele>93.6</ele>
        <time>2016-05-16T10:17:56Z</time>
      </trkpt>
      <trkpt lat="44.29975" lon="0.91487">
        <ele>93.8</ele>
        <time>2016-05-16T10:18:04Z</time>
      </trkpt>
      <trkpt lat="44.29971" lon="0.91447">
        <ele>94.8</ele>
        <time>2016-05-16T10:18:10Z</time>
      </trkpt>
      <trkpt lat="44.29968" lon="0.91429">
        <ele>95</ele>
        <time>2016-05-16T10:18:13Z</time>
      </trkpt>
      <trkpt lat="44.29965" lon="0.91404">
        <ele>95.8</ele>
        <time>2016-05-16T10:18:17Z</time>
      </trkpt>
      <trkpt lat="44.29961" lon="0.91371">
        <ele>96.2</ele>
        <time>2016-05-16T10:18:23Z</time>
      </trkpt>
      <trkpt lat="44.29956" lon="0.91331">
        <ele>96</ele>
        <time>2016-05-16T10:18:30Z</time>
      </trkpt>
      <trkpt lat="44.29949" lon="0.91276">
        <ele>95</ele>
        <time>2016-05-16T10:18:38Z</time>
      </trkpt>
      <trkpt lat="44.29945" lon="0.91248">
        <ele>94.8</ele>
        <time>2016-05-16T10:18:42Z</time>
      </trkpt>
      <trkpt lat="44.29941" lon="0.91214">
        <ele>94.4</ele>
        <time>2016-05-16T10:18:47Z</time>
      </trkpt>
      <trkpt lat="44.2994" lon="0.91207">
        <ele>94.4</ele>
        <time>2016-05-16T10:18:48Z</time>
      </trkpt>
      <trkpt lat="44.29935" lon="0.91164">
        <ele>93.8</ele>
        <time>2016-05-16T10:18:54Z</time>
      </trkpt>
      <trkpt lat="44.29932" lon="0.91141">
        <ele>94</ele>
        <time>2016-05-16T10:18:57Z</time>
      </trkpt>
      <trkpt lat="44.29925" lon="0.91074">
        <ele>93.2</ele>
        <time>2016-05-16T10:19:06Z</time>
      </trkpt>
      <trkpt lat="44.29919" lon="0.91024">
        <ele>92.4</ele>
        <time>2016-05-16T10:19:12Z</time>
      </trkpt>
      <trkpt lat="44.29918" lon="0.91016">
        <ele>92.2</ele>
        <time>2016-05-16T10:19:13Z</time>
      </trkpt>
      <trkpt lat="44.29915" lon="0.9099">
        <ele>91.4</ele>
        <time>2016-05-16T10:19:16Z</time>
      </trkpt>
      <trkpt lat="44.29909" lon="0.90943">
        <ele>90.2</ele>
        <time>2016-05-16T10:19:21Z</time>
      </trkpt>
      <trkpt lat="44.29897" lon="0.90885">
        <ele>91</ele>
        <time>2016-05-16T10:19:28Z</time>
      </trkpt>
      <trkpt lat="44.29888" lon="0.90849">
        <ele>91.4</ele>
        <time>2016-05-16T10:19:33Z</time>
      </trkpt>
      <trkpt lat="44.29884" lon="0.90837">
        <ele>91.8</ele>
        <time>2016-05-16T10:19:35Z</time>
      </trkpt>
      <trkpt lat="44.29877" lon="0.90812">
        <ele>92</ele>
        <time>2016-05-16T10:19:39Z</time>
      </trkpt>
      <trkpt lat="44.29872" lon="0.90794">
        <ele>92.4</ele>
        <time>2016-05-16T10:19:42Z</time>
      </trkpt>
      <trkpt lat="44.29871" lon="0.90788">
        <ele>92.8</ele>
        <time>2016-05-16T10:19:43Z</time>
      </trkpt>
      <trkpt lat="44.29862" lon="0.90753">
        <ele>93</ele>
        <time>2016-05-16T10:19:49Z</time>
      </trkpt>
      <trkpt lat="44.29861" lon="0.90732">
        <ele>92.8</ele>
        <time>2016-05-16T10:19:52Z</time>
      </trkpt>
      <trkpt lat="44.29861" lon="0.90719">
        <ele>92.6</ele>
        <time>2016-05-16T10:19:54Z</time>
      </trkpt>
      <trkpt lat="44.29863" lon="0.90699">
        <ele>92.8</ele>
        <time>2016-05-16T10:19:57Z</time>
      </trkpt>
      <trkpt lat="44.29877" lon="0.90644">
        <ele>92.2</ele>
        <time>2016-05-16T10:20:05Z</time>
      </trkpt>
      <trkpt lat="44.29886" lon="0.90593">
        <ele>92.4</ele>
        <time>2016-05-16T10:20:12Z</time>
      </trkpt>
      <trkpt lat="44.29887" lon="0.90585">
        <ele>91.8</ele>
        <time>2016-05-16T10:20:13Z</time>
      </trkpt>
      <trkpt lat="44.29889" lon="0.9057">
        <ele>91.2</ele>
        <time>2016-05-16T10:20:15Z</time>
      </trkpt>
      <trkpt lat="44.29892" lon="0.90538">
        <ele>91</ele>
        <time>2016-05-16T10:20:19Z</time>
      </trkpt>
      <trkpt lat="44.29896" lon="0.90484">
        <ele>90.2</ele>
        <time>2016-05-16T10:20:26Z</time>
      </trkpt>
      <trkpt lat="44.29896" lon="0.90468">
        <ele>89.8</ele>
        <time>2016-05-16T10:20:28Z</time>
      </trkpt>
      <trkpt lat="44.29894" lon="0.9041">
        <ele>89</ele>
        <time>2016-05-16T10:20:35Z</time>
      </trkpt>
      <trkpt lat="44.29892" lon="0.90394">
        <ele>88.6</ele>
        <time>2016-05-16T10:20:37Z</time>
      </trkpt>
      <trkpt lat="44.29892" lon="0.9035">
        <ele>87.8</ele>
        <time>2016-05-16T10:20:42Z</time>
      </trkpt>
      <trkpt lat="44.29891" lon="0.90341">
        <ele>87.4</ele>
        <time>2016-05-16T10:20:43Z</time>
      </trkpt>
      <trkpt lat="44.29892" lon="0.90306">
        <ele>86.6</ele>
        <time>2016-05-16T10:20:47Z</time>
      </trkpt>
      <trkpt lat="44.29894" lon="0.9028">
        <ele>86.6</ele>
        <time>2016-05-16T10:20:50Z</time>
      </trkpt>
      <trkpt lat="44.29893" lon="0.90231">
        <ele>86</ele>
        <time>2016-05-16T10:20:56Z</time>
      </trkpt>
      <trkpt lat="44.29883" lon="0.90185">
        <ele>85.8</ele>
        <time>2016-05-16T10:21:02Z</time>
      </trkpt>
      <trkpt lat="44.2988" lon="0.90178">
        <ele>85.6</ele>
        <time>2016-05-16T10:21:03Z</time>
      </trkpt>
      <trkpt lat="44.29867" lon="0.90127">
        <ele>86</ele>
        <time>2016-05-16T10:21:10Z</time>
      </trkpt>
      <trkpt lat="44.29854" lon="0.90086">
        <ele>86</ele>
        <time>2016-05-16T10:21:17Z</time>
      </trkpt>
      <trkpt lat="44.29847" lon="0.9007">
        <ele>86.2</ele>
        <time>2016-05-16T10:21:20Z</time>
      </trkpt>
      <trkpt lat="44.29839" lon="0.90059">
        <ele>86.2</ele>
        <time>2016-05-16T10:21:23Z</time>
      </trkpt>
      <trkpt lat="44.29832" lon="0.90047">
        <ele>86.6</ele>
        <time>2016-05-16T10:21:26Z</time>
      </trkpt>
      <trkpt lat="44.29823" lon="0.90034">
        <ele>85.8</ele>
        <time>2016-05-16T10:21:30Z</time>
      </trkpt>
      <trkpt lat="44.29814" lon="0.90021">
        <ele>85.8</ele>
        <time>2016-05-16T10:21:35Z</time>
      </trkpt>
      <trkpt lat="44.29811" lon="0.90018">
        <ele>85.8</ele>
        <time>2016-05-16T10:21:41Z</time>
      </trkpt>
      <trkpt lat="44.29806" lon="0.90014">
        <ele>85.8</ele>
        <time>2016-05-16T10:22:11Z</time>
      </trkpt>
      <trkpt lat="44.29802" lon="0.90009">
        <ele>86</ele>
        <time>2016-05-16T10:22:13Z</time>
      </trkpt>
      <trkpt lat="44.29789" lon="0.8999">
        <ele>85.8</ele>
        <time>2016-05-16T10:22:18Z</time>
      </trkpt>
      <trkpt lat="44.29782" lon="0.89979">
        <ele>86</ele>
        <time>2016-05-16T10:22:20Z</time>
      </trkpt>
      <trkpt lat="44.29773" lon="0.89963">
        <ele>86.2</ele>
        <time>2016-05-16T10:22:23Z</time>
      </trkpt>
      <trkpt lat="44.29759" lon="0.89918">
        <ele>86.6</ele>
        <time>2016-05-16T10:22:30Z</time>
      </trkpt>
      <trkpt lat="44.29749" lon="0.89876">
        <ele>86.8</ele>
        <time>2016-05-16T10:22:36Z</time>
      </trkpt>
      <trkpt lat="44.29743" lon="0.89854">
        <ele>86</ele>
        <time>2016-05-16T10:22:39Z</time>
      </trkpt>
      <trkpt lat="44.29722" lon="0.89814">
        <ele>85.8</ele>
        <time>2016-05-16T10:22:45Z</time>
      </trkpt>
      <trkpt lat="44.29718" lon="0.89807">
        <ele>85.8</ele>
        <time>2016-05-16T10:22:46Z</time>
      </trkpt>
      <trkpt lat="44.2969" lon="0.89753">
        <ele>85.2</ele>
        <time>2016-05-16T10:22:54Z</time>
      </trkpt>
      <trkpt lat="44.29672" lon="0.89709">
        <ele>84.8</ele>
        <time>2016-05-16T10:23:00Z</time>
      </trkpt>
      <trkpt lat="44.29663" lon="0.89686">
        <ele>84.4</ele>
        <time>2016-05-16T10:23:03Z</time>
      </trkpt>
      <trkpt lat="44.29635" lon="0.89629">
        <ele>84.6</ele>
        <time>2016-05-16T10:23:11Z</time>
      </trkpt>
      <trkpt lat="44.29603" lon="0.8958">
        <ele>84.4</ele>
        <time>2016-05-16T10:23:19Z</time>
      </trkpt>
      <trkpt lat="44.29573" lon="0.89549">
        <ele>84.4</ele>
        <time>2016-05-16T10:23:25Z</time>
      </trkpt>
      <trkpt lat="44.29549" lon="0.89514">
        <ele>84.6</ele>
        <time>2016-05-16T10:23:30Z</time>
      </trkpt>
      <trkpt lat="44.29533" lon="0.89488">
        <ele>85</ele>
        <time>2016-05-16T10:23:34Z</time>
      </trkpt>
      <trkpt lat="44.29529" lon="0.89481">
        <ele>84.8</ele>
        <time>2016-05-16T10:23:35Z</time>
      </trkpt>
      <trkpt lat="44.29515" lon="0.89461">
        <ele>84.4</ele>
        <time>2016-05-16T10:23:38Z</time>
      </trkpt>
      <trkpt lat="44.2951" lon="0.89455">
        <ele>84.8</ele>
        <time>2016-05-16T10:23:39Z</time>
      </trkpt>
      <trkpt lat="44.29468" lon="0.89406">
        <ele>84</ele>
        <time>2016-05-16T10:23:47Z</time>
      </trkpt>
      <trkpt lat="44.29458" lon="0.89395">
        <ele>83.6</ele>
        <time>2016-05-16T10:23:49Z</time>
      </trkpt>
      <trkpt lat="44.29438" lon="0.89373">
        <ele>83.8</ele>
        <time>2016-05-16T10:23:53Z</time>
      </trkpt>
      <trkpt lat="44.29422" lon="0.89356">
        <ele>83.4</ele>
        <time>2016-05-16T10:23:56Z</time>
      </trkpt>
      <trkpt lat="44.29383" lon="0.89313">
        <ele>83</ele>
        <time>2016-05-16T10:24:04Z</time>
      </trkpt>
      <trkpt lat="44.29368" lon="0.89297">
        <ele>82.4</ele>
        <time>2016-05-16T10:24:07Z</time>
      </trkpt>
      <trkpt lat="44.29348" lon="0.89275">
        <ele>83</ele>
        <time>2016-05-16T10:24:11Z</time>
      </trkpt>
      <trkpt lat="44.29315" lon="0.89244">
        <ele>82.2</ele>
        <time>2016-05-16T10:24:17Z</time>
      </trkpt>
      <trkpt lat="44.29304" lon="0.89234">
        <ele>82.4</ele>
        <time>2016-05-16T10:24:19Z</time>
      </trkpt>
      <trkpt lat="44.29293" lon="0.89226">
        <ele>82.6</ele>
        <time>2016-05-16T10:24:21Z</time>
      </trkpt>
      <trkpt lat="44.29253" lon="0.89197">
        <ele>82.6</ele>
        <time>2016-05-16T10:24:28Z</time>
      </trkpt>
      <trkpt lat="44.29247" lon="0.89193">
        <ele>82.6</ele>
        <time>2016-05-16T10:24:29Z</time>
      </trkpt>
      <trkpt lat="44.29224" lon="0.89177">
        <ele>82.4</ele>
        <time>2016-05-16T10:24:33Z</time>
      </trkpt>
      <trkpt lat="44.29185" lon="0.89149">
        <ele>82.4</ele>
        <time>2016-05-16T10:24:40Z</time>
      </trkpt>
      <trkpt lat="44.2918" lon="0.89144">
        <ele>82.4</ele>
        <time>2016-05-16T10:24:41Z</time>
      </trkpt>
      <trkpt lat="44.29163" lon="0.89133">
        <ele>82.2</ele>
        <time>2016-05-16T10:24:44Z</time>
      </trkpt>
      <trkpt lat="44.29152" lon="0.89125">
        <ele>81.8</ele>
        <time>2016-05-16T10:24:46Z</time>
      </trkpt>
      <trkpt lat="44.29111" lon="0.89096">
        <ele>81.6</ele>
        <time>2016-05-16T10:24:53Z</time>
      </trkpt>
      <trkpt lat="44.29094" lon="0.89083">
        <ele>81.2</ele>
        <time>2016-05-16T10:24:56Z</time>
      </trkpt>
      <trkpt lat="44.29072" lon="0.89063">
        <ele>80.8</ele>
        <time>2016-05-16T10:25:00Z</time>
      </trkpt>
      <trkpt lat="44.29037" lon="0.89027">
        <ele>81</ele>
        <time>2016-05-16T10:25:07Z</time>
      </trkpt>
      <trkpt lat="44.2899" lon="0.88982">
        <ele>81</ele>
        <time>2016-05-16T10:25:16Z</time>
      </trkpt>
      <trkpt lat="44.28962" lon="0.88963">
        <ele>80</ele>
        <time>2016-05-16T10:25:21Z</time>
      </trkpt>
      <trkpt lat="44.28945" lon="0.88952">
        <ele>80</ele>
        <time>2016-05-16T10:25:24Z</time>
      </trkpt>
      <trkpt lat="44.28893" lon="0.88919">
        <ele>80</ele>
        <time>2016-05-16T10:25:33Z</time>
      </trkpt>
      <trkpt lat="44.28887" lon="0.88916">
        <ele>79.8</ele>
        <time>2016-05-16T10:25:34Z</time>
      </trkpt>
      <trkpt lat="44.28835" lon="0.88881">
        <ele>79.2</ele>
        <time>2016-05-16T10:25:43Z</time>
      </trkpt>
      <trkpt lat="44.28788" lon="0.88851">
        <ele>79.6</ele>
        <time>2016-05-16T10:25:51Z</time>
      </trkpt>
      <trkpt lat="44.28742" lon="0.88821">
        <ele>79.2</ele>
        <time>2016-05-16T10:25:59Z</time>
      </trkpt>
      <trkpt lat="44.28736" lon="0.88818">
        <ele>79.2</ele>
        <time>2016-05-16T10:26:00Z</time>
      </trkpt>
      <trkpt lat="44.28714" lon="0.88803">
        <ele>79</ele>
        <time>2016-05-16T10:26:04Z</time>
      </trkpt>
      <trkpt lat="44.28674" lon="0.88777">
        <ele>79.2</ele>
        <time>2016-05-16T10:26:11Z</time>
      </trkpt>
      <trkpt lat="44.28662" lon="0.88769">
        <ele>78.6</ele>
        <time>2016-05-16T10:26:13Z</time>
      </trkpt>
      <trkpt lat="44.28634" lon="0.8875">
        <ele>79</ele>
        <time>2016-05-16T10:26:18Z</time>
      </trkpt>
      <trkpt lat="44.2858" lon="0.88715">
        <ele>78.4</ele>
        <time>2016-05-16T10:26:28Z</time>
      </trkpt>
      <trkpt lat="44.28545" lon="0.88691">
        <ele>78.4</ele>
        <time>2016-05-16T10:26:35Z</time>
      </trkpt>
      <trkpt lat="44.28508" lon="0.88666">
        <ele>78.4</ele>
        <time>2016-05-16T10:26:43Z</time>
      </trkpt>
      <trkpt lat="44.2846" lon="0.88635">
        <ele>78.2</ele>
        <time>2016-05-16T10:26:53Z</time>
      </trkpt>
      <trkpt lat="44.28424" lon="0.88612">
        <ele>79.2</ele>
        <time>2016-05-16T10:27:01Z</time>
      </trkpt>
      <trkpt lat="44.28384" lon="0.88582">
        <ele>79.2</ele>
        <time>2016-05-16T10:27:10Z</time>
      </trkpt>
      <trkpt lat="44.28356" lon="0.88553">
        <ele>79.4</ele>
        <time>2016-05-16T10:27:18Z</time>
      </trkpt>
      <trkpt lat="44.28336" lon="0.8853">
        <ele>79.6</ele>
        <time>2016-05-16T10:27:25Z</time>
      </trkpt>
      <trkpt lat="44.28334" lon="0.88527">
        <ele>79.6</ele>
        <time>2016-05-16T10:27:26Z</time>
      </trkpt>
      <trkpt lat="44.2833" lon="0.88521">
        <ele>79.4</ele>
        <time>2016-05-16T10:27:30Z</time>
      </trkpt>
      <trkpt lat="44.28327" lon="0.88524">
        <ele>80.2</ele>
        <time>2016-05-16T10:31:36Z</time>
      </trkpt>
      <trkpt lat="44.28323" lon="0.88524">
        <ele>80.2</ele>
        <time>2016-05-16T10:31:38Z</time>
      </trkpt>
      <trkpt lat="44.28315" lon="0.88522">
        <ele>80.2</ele>
        <time>2016-05-16T10:31:41Z</time>
      </trkpt>
      <trkpt lat="44.28305" lon="0.88523">
        <ele>80.4</ele>
        <time>2016-05-16T10:31:44Z</time>
      </trkpt>
      <trkpt lat="44.28287" lon="0.88527">
        <ele>81</ele>
        <time>2016-05-16T10:31:49Z</time>
      </trkpt>
      <trkpt lat="44.28284" lon="0.88527">
        <ele>81.2</ele>
        <time>2016-05-16T10:31:50Z</time>
      </trkpt>
      <trkpt lat="44.28267" lon="0.88528">
        <ele>82</ele>
        <time>2016-05-16T10:31:55Z</time>
      </trkpt>
      <trkpt lat="44.28252" lon="0.88529">
        <ele>82.8</ele>
        <time>2016-05-16T10:32:00Z</time>
      </trkpt>
      <trkpt lat="44.28249" lon="0.8853">
        <ele>83</ele>
        <time>2016-05-16T10:32:01Z</time>
      </trkpt>
      <trkpt lat="44.28237" lon="0.88532">
        <ele>84</ele>
        <time>2016-05-16T10:32:05Z</time>
      </trkpt>
      <trkpt lat="44.28232" lon="0.88534">
        <ele>84.4</ele>
        <time>2016-05-16T10:32:07Z</time>
      </trkpt>
      <trkpt lat="44.28225" lon="0.88536">
        <ele>85.2</ele>
        <time>2016-05-16T10:32:10Z</time>
      </trkpt>
      <trkpt lat="44.28218" lon="0.88541">
        <ele>85.6</ele>
        <time>2016-05-16T10:32:13Z</time>
      </trkpt>
      <trkpt lat="44.28212" lon="0.88547">
        <ele>86.2</ele>
        <time>2016-05-16T10:32:16Z</time>
      </trkpt>
      <trkpt lat="44.28202" lon="0.88557">
        <ele>86.8</ele>
        <time>2016-05-16T10:32:20Z</time>
      </trkpt>
      <trkpt lat="44.28198" lon="0.88562">
        <ele>87.4</ele>
        <time>2016-05-16T10:32:22Z</time>
      </trkpt>
      <trkpt lat="44.28188" lon="0.88574">
        <ele>88.2</ele>
        <time>2016-05-16T10:32:27Z</time>
      </trkpt>
      <trkpt lat="44.28186" lon="0.88577">
        <ele>88.4</ele>
        <time>2016-05-16T10:32:28Z</time>
      </trkpt>
      <trkpt lat="44.28173" lon="0.88592">
        <ele>89.6</ele>
        <time>2016-05-16T10:32:34Z</time>
      </trkpt>
      <trkpt lat="44.28162" lon="0.88606">
        <ele>90.6</ele>
        <time>2016-05-16T10:32:40Z</time>
      </trkpt>
      <trkpt lat="44.2816" lon="0.88608">
        <ele>90.6</ele>
        <time>2016-05-16T10:32:41Z</time>
      </trkpt>
      <trkpt lat="44.28151" lon="0.88619">
        <ele>91.8</ele>
        <time>2016-05-16T10:32:46Z</time>
      </trkpt>
      <trkpt lat="44.28142" lon="0.88632">
        <ele>92.8</ele>
        <time>2016-05-16T10:32:51Z</time>
      </trkpt>
      <trkpt lat="44.28141" lon="0.88633">
        <ele>93</ele>
        <time>2016-05-16T10:32:52Z</time>
      </trkpt>
      <trkpt lat="44.28131" lon="0.88643">
        <ele>93.8</ele>
        <time>2016-05-16T10:32:57Z</time>
      </trkpt>
      <trkpt lat="44.28128" lon="0.88644">
        <ele>94</ele>
        <time>2016-05-16T10:32:58Z</time>
      </trkpt>
      <trkpt lat="44.28117" lon="0.88651">
        <ele>95</ele>
        <time>2016-05-16T10:33:03Z</time>
      </trkpt>
      <trkpt lat="44.28109" lon="0.88653">
        <ele>95.4</ele>
        <time>2016-05-16T10:33:06Z</time>
      </trkpt>
      <trkpt lat="44.28102" lon="0.88654">
        <ele>96.2</ele>
        <time>2016-05-16T10:33:09Z</time>
      </trkpt>
      <trkpt lat="44.28093" lon="0.88653">
        <ele>96.8</ele>
        <time>2016-05-16T10:33:13Z</time>
      </trkpt>
      <trkpt lat="44.28088" lon="0.88653">
        <ele>97.4</ele>
        <time>2016-05-16T10:33:15Z</time>
      </trkpt>
      <trkpt lat="44.28077" lon="0.88653">
        <ele>98</ele>
        <time>2016-05-16T10:33:19Z</time>
      </trkpt>
      <trkpt lat="44.28072" lon="0.88653">
        <ele>98.4</ele>
        <time>2016-05-16T10:33:21Z</time>
      </trkpt>
      <trkpt lat="44.2806" lon="0.88652">
        <ele>99.4</ele>
        <time>2016-05-16T10:33:26Z</time>
      </trkpt>
      <trkpt lat="44.28056" lon="0.88652">
        <ele>99.6</ele>
        <time>2016-05-16T10:33:28Z</time>
      </trkpt>
      <trkpt lat="44.28043" lon="0.88654">
        <ele>100.2</ele>
        <time>2016-05-16T10:33:33Z</time>
      </trkpt>
      <trkpt lat="44.2804" lon="0.88654">
        <ele>100.6</ele>
        <time>2016-05-16T10:33:34Z</time>
      </trkpt>
      <trkpt lat="44.28025" lon="0.88653">
        <ele>101.8</ele>
        <time>2016-05-16T10:33:39Z</time>
      </trkpt>
      <trkpt lat="44.28022" lon="0.88652">
        <ele>102</ele>
        <time>2016-05-16T10:33:40Z</time>
      </trkpt>
      <trkpt lat="44.28011" lon="0.88652">
        <ele>102.8</ele>
        <time>2016-05-16T10:33:44Z</time>
      </trkpt>
      <trkpt lat="44.28001" lon="0.88653">
        <ele>103.8</ele>
        <time>2016-05-16T10:33:48Z</time>
      </trkpt>
      <trkpt lat="44.27999" lon="0.88653">
        <ele>104</ele>
        <time>2016-05-16T10:33:49Z</time>
      </trkpt>
      <trkpt lat="44.27986" lon="0.88656">
        <ele>105</ele>
        <time>2016-05-16T10:33:54Z</time>
      </trkpt>
      <trkpt lat="44.27981" lon="0.88657">
        <ele>105.2</ele>
        <time>2016-05-16T10:33:56Z</time>
      </trkpt>
      <trkpt lat="44.27966" lon="0.88663">
        <ele>106</ele>
        <time>2016-05-16T10:34:02Z</time>
      </trkpt>
      <trkpt lat="44.27959" lon="0.88667">
        <ele>106.8</ele>
        <time>2016-05-16T10:34:05Z</time>
      </trkpt>
      <trkpt lat="44.2795" lon="0.8867">
        <ele>107.2</ele>
        <time>2016-05-16T10:34:09Z</time>
      </trkpt>
      <trkpt lat="44.2794" lon="0.88675">
        <ele>108</ele>
        <time>2016-05-16T10:34:13Z</time>
      </trkpt>
      <trkpt lat="44.27937" lon="0.88676">
        <ele>108.2</ele>
        <time>2016-05-16T10:34:14Z</time>
      </trkpt>
      <trkpt lat="44.27923" lon="0.88683">
        <ele>109.2</ele>
        <time>2016-05-16T10:34:20Z</time>
      </trkpt>
      <trkpt lat="44.2792" lon="0.88684">
        <ele>109.8</ele>
        <time>2016-05-16T10:34:21Z</time>
      </trkpt>
      <trkpt lat="44.27911" lon="0.88688">
        <ele>110.6</ele>
        <time>2016-05-16T10:34:25Z</time>
      </trkpt>
      <trkpt lat="44.27906" lon="0.8869">
        <ele>111</ele>
        <time>2016-05-16T10:34:27Z</time>
      </trkpt>
      <trkpt lat="44.27894" lon="0.88695">
        <ele>111.8</ele>
        <time>2016-05-16T10:34:32Z</time>
      </trkpt>
      <trkpt lat="44.27889" lon="0.88697">
        <ele>112.2</ele>
        <time>2016-05-16T10:34:34Z</time>
      </trkpt>
      <trkpt lat="44.27882" lon="0.887">
        <ele>112.8</ele>
        <time>2016-05-16T10:34:37Z</time>
      </trkpt>
      <trkpt lat="44.27868" lon="0.88706">
        <ele>114.2</ele>
        <time>2016-05-16T10:34:43Z</time>
      </trkpt>
      <trkpt lat="44.27851" lon="0.8871">
        <ele>115.4</ele>
        <time>2016-05-16T10:34:50Z</time>
      </trkpt>
      <trkpt lat="44.27843" lon="0.88711">
        <ele>116</ele>
        <time>2016-05-16T10:34:53Z</time>
      </trkpt>
      <trkpt lat="44.27835" lon="0.88712">
        <ele>116.6</ele>
        <time>2016-05-16T10:34:56Z</time>
      </trkpt>
      <trkpt lat="44.27821" lon="0.88713">
        <ele>117.8</ele>
        <time>2016-05-16T10:35:02Z</time>
      </trkpt>
      <trkpt lat="44.27805" lon="0.88712">
        <ele>118.8</ele>
        <time>2016-05-16T10:35:08Z</time>
      </trkpt>
      <trkpt lat="44.27802" lon="0.88712">
        <ele>119</ele>
        <time>2016-05-16T10:35:09Z</time>
      </trkpt>
      <trkpt lat="44.27788" lon="0.88711">
        <ele>120</ele>
        <time>2016-05-16T10:35:15Z</time>
      </trkpt>
      <trkpt lat="44.27786" lon="0.88711">
        <ele>120.4</ele>
        <time>2016-05-16T10:35:16Z</time>
      </trkpt>
      <trkpt lat="44.27777" lon="0.88711">
        <ele>121.2</ele>
        <time>2016-05-16T10:35:20Z</time>
      </trkpt>
      <trkpt lat="44.27769" lon="0.8871">
        <ele>121.6</ele>
        <time>2016-05-16T10:35:23Z</time>
      </trkpt>
      <trkpt lat="44.27762" lon="0.8871">
        <ele>122.4</ele>
        <time>2016-05-16T10:35:26Z</time>
      </trkpt>
      <trkpt lat="44.27745" lon="0.88709">
        <ele>123.4</ele>
        <time>2016-05-16T10:35:33Z</time>
      </trkpt>
      <trkpt lat="44.27743" lon="0.88708">
        <ele>123.6</ele>
        <time>2016-05-16T10:35:34Z</time>
      </trkpt>
      <trkpt lat="44.27729" lon="0.88702">
        <ele>124.6</ele>
        <time>2016-05-16T10:35:40Z</time>
      </trkpt>
      <trkpt lat="44.27726" lon="0.887">
        <ele>124.8</ele>
        <time>2016-05-16T10:35:41Z</time>
      </trkpt>
      <trkpt lat="44.27718" lon="0.88688">
        <ele>125.6</ele>
        <time>2016-05-16T10:35:46Z</time>
      </trkpt>
      <trkpt lat="44.27716" lon="0.88682">
        <ele>125.8</ele>
        <time>2016-05-16T10:35:48Z</time>
      </trkpt>
      <trkpt lat="44.27715" lon="0.88669">
        <ele>126.4</ele>
        <time>2016-05-16T10:35:52Z</time>
      </trkpt>
      <trkpt lat="44.27717" lon="0.88663">
        <ele>127.2</ele>
        <time>2016-05-16T10:35:54Z</time>
      </trkpt>
      <trkpt lat="44.27722" lon="0.88652">
        <ele>128</ele>
        <time>2016-05-16T10:35:58Z</time>
      </trkpt>
      <trkpt lat="44.27723" lon="0.8865">
        <ele>128.4</ele>
        <time>2016-05-16T10:35:59Z</time>
      </trkpt>
      <trkpt lat="44.27732" lon="0.88639">
        <ele>129.2</ele>
        <time>2016-05-16T10:36:04Z</time>
      </trkpt>
      <trkpt lat="44.27736" lon="0.88635">
        <ele>129.6</ele>
        <time>2016-05-16T10:36:06Z</time>
      </trkpt>
      <trkpt lat="44.27747" lon="0.88622">
        <ele>130.4</ele>
        <time>2016-05-16T10:36:13Z</time>
      </trkpt>
      <trkpt lat="44.27749" lon="0.8862">
        <ele>130.8</ele>
        <time>2016-05-16T10:36:14Z</time>
      </trkpt>
      <trkpt lat="44.27759" lon="0.8861">
        <ele>132</ele>
        <time>2016-05-16T10:36:19Z</time>
      </trkpt>
      <trkpt lat="44.27763" lon="0.88607">
        <ele>132.4</ele>
        <time>2016-05-16T10:36:21Z</time>
      </trkpt>
      <trkpt lat="44.27772" lon="0.88598">
        <ele>133</ele>
        <time>2016-05-16T10:36:26Z</time>
      </trkpt>
      <trkpt lat="44.2778" lon="0.88593">
        <ele>133.8</ele>
        <time>2016-05-16T10:36:30Z</time>
      </trkpt>
      <trkpt lat="44.27787" lon="0.88588">
        <ele>134.2</ele>
        <time>2016-05-16T10:36:33Z</time>
      </trkpt>
      <trkpt lat="44.27796" lon="0.88582">
        <ele>135</ele>
        <time>2016-05-16T10:36:37Z</time>
      </trkpt>
      <trkpt lat="44.278" lon="0.88578">
        <ele>135.4</ele>
        <time>2016-05-16T10:36:39Z</time>
      </trkpt>
      <trkpt lat="44.27814" lon="0.88569">
        <ele>136.4</ele>
        <time>2016-05-16T10:36:45Z</time>
      </trkpt>
      <trkpt lat="44.27816" lon="0.88567">
        <ele>136.6</ele>
        <time>2016-05-16T10:36:46Z</time>
      </trkpt>
      <trkpt lat="44.27826" lon="0.88553">
        <ele>137.6</ele>
        <time>2016-05-16T10:36:52Z</time>
      </trkpt>
      <trkpt lat="44.27827" lon="0.88551">
        <ele>138</ele>
        <time>2016-05-16T10:36:53Z</time>
      </trkpt>
      <trkpt lat="44.27835" lon="0.8854">
        <ele>138.8</ele>
        <time>2016-05-16T10:36:58Z</time>
      </trkpt>
      <trkpt lat="44.27839" lon="0.88531">
        <ele>139.2</ele>
        <time>2016-05-16T10:37:01Z</time>
      </trkpt>
      <trkpt lat="44.27843" lon="0.88523">
        <ele>139.8</ele>
        <time>2016-05-16T10:37:04Z</time>
      </trkpt>
      <trkpt lat="44.27848" lon="0.88508">
        <ele>140.6</ele>
        <time>2016-05-16T10:37:09Z</time>
      </trkpt>
      <trkpt lat="44.2785" lon="0.88502">
        <ele>141</ele>
        <time>2016-05-16T10:37:11Z</time>
      </trkpt>
      <trkpt lat="44.27859" lon="0.88482">
        <ele>142</ele>
        <time>2016-05-16T10:37:18Z</time>
      </trkpt>
      <trkpt lat="44.27861" lon="0.8848">
        <ele>142.2</ele>
        <time>2016-05-16T10:37:19Z</time>
      </trkpt>
      <trkpt lat="44.27869" lon="0.88468">
        <ele>143.2</ele>
        <time>2016-05-16T10:37:24Z</time>
      </trkpt>
      <trkpt lat="44.27871" lon="0.88466">
        <ele>143.6</ele>
        <time>2016-05-16T10:37:25Z</time>
      </trkpt>
      <trkpt lat="44.27882" lon="0.88452">
        <ele>144.4</ele>
        <time>2016-05-16T10:37:31Z</time>
      </trkpt>
      <trkpt lat="44.27894" lon="0.88439">
        <ele>145.4</ele>
        <time>2016-05-16T10:37:37Z</time>
      </trkpt>
      <trkpt lat="44.279" lon="0.88435">
        <ele>145.8</ele>
        <time>2016-05-16T10:37:40Z</time>
      </trkpt>
      <trkpt lat="44.27907" lon="0.88431">
        <ele>146.4</ele>
        <time>2016-05-16T10:37:43Z</time>
      </trkpt>
      <trkpt lat="44.27917" lon="0.88423">
        <ele>147.4</ele>
        <time>2016-05-16T10:37:48Z</time>
      </trkpt>
      <trkpt lat="44.2793" lon="0.88409">
        <ele>148.4</ele>
        <time>2016-05-16T10:37:54Z</time>
      </trkpt>
      <trkpt lat="44.27936" lon="0.884">
        <ele>149</ele>
        <time>2016-05-16T10:37:57Z</time>
      </trkpt>
      <trkpt lat="44.2794" lon="0.88392">
        <ele>149.6</ele>
        <time>2016-05-16T10:38:00Z</time>
      </trkpt>
      <trkpt lat="44.27947" lon="0.88376">
        <ele>150.2</ele>
        <time>2016-05-16T10:38:05Z</time>
      </trkpt>
      <trkpt lat="44.27951" lon="0.88368">
        <ele>150.8</ele>
        <time>2016-05-16T10:38:08Z</time>
      </trkpt>
      <trkpt lat="44.27955" lon="0.88356">
        <ele>151.2</ele>
        <time>2016-05-16T10:38:12Z</time>
      </trkpt>
      <trkpt lat="44.27958" lon="0.88348">
        <ele>151.8</ele>
        <time>2016-05-16T10:38:15Z</time>
      </trkpt>
      <trkpt lat="44.27963" lon="0.88334">
        <ele>152.8</ele>
        <time>2016-05-16T10:38:20Z</time>
      </trkpt>
      <trkpt lat="44.27963" lon="0.88331">
        <ele>153</ele>
        <time>2016-05-16T10:38:21Z</time>
      </trkpt>
      <trkpt lat="44.27966" lon="0.88314">
        <ele>153.8</ele>
        <time>2016-05-16T10:38:26Z</time>
      </trkpt>
      <trkpt lat="44.27967" lon="0.88311">
        <ele>154.2</ele>
        <time>2016-05-16T10:38:27Z</time>
      </trkpt>
      <trkpt lat="44.27966" lon="0.88294">
        <ele>155</ele>
        <time>2016-05-16T10:38:33Z</time>
      </trkpt>
      <trkpt lat="44.27966" lon="0.8829">
        <ele>155.4</ele>
        <time>2016-05-16T10:38:35Z</time>
      </trkpt>
      <trkpt lat="44.27963" lon="0.88278">
        <ele>156</ele>
        <time>2016-05-16T10:38:40Z</time>
      </trkpt>
      <trkpt lat="44.27959" lon="0.88268">
        <ele>156.6</ele>
        <time>2016-05-16T10:38:44Z</time>
      </trkpt>
      <trkpt lat="44.27956" lon="0.8826">
        <ele>157</ele>
        <time>2016-05-16T10:38:47Z</time>
      </trkpt>
      <trkpt lat="44.2795" lon="0.88246">
        <ele>157.6</ele>
        <time>2016-05-16T10:38:53Z</time>
      </trkpt>
      <trkpt lat="44.27942" lon="0.88229">
        <ele>158.6</ele>
        <time>2016-05-16T10:38:59Z</time>
      </trkpt>
      <trkpt lat="44.27941" lon="0.88227">
        <ele>158.8</ele>
        <time>2016-05-16T10:39:00Z</time>
      </trkpt>
      <trkpt lat="44.27936" lon="0.88214">
        <ele>159.8</ele>
        <time>2016-05-16T10:39:05Z</time>
      </trkpt>
      <trkpt lat="44.27933" lon="0.88209">
        <ele>160</ele>
        <time>2016-05-16T10:39:07Z</time>
      </trkpt>
      <trkpt lat="44.27928" lon="0.88196">
        <ele>161</ele>
        <time>2016-05-16T10:39:12Z</time>
      </trkpt>
      <trkpt lat="44.27926" lon="0.88191">
        <ele>161.2</ele>
        <time>2016-05-16T10:39:14Z</time>
      </trkpt>
      <trkpt lat="44.27923" lon="0.88174">
        <ele>162.2</ele>
        <time>2016-05-16T10:39:20Z</time>
      </trkpt>
      <trkpt lat="44.27922" lon="0.88166">
        <ele>162.8</ele>
        <time>2016-05-16T10:39:23Z</time>
      </trkpt>
      <trkpt lat="44.27922" lon="0.88159">
        <ele>163.4</ele>
        <time>2016-05-16T10:39:26Z</time>
      </trkpt>
      <trkpt lat="44.27923" lon="0.88144">
        <ele>164.4</ele>
        <time>2016-05-16T10:39:32Z</time>
      </trkpt>
      <trkpt lat="44.27924" lon="0.88126">
        <ele>165.4</ele>
        <time>2016-05-16T10:39:39Z</time>
      </trkpt>
      <trkpt lat="44.27925" lon="0.88121">
        <ele>165.6</ele>
        <time>2016-05-16T10:39:41Z</time>
      </trkpt>
      <trkpt lat="44.27927" lon="0.88109">
        <ele>166.4</ele>
        <time>2016-05-16T10:39:47Z</time>
      </trkpt>
      <trkpt lat="44.27927" lon="0.88106">
        <ele>166.8</ele>
        <time>2016-05-16T10:39:48Z</time>
      </trkpt>
      <trkpt lat="44.27929" lon="0.88094">
        <ele>167.6</ele>
        <time>2016-05-16T10:39:54Z</time>
      </trkpt>
      <trkpt lat="44.27929" lon="0.88088">
        <ele>168</ele>
        <time>2016-05-16T10:39:56Z</time>
      </trkpt>
      <trkpt lat="44.27931" lon="0.88076">
        <ele>168.6</ele>
        <time>2016-05-16T10:40:00Z</time>
      </trkpt>
      <trkpt lat="44.27933" lon="0.88059">
        <ele>169.8</ele>
        <time>2016-05-16T10:40:06Z</time>
      </trkpt>
      <trkpt lat="44.27935" lon="0.88037">
        <ele>170.8</ele>
        <time>2016-05-16T10:40:14Z</time>
      </trkpt>
      <trkpt lat="44.27935" lon="0.88034">
        <ele>171</ele>
        <time>2016-05-16T10:40:15Z</time>
      </trkpt>
      <trkpt lat="44.27937" lon="0.88014">
        <ele>172</ele>
        <time>2016-05-16T10:40:22Z</time>
      </trkpt>
      <trkpt lat="44.27937" lon="0.88011">
        <ele>172.2</ele>
        <time>2016-05-16T10:40:23Z</time>
      </trkpt>
      <trkpt lat="44.27939" lon="0.87997">
        <ele>173</ele>
        <time>2016-05-16T10:40:28Z</time>
      </trkpt>
      <trkpt lat="44.27939" lon="0.87991">
        <ele>173.4</ele>
        <time>2016-05-16T10:40:30Z</time>
      </trkpt>
      <trkpt lat="44.27941" lon="0.87974">
        <ele>174.2</ele>
        <time>2016-05-16T10:40:36Z</time>
      </trkpt>
      <trkpt lat="44.27941" lon="0.87968">
        <ele>174.6</ele>
        <time>2016-05-16T10:40:38Z</time>
      </trkpt>
      <trkpt lat="44.27942" lon="0.87959">
        <ele>175.6</ele>
        <time>2016-05-16T10:40:41Z</time>
      </trkpt>
      <trkpt lat="44.27942" lon="0.87945">
        <ele>176.6</ele>
        <time>2016-05-16T10:40:46Z</time>
      </trkpt>
      <trkpt lat="44.27941" lon="0.87943">
        <ele>176.6</ele>
        <time>2016-05-16T10:40:47Z</time>
      </trkpt>
      <trkpt lat="44.27941" lon="0.8794">
        <ele>176.8</ele>
        <time>2016-05-16T10:40:48Z</time>
      </trkpt>
      <trkpt lat="44.27942" lon="0.87929">
        <ele>177.2</ele>
        <time>2016-05-16T10:40:52Z</time>
      </trkpt>
      <trkpt lat="44.27941" lon="0.87919">
        <ele>178</ele>
        <time>2016-05-16T10:40:56Z</time>
      </trkpt>
      <trkpt lat="44.27941" lon="0.87908">
        <ele>178.6</ele>
        <time>2016-05-16T10:41:00Z</time>
      </trkpt>
      <trkpt lat="44.27938" lon="0.87898">
        <ele>179.2</ele>
        <time>2016-05-16T10:41:04Z</time>
      </trkpt>
      <trkpt lat="44.27936" lon="0.87888">
        <ele>179.6</ele>
        <time>2016-05-16T10:41:08Z</time>
      </trkpt>
      <trkpt lat="44.27935" lon="0.8788">
        <ele>180.2</ele>
        <time>2016-05-16T10:41:11Z</time>
      </trkpt>
      <trkpt lat="44.27931" lon="0.87863">
        <ele>181.4</ele>
        <time>2016-05-16T10:41:18Z</time>
      </trkpt>
      <trkpt lat="44.27929" lon="0.87847">
        <ele>182.4</ele>
        <time>2016-05-16T10:41:25Z</time>
      </trkpt>
      <trkpt lat="44.27928" lon="0.87844">
        <ele>182.6</ele>
        <time>2016-05-16T10:41:26Z</time>
      </trkpt>
      <trkpt lat="44.27925" lon="0.87828">
        <ele>183.4</ele>
        <time>2016-05-16T10:41:32Z</time>
      </trkpt>
      <trkpt lat="44.27925" lon="0.87825">
        <ele>183.6</ele>
        <time>2016-05-16T10:41:33Z</time>
      </trkpt>
      <trkpt lat="44.27918" lon="0.87811">
        <ele>184.8</ele>
        <time>2016-05-16T10:41:39Z</time>
      </trkpt>
      <trkpt lat="44.27916" lon="0.8781">
        <ele>184.8</ele>
        <time>2016-05-16T10:41:40Z</time>
      </trkpt>
      <trkpt lat="44.27907" lon="0.87811">
        <ele>185.6</ele>
        <time>2016-05-16T10:41:44Z</time>
      </trkpt>
      <trkpt lat="44.27903" lon="0.87812">
        <ele>185.8</ele>
        <time>2016-05-16T10:41:46Z</time>
      </trkpt>
      <trkpt lat="44.27901" lon="0.87813">
        <ele>185.8</ele>
        <time>2016-05-16T10:41:47Z</time>
      </trkpt>
      <trkpt lat="44.27897" lon="0.87813">
        <ele>185.6</ele>
        <time>2016-05-16T10:41:49Z</time>
      </trkpt>
      <trkpt lat="44.27895" lon="0.87814">
        <ele>185.6</ele>
        <time>2016-05-16T10:41:50Z</time>
      </trkpt>
      <trkpt lat="44.2789" lon="0.8782">
        <ele>186</ele>
        <time>2016-05-16T10:41:54Z</time>
      </trkpt>
      <trkpt lat="44.27886" lon="0.87828">
        <ele>186</ele>
        <time>2016-05-16T10:41:58Z</time>
      </trkpt>
      <trkpt lat="44.27881" lon="0.8785">
        <ele>186.2</ele>
        <time>2016-05-16T10:42:05Z</time>
      </trkpt>
      <trkpt lat="44.2788" lon="0.87857">
        <ele>186.4</ele>
        <time>2016-05-16T10:42:07Z</time>
      </trkpt>
      <trkpt lat="44.27879" lon="0.87872">
        <ele>186.6</ele>
        <time>2016-05-16T10:42:13Z</time>
      </trkpt>
      <trkpt lat="44.27881" lon="0.8788">
        <ele>187</ele>
        <time>2016-05-16T10:46:08Z</time>
      </trkpt>
      <trkpt lat="44.2788" lon="0.87888">
        <ele>187</ele>
        <time>2016-05-16T10:46:11Z</time>
      </trkpt>
      <trkpt lat="44.27878" lon="0.8791">
        <ele>187.6</ele>
        <time>2016-05-16T10:46:17Z</time>
      </trkpt>
      <trkpt lat="44.27877" lon="0.87913">
        <ele>188</ele>
        <time>2016-05-16T10:46:18Z</time>
      </trkpt>
      <trkpt lat="44.27872" lon="0.87938">
        <ele>188.6</ele>
        <time>2016-05-16T10:46:25Z</time>
      </trkpt>
      <trkpt lat="44.27868" lon="0.87949">
        <ele>189</ele>
        <time>2016-05-16T10:46:28Z</time>
      </trkpt>
      <trkpt lat="44.27864" lon="0.87963">
        <ele>189.2</ele>
        <time>2016-05-16T10:46:32Z</time>
      </trkpt>
      <trkpt lat="44.27853" lon="0.87991">
        <ele>189.8</ele>
        <time>2016-05-16T10:46:40Z</time>
      </trkpt>
      <trkpt lat="44.27845" lon="0.88006">
        <ele>190.2</ele>
        <time>2016-05-16T10:46:45Z</time>
      </trkpt>
      <trkpt lat="44.2784" lon="0.88015">
        <ele>190.4</ele>
        <time>2016-05-16T10:46:48Z</time>
      </trkpt>
      <trkpt lat="44.27826" lon="0.88032">
        <ele>191.2</ele>
        <time>2016-05-16T10:46:55Z</time>
      </trkpt>
      <trkpt lat="44.27809" lon="0.88051">
        <ele>191.6</ele>
        <time>2016-05-16T10:47:03Z</time>
      </trkpt>
      <trkpt lat="44.27808" lon="0.88052">
        <ele>191.6</ele>
        <time>2016-05-16T10:47:04Z</time>
      </trkpt>
      <trkpt lat="44.27807" lon="0.88051">
        <ele>191.8</ele>
        <time>2016-05-16T10:47:07Z</time>
      </trkpt>
      <trkpt lat="44.278" lon="0.88054">
        <ele>192</ele>
        <time>2016-05-16T10:48:17Z</time>
      </trkpt>
      <trkpt lat="44.27795" lon="0.88057">
        <ele>191.8</ele>
        <time>2016-05-16T10:48:19Z</time>
      </trkpt>
      <trkpt lat="44.2779" lon="0.88063">
        <ele>192.4</ele>
        <time>2016-05-16T10:48:22Z</time>
      </trkpt>
      <trkpt lat="44.27781" lon="0.88072">
        <ele>193</ele>
        <time>2016-05-16T10:48:26Z</time>
      </trkpt>
      <trkpt lat="44.27768" lon="0.88084">
        <ele>193.2</ele>
        <time>2016-05-16T10:48:32Z</time>
      </trkpt>
      <trkpt lat="44.27758" lon="0.88088">
        <ele>193.4</ele>
        <time>2016-05-16T10:48:38Z</time>
      </trkpt>
      <trkpt lat="44.27753" lon="0.88091">
        <ele>193.4</ele>
        <time>2016-05-16T10:48:41Z</time>
      </trkpt>
      <trkpt lat="44.27751" lon="0.88092">
        <ele>193.4</ele>
        <time>2016-05-16T10:48:42Z</time>
      </trkpt>
      <trkpt lat="44.27747" lon="0.88094">
        <ele>193.6</ele>
        <time>2016-05-16T10:48:44Z</time>
      </trkpt>
      <trkpt lat="44.27737" lon="0.88097">
        <ele>194</ele>
        <time>2016-05-16T10:48:51Z</time>
      </trkpt>
      <trkpt lat="44.27725" lon="0.88101">
        <ele>194</ele>
        <time>2016-05-16T10:48:58Z</time>
      </trkpt>
      <trkpt lat="44.27714" lon="0.88106">
        <ele>194.4</ele>
        <time>2016-05-16T10:49:05Z</time>
      </trkpt>
      <trkpt lat="44.27699" lon="0.88116">
        <ele>194.4</ele>
        <time>2016-05-16T10:49:12Z</time>
      </trkpt>
      <trkpt lat="44.27697" lon="0.88117">
        <ele>194.2</ele>
        <time>2016-05-16T10:49:13Z</time>
      </trkpt>
      <trkpt lat="44.27677" lon="0.88129">
        <ele>194</ele>
        <time>2016-05-16T10:49:21Z</time>
      </trkpt>
      <trkpt lat="44.27679" lon="0.88133">
        <ele>194.2</ele>
        <time>2016-05-16T10:49:24Z</time>
      </trkpt>
      <trkpt lat="44.27681" lon="0.88131">
        <ele>194.2</ele>
        <time>2016-05-16T10:49:26Z</time>
      </trkpt>
      <trkpt lat="44.27688" lon="0.88126">
        <ele>194.2</ele>
        <time>2016-05-16T10:49:29Z</time>
      </trkpt>
      <trkpt lat="44.27696" lon="0.8812">
        <ele>194.4</ele>
        <time>2016-05-16T10:49:33Z</time>
      </trkpt>
      <trkpt lat="44.27701" lon="0.88118">
        <ele>194.4</ele>
        <time>2016-05-16T10:49:36Z</time>
      </trkpt>
      <trkpt lat="44.27713" lon="0.88109">
        <ele>194.4</ele>
        <time>2016-05-16T10:49:44Z</time>
      </trkpt>
      <trkpt lat="44.2773" lon="0.88104">
        <ele>194.6</ele>
        <time>2016-05-16T10:49:53Z</time>
      </trkpt>
      <trkpt lat="44.27734" lon="0.88107">
        <ele>194.4</ele>
        <time>2016-05-16T10:49:59Z</time>
      </trkpt>
      <trkpt lat="44.27736" lon="0.88113">
        <ele>194.4</ele>
        <time>2016-05-16T10:50:48Z</time>
      </trkpt>
      <trkpt lat="44.27738" lon="0.88118">
        <ele>194.8</ele>
        <time>2016-05-16T10:50:50Z</time>
      </trkpt>
      <trkpt lat="44.2774" lon="0.88121">
        <ele>195</ele>
        <time>2016-05-16T10:50:51Z</time>
      </trkpt>
      <trkpt lat="44.27746" lon="0.88126">
        <ele>195.4</ele>
        <time>2016-05-16T10:50:54Z</time>
      </trkpt>
      <trkpt lat="44.27748" lon="0.88126">
        <ele>195.6</ele>
        <time>2016-05-16T10:50:55Z</time>
      </trkpt>
      <trkpt lat="44.27755" lon="0.8813">
        <ele>195.6</ele>
        <time>2016-05-16T10:50:58Z</time>
      </trkpt>
      <trkpt lat="44.27755" lon="0.88132">
        <ele>195.8</ele>
        <time>2016-05-16T10:50:59Z</time>
      </trkpt>
      <trkpt lat="44.27754" lon="0.8814">
        <ele>196.2</ele>
        <time>2016-05-16T10:51:02Z</time>
      </trkpt>
      <trkpt lat="44.27753" lon="0.88145">
        <ele>196.4</ele>
        <time>2016-05-16T10:51:04Z</time>
      </trkpt>
      <trkpt lat="44.27754" lon="0.88149">
        <ele>196.6</ele>
        <time>2016-05-16T10:51:06Z</time>
      </trkpt>
      <trkpt lat="44.27752" lon="0.88149">
        <ele>196.4</ele>
        <time>2016-05-16T10:51:09Z</time>
      </trkpt>
      <trkpt lat="44.27756" lon="0.88141">
        <ele>196.2</ele>
        <time>2016-05-16T10:51:15Z</time>
      </trkpt>
      <trkpt lat="44.27762" lon="0.88126">
        <ele>195.6</ele>
        <time>2016-05-16T10:51:20Z</time>
      </trkpt>
      <trkpt lat="44.27771" lon="0.88111">
        <ele>195</ele>
        <time>2016-05-16T10:51:24Z</time>
      </trkpt>
      <trkpt lat="44.27782" lon="0.88101">
        <ele>194.6</ele>
        <time>2016-05-16T10:51:29Z</time>
      </trkpt>
      <trkpt lat="44.27782" lon="0.88102">
        <ele>194.4</ele>
        <time>2016-05-16T10:51:31Z</time>
      </trkpt>
      <trkpt lat="44.27781" lon="0.88103">
        <ele>194.4</ele>
        <time>2016-05-16T10:51:33Z</time>
      </trkpt>
      <trkpt lat="44.27783" lon="0.88102">
        <ele>194.4</ele>
        <time>2016-05-16T10:51:40Z</time>
      </trkpt>
      <trkpt lat="44.27781" lon="0.88103">
        <ele>194.4</ele>
        <time>2016-05-16T10:51:43Z</time>
      </trkpt>
      <trkpt lat="44.27777" lon="0.88101">
        <ele>194.6</ele>
        <time>2016-05-16T10:51:45Z</time>
      </trkpt>
      <trkpt lat="44.27773" lon="0.88097">
        <ele>194.4</ele>
        <time>2016-05-16T10:51:47Z</time>
      </trkpt>
      <trkpt lat="44.27759" lon="0.88091">
        <ele>194.4</ele>
        <time>2016-05-16T10:51:53Z</time>
      </trkpt>
      <trkpt lat="44.27751" lon="0.88094">
        <ele>194.2</ele>
        <time>2016-05-16T10:51:58Z</time>
      </trkpt>
      <trkpt lat="44.27749" lon="0.88095">
        <ele>194.2</ele>
        <time>2016-05-16T10:52:02Z</time>
      </trkpt>
      <trkpt lat="44.27749" lon="0.88095">
        <ele>194.2</ele>
        <time>2016-05-16T10:52:04Z</time>
      </trkpt>
      <trkpt lat="44.27749" lon="0.88094">
        <ele>194.2</ele>
        <time>2016-05-16T10:52:11Z</time>
      </trkpt>
      <trkpt lat="44.27748" lon="0.88126">
        <ele>110.2</ele>
        <time>2016-05-16T13:02:03Z</time>
      </trkpt>
      <trkpt lat="44.27743" lon="0.88128">
        <ele>111.2</ele>
        <time>2016-05-16T13:04:10Z</time>
      </trkpt>
      <trkpt lat="44.27741" lon="0.88128">
        <ele>111</ele>
        <time>2016-05-16T13:04:15Z</time>
      </trkpt>
      <trkpt lat="44.2774" lon="0.88128">
        <ele>111.2</ele>
        <time>2016-05-16T13:04:17Z</time>
      </trkpt>
      <trkpt lat="44.27739" lon="0.88122">
        <ele>111.2</ele>
        <time>2016-05-16T13:04:37Z</time>
      </trkpt>
      <trkpt lat="44.27737" lon="0.88122">
        <ele>111.4</ele>
        <time>2016-05-16T13:04:40Z</time>
      </trkpt>
      <trkpt lat="44.2773" lon="0.88126">
        <ele>111.6</ele>
        <time>2016-05-16T13:04:45Z</time>
      </trkpt>
      <trkpt lat="44.27725" lon="0.88129">
        <ele>111.6</ele>
        <time>2016-05-16T13:04:47Z</time>
      </trkpt>
      <trkpt lat="44.27695" lon="0.88144">
        <ele>111.2</ele>
        <time>2016-05-16T13:04:55Z</time>
      </trkpt>
      <trkpt lat="44.27689" lon="0.88141">
        <ele>111</ele>
        <time>2016-05-16T13:04:57Z</time>
      </trkpt>
      <trkpt lat="44.27686" lon="0.88136">
        <ele>111</ele>
        <time>2016-05-16T13:04:58Z</time>
      </trkpt>
      <trkpt lat="44.27683" lon="0.88133">
        <ele>110.6</ele>
        <time>2016-05-16T13:05:00Z</time>
      </trkpt>
      <trkpt lat="44.27682" lon="0.88133">
        <ele>110</ele>
        <time>2016-05-16T13:05:01Z</time>
      </trkpt>
      <trkpt lat="44.27681" lon="0.88134">
        <ele>110</ele>
        <time>2016-05-16T13:05:02Z</time>
      </trkpt>
      <trkpt lat="44.27679" lon="0.88137">
        <ele>109</ele>
        <time>2016-05-16T13:05:04Z</time>
      </trkpt>
      <trkpt lat="44.27677" lon="0.8814">
        <ele>108.8</ele>
        <time>2016-05-16T13:05:05Z</time>
      </trkpt>
      <trkpt lat="44.2767" lon="0.88145">
        <ele>108.4</ele>
        <time>2016-05-16T13:05:07Z</time>
      </trkpt>
      <trkpt lat="44.2766" lon="0.88154">
        <ele>107.6</ele>
        <time>2016-05-16T13:05:10Z</time>
      </trkpt>
      <trkpt lat="44.27655" lon="0.88157">
        <ele>107.4</ele>
        <time>2016-05-16T13:05:11Z</time>
      </trkpt>
      <trkpt lat="44.27636" lon="0.8817">
        <ele>106.6</ele>
        <time>2016-05-16T13:05:14Z</time>
      </trkpt>
      <trkpt lat="44.27632" lon="0.8817">
        <ele>106.2</ele>
        <time>2016-05-16T13:05:15Z</time>
      </trkpt>
      <trkpt lat="44.2763" lon="0.88169">
        <ele>105.4</ele>
        <time>2016-05-16T13:05:18Z</time>
      </trkpt>
      <trkpt lat="44.27617" lon="0.88158">
        <ele>105.4</ele>
        <time>2016-05-16T13:06:03Z</time>
      </trkpt>
      <trkpt lat="44.27612" lon="0.88158">
        <ele>105.4</ele>
        <time>2016-05-16T13:06:05Z</time>
      </trkpt>
      <trkpt lat="44.276" lon="0.88157">
        <ele>104.4</ele>
        <time>2016-05-16T13:06:09Z</time>
      </trkpt>
      <trkpt lat="44.27591" lon="0.88158">
        <ele>104</ele>
        <time>2016-05-16T13:06:12Z</time>
      </trkpt>
      <trkpt lat="44.27583" lon="0.88159">
        <ele>103.2</ele>
        <time>2016-05-16T13:06:14Z</time>
      </trkpt>
      <trkpt lat="44.27571" lon="0.88159">
        <ele>102</ele>
        <time>2016-05-16T13:06:16Z</time>
      </trkpt>
      <trkpt lat="44.27551" lon="0.88159">
        <ele>100.8</ele>
        <time>2016-05-16T13:06:19Z</time>
      </trkpt>
      <trkpt lat="44.27535" lon="0.88159">
        <ele>99.6</ele>
        <time>2016-05-16T13:06:21Z</time>
      </trkpt>
      <trkpt lat="44.27512" lon="0.88157">
        <ele>98.2</ele>
        <time>2016-05-16T13:06:24Z</time>
      </trkpt>
      <trkpt lat="44.27497" lon="0.88155">
        <ele>97</ele>
        <time>2016-05-16T13:06:26Z</time>
      </trkpt>
      <trkpt lat="44.27489" lon="0.88153">
        <ele>96.6</ele>
        <time>2016-05-16T13:06:27Z</time>
      </trkpt>
      <trkpt lat="44.27482" lon="0.8815">
        <ele>96</ele>
        <time>2016-05-16T13:06:28Z</time>
      </trkpt>
      <trkpt lat="44.27468" lon="0.8814">
        <ele>94.4</ele>
        <time>2016-05-16T13:06:30Z</time>
      </trkpt>
      <trkpt lat="44.27461" lon="0.88124">
        <ele>93.4</ele>
        <time>2016-05-16T13:06:32Z</time>
      </trkpt>
      <trkpt lat="44.2746" lon="0.88113">
        <ele>93</ele>
        <time>2016-05-16T13:06:33Z</time>
      </trkpt>
      <trkpt lat="44.27459" lon="0.88093">
        <ele>91.8</ele>
        <time>2016-05-16T13:06:35Z</time>
      </trkpt>
      <trkpt lat="44.27461" lon="0.88082">
        <ele>91</ele>
        <time>2016-05-16T13:06:36Z</time>
      </trkpt>
      <trkpt lat="44.27463" lon="0.88071">
        <ele>90.8</ele>
        <time>2016-05-16T13:06:37Z</time>
      </trkpt>
      <trkpt lat="44.27471" lon="0.88048">
        <ele>89.4</ele>
        <time>2016-05-16T13:06:39Z</time>
      </trkpt>
      <trkpt lat="44.27475" lon="0.88036">
        <ele>88.4</ele>
        <time>2016-05-16T13:06:40Z</time>
      </trkpt>
      <trkpt lat="44.27487" lon="0.88011">
        <ele>87.2</ele>
        <time>2016-05-16T13:06:42Z</time>
      </trkpt>
      <trkpt lat="44.27506" lon="0.87974">
        <ele>85.4</ele>
        <time>2016-05-16T13:06:45Z</time>
      </trkpt>
      <trkpt lat="44.27512" lon="0.87961">
        <ele>84</ele>
        <time>2016-05-16T13:06:46Z</time>
      </trkpt>
      <trkpt lat="44.2753" lon="0.87921">
        <ele>82.6</ele>
        <time>2016-05-16T13:06:49Z</time>
      </trkpt>
      <trkpt lat="44.2755" lon="0.87883">
        <ele>81</ele>
        <time>2016-05-16T13:06:52Z</time>
      </trkpt>
      <trkpt lat="44.27562" lon="0.87857">
        <ele>79.4</ele>
        <time>2016-05-16T13:06:54Z</time>
      </trkpt>
      <trkpt lat="44.27567" lon="0.87844">
        <ele>79</ele>
        <time>2016-05-16T13:06:55Z</time>
      </trkpt>
      <trkpt lat="44.2757" lon="0.87831">
        <ele>78</ele>
        <time>2016-05-16T13:06:56Z</time>
      </trkpt>
      <trkpt lat="44.27573" lon="0.87805">
        <ele>76</ele>
        <time>2016-05-16T13:06:58Z</time>
      </trkpt>
      <trkpt lat="44.27571" lon="0.87793">
        <ele>75.6</ele>
        <time>2016-05-16T13:06:59Z</time>
      </trkpt>
      <trkpt lat="44.27567" lon="0.87782">
        <ele>74.8</ele>
        <time>2016-05-16T13:07:00Z</time>
      </trkpt>
      <trkpt lat="44.27562" lon="0.87771">
        <ele>74.4</ele>
        <time>2016-05-16T13:07:01Z</time>
      </trkpt>
      <trkpt lat="44.27556" lon="0.87761">
        <ele>73.4</ele>
        <time>2016-05-16T13:07:02Z</time>
      </trkpt>
      <trkpt lat="44.27542" lon="0.87741">
        <ele>71.8</ele>
        <time>2016-05-16T13:07:04Z</time>
      </trkpt>
      <trkpt lat="44.27527" lon="0.87722">
        <ele>70.8</ele>
        <time>2016-05-16T13:07:06Z</time>
      </trkpt>
      <trkpt lat="44.2751" lon="0.87704">
        <ele>69</ele>
        <time>2016-05-16T13:07:08Z</time>
      </trkpt>
      <trkpt lat="44.2749" lon="0.87688">
        <ele>67.2</ele>
        <time>2016-05-16T13:07:10Z</time>
      </trkpt>
      <trkpt lat="44.2747" lon="0.87675">
        <ele>65.4</ele>
        <time>2016-05-16T13:07:12Z</time>
      </trkpt>
      <trkpt lat="44.2746" lon="0.87668">
        <ele>64.6</ele>
        <time>2016-05-16T13:07:13Z</time>
      </trkpt>
      <trkpt lat="44.27452" lon="0.87658">
        <ele>63.6</ele>
        <time>2016-05-16T13:07:14Z</time>
      </trkpt>
      <trkpt lat="44.2744" lon="0.87633">
        <ele>61.8</ele>
        <time>2016-05-16T13:07:16Z</time>
      </trkpt>
      <trkpt lat="44.27436" lon="0.87618">
        <ele>61</ele>
        <time>2016-05-16T13:07:17Z</time>
      </trkpt>
      <trkpt lat="44.27434" lon="0.87602">
        <ele>60.4</ele>
        <time>2016-05-16T13:07:18Z</time>
      </trkpt>
      <trkpt lat="44.27432" lon="0.87586">
        <ele>59.6</ele>
        <time>2016-05-16T13:07:19Z</time>
      </trkpt>
      <trkpt lat="44.27431" lon="0.8757">
        <ele>59.2</ele>
        <time>2016-05-16T13:07:20Z</time>
      </trkpt>
      <trkpt lat="44.27429" lon="0.87553">
        <ele>58</ele>
        <time>2016-05-16T13:07:21Z</time>
      </trkpt>
      <trkpt lat="44.27428" lon="0.87521">
        <ele>56</ele>
        <time>2016-05-16T13:07:23Z</time>
      </trkpt>
      <trkpt lat="44.27429" lon="0.8749">
        <ele>53.6</ele>
        <time>2016-05-16T13:07:25Z</time>
      </trkpt>
      <trkpt lat="44.27433" lon="0.87462">
        <ele>52.6</ele>
        <time>2016-05-16T13:07:27Z</time>
      </trkpt>
      <trkpt lat="44.27441" lon="0.87439">
        <ele>52.2</ele>
        <time>2016-05-16T13:07:29Z</time>
      </trkpt>
      <trkpt lat="44.27448" lon="0.87431">
        <ele>51.4</ele>
        <time>2016-05-16T13:07:30Z</time>
      </trkpt>
      <trkpt lat="44.27458" lon="0.87422">
        <ele>50.8</ele>
        <time>2016-05-16T13:07:31Z</time>
      </trkpt>
      <trkpt lat="44.27467" lon="0.87414">
        <ele>50.4</ele>
        <time>2016-05-16T13:07:32Z</time>
      </trkpt>
      <trkpt lat="44.27478" lon="0.87405">
        <ele>49.6</ele>
        <time>2016-05-16T13:07:33Z</time>
      </trkpt>
      <trkpt lat="44.27489" lon="0.87396">
        <ele>48.4</ele>
        <time>2016-05-16T13:07:34Z</time>
      </trkpt>
      <trkpt lat="44.27511" lon="0.87378">
        <ele>46.8</ele>
        <time>2016-05-16T13:07:36Z</time>
      </trkpt>
      <trkpt lat="44.27522" lon="0.87369">
        <ele>46.2</ele>
        <time>2016-05-16T13:07:37Z</time>
      </trkpt>
      <trkpt lat="44.27532" lon="0.8736">
        <ele>45</ele>
        <time>2016-05-16T13:07:38Z</time>
      </trkpt>
      <trkpt lat="44.27556" lon="0.87343">
        <ele>43.4</ele>
        <time>2016-05-16T13:07:40Z</time>
      </trkpt>
      <trkpt lat="44.27564" lon="0.87334">
        <ele>42.6</ele>
        <time>2016-05-16T13:07:41Z</time>
      </trkpt>
      <trkpt lat="44.2757" lon="0.87324">
        <ele>41.6</ele>
        <time>2016-05-16T13:07:42Z</time>
      </trkpt>
      <trkpt lat="44.27576" lon="0.87301">
        <ele>40.2</ele>
        <time>2016-05-16T13:07:44Z</time>
      </trkpt>
      <trkpt lat="44.27575" lon="0.87289">
        <ele>39.6</ele>
        <time>2016-05-16T13:07:45Z</time>
      </trkpt>
      <trkpt lat="44.27572" lon="0.87276">
        <ele>38.6</ele>
        <time>2016-05-16T13:07:46Z</time>
      </trkpt>
      <trkpt lat="44.27569" lon="0.87263">
        <ele>38.4</ele>
        <time>2016-05-16T13:07:47Z</time>
      </trkpt>
      <trkpt lat="44.27566" lon="0.87252">
        <ele>37.2</ele>
        <time>2016-05-16T13:07:48Z</time>
      </trkpt>
      <trkpt lat="44.27566" lon="0.8724">
        <ele>37</ele>
        <time>2016-05-16T13:07:49Z</time>
      </trkpt>
      <trkpt lat="44.27568" lon="0.87228">
        <ele>35.8</ele>
        <time>2016-05-16T13:07:50Z</time>
      </trkpt>
      <trkpt lat="44.27576" lon="0.87207">
        <ele>34.4</ele>
        <time>2016-05-16T13:07:52Z</time>
      </trkpt>
      <trkpt lat="44.276" lon="0.87185">
        <ele>33.4</ele>
        <time>2016-05-16T13:07:55Z</time>
      </trkpt>
      <trkpt lat="44.2761" lon="0.87178">
        <ele>32.4</ele>
        <time>2016-05-16T13:07:56Z</time>
      </trkpt>
      <trkpt lat="44.27628" lon="0.87164">
        <ele>31.4</ele>
        <time>2016-05-16T13:07:58Z</time>
      </trkpt>
      <trkpt lat="44.27655" lon="0.87142">
        <ele>30.4</ele>
        <time>2016-05-16T13:08:01Z</time>
      </trkpt>
      <trkpt lat="44.27664" lon="0.87135">
        <ele>29.8</ele>
        <time>2016-05-16T13:08:02Z</time>
      </trkpt>
      <trkpt lat="44.2769" lon="0.87115">
        <ele>28</ele>
        <time>2016-05-16T13:08:05Z</time>
      </trkpt>
      <trkpt lat="44.27709" lon="0.87103">
        <ele>26.4</ele>
        <time>2016-05-16T13:08:07Z</time>
      </trkpt>
      <trkpt lat="44.27718" lon="0.87097">
        <ele>26</ele>
        <time>2016-05-16T13:08:08Z</time>
      </trkpt>
      <trkpt lat="44.27736" lon="0.87087">
        <ele>25</ele>
        <time>2016-05-16T13:08:10Z</time>
      </trkpt>
      <trkpt lat="44.27754" lon="0.87077">
        <ele>23.8</ele>
        <time>2016-05-16T13:08:12Z</time>
      </trkpt>
      <trkpt lat="44.27771" lon="0.87063">
        <ele>23.2</ele>
        <time>2016-05-16T13:08:14Z</time>
      </trkpt>
      <trkpt lat="44.27779" lon="0.87055">
        <ele>22</ele>
        <time>2016-05-16T13:08:15Z</time>
      </trkpt>
      <trkpt lat="44.27791" lon="0.87034">
        <ele>20.4</ele>
        <time>2016-05-16T13:08:17Z</time>
      </trkpt>
      <trkpt lat="44.27797" lon="0.87023">
        <ele>20.4</ele>
        <time>2016-05-16T13:08:18Z</time>
      </trkpt>
      <trkpt lat="44.27801" lon="0.8701">
        <ele>19.4</ele>
        <time>2016-05-16T13:08:19Z</time>
      </trkpt>
      <trkpt lat="44.2781" lon="0.86985">
        <ele>17.8</ele>
        <time>2016-05-16T13:08:21Z</time>
      </trkpt>
      <trkpt lat="44.27814" lon="0.86973">
        <ele>18.2</ele>
        <time>2016-05-16T13:08:22Z</time>
      </trkpt>
      <trkpt lat="44.2782" lon="0.86946">
        <ele>16.4</ele>
        <time>2016-05-16T13:08:24Z</time>
      </trkpt>
      <trkpt lat="44.27825" lon="0.86919">
        <ele>15</ele>
        <time>2016-05-16T13:08:26Z</time>
      </trkpt>
      <trkpt lat="44.27828" lon="0.86892">
        <ele>13.8</ele>
        <time>2016-05-16T13:08:28Z</time>
      </trkpt>
      <trkpt lat="44.27831" lon="0.86864">
        <ele>13.2</ele>
        <time>2016-05-16T13:08:30Z</time>
      </trkpt>
      <trkpt lat="44.27834" lon="0.8685">
        <ele>12.2</ele>
        <time>2016-05-16T13:08:31Z</time>
      </trkpt>
      <trkpt lat="44.27839" lon="0.86823">
        <ele>10.8</ele>
        <time>2016-05-16T13:08:33Z</time>
      </trkpt>
      <trkpt lat="44.27846" lon="0.86796">
        <ele>9.4</ele>
        <time>2016-05-16T13:08:35Z</time>
      </trkpt>
      <trkpt lat="44.2785" lon="0.86783">
        <ele>8</ele>
        <time>2016-05-16T13:08:36Z</time>
      </trkpt>
      <trkpt lat="44.27859" lon="0.86756">
        <ele>6.4</ele>
        <time>2016-05-16T13:08:38Z</time>
      </trkpt>
      <trkpt lat="44.27868" lon="0.86729">
        <ele>4.8</ele>
        <time>2016-05-16T13:08:40Z</time>
      </trkpt>
      <trkpt lat="44.27882" lon="0.86689">
        <ele>2.2</ele>
        <time>2016-05-16T13:08:43Z</time>
      </trkpt>
      <trkpt lat="44.27891" lon="0.86664">
        <ele>0.6</ele>
        <time>2016-05-16T13:08:45Z</time>
      </trkpt>
      <trkpt lat="44.27903" lon="0.86629">
        <ele>-0.6</ele>
        <time>2016-05-16T13:08:48Z</time>
      </trkpt>
      <trkpt lat="44.27905" lon="0.86617">
        <ele>-1.2</ele>
        <time>2016-05-16T13:08:49Z</time>
      </trkpt>
      <trkpt lat="44.27906" lon="0.86605">
        <ele>-1.8</ele>
        <time>2016-05-16T13:08:50Z</time>
      </trkpt>
      <trkpt lat="44.27905" lon="0.86581">
        <ele>-3</ele>
        <time>2016-05-16T13:08:52Z</time>
      </trkpt>
      <trkpt lat="44.27904" lon="0.86569">
        <ele>-3.6</ele>
        <time>2016-05-16T13:08:53Z</time>
      </trkpt>
      <trkpt lat="44.27901" lon="0.86544">
        <ele>-4.4</ele>
        <time>2016-05-16T13:08:55Z</time>
      </trkpt>
      <trkpt lat="44.27896" lon="0.86521">
        <ele>-5.2</ele>
        <time>2016-05-16T13:08:57Z</time>
      </trkpt>
      <trkpt lat="44.27892" lon="0.86498">
        <ele>-5.6</ele>
        <time>2016-05-16T13:08:59Z</time>
      </trkpt>
      <trkpt lat="44.27882" lon="0.86445">
        <ele>-5.8</ele>
        <time>2016-05-16T13:09:04Z</time>
      </trkpt>
      <trkpt lat="44.27869" lon="0.86377">
        <ele>-6.8</ele>
        <time>2016-05-16T13:09:11Z</time>
      </trkpt>
      <trkpt lat="44.27867" lon="0.86367">
        <ele>-7</ele>
        <time>2016-05-16T13:09:12Z</time>
      </trkpt>
      <trkpt lat="44.27859" lon="0.86295">
        <ele>-7.2</ele>
        <time>2016-05-16T13:09:20Z</time>
      </trkpt>
      <trkpt lat="44.27856" lon="0.86221">
        <ele>-7.8</ele>
        <time>2016-05-16T13:09:28Z</time>
      </trkpt>
      <trkpt lat="44.27856" lon="0.86212">
        <ele>-7.6</ele>
        <time>2016-05-16T13:09:29Z</time>
      </trkpt>
      <trkpt lat="44.27855" lon="0.86132">
        <ele>-8.2</ele>
        <time>2016-05-16T13:09:38Z</time>
      </trkpt>
      <trkpt lat="44.27855" lon="0.86123">
        <ele>-8.2</ele>
        <time>2016-05-16T13:09:39Z</time>
      </trkpt>
      <trkpt lat="44.27853" lon="0.86042">
        <ele>-8.4</ele>
        <time>2016-05-16T13:09:49Z</time>
      </trkpt>
      <trkpt lat="44.27853" lon="0.86034">
        <ele>-8.2</ele>
        <time>2016-05-16T13:09:50Z</time>
      </trkpt>
      <trkpt lat="44.27851" lon="0.85953">
        <ele>-7.8</ele>
        <time>2016-05-16T13:10:01Z</time>
      </trkpt>
      <trkpt lat="44.27851" lon="0.85946">
        <ele>-7.6</ele>
        <time>2016-05-16T13:10:02Z</time>
      </trkpt>
      <trkpt lat="44.2785" lon="0.85901">
        <ele>-7</ele>
        <time>2016-05-16T13:10:09Z</time>
      </trkpt>
      <trkpt lat="44.2785" lon="0.85895">
        <ele>-6.8</ele>
        <time>2016-05-16T13:10:10Z</time>
      </trkpt>
      <trkpt lat="44.27848" lon="0.85845">
        <ele>-7.6</ele>
        <time>2016-05-16T13:10:17Z</time>
      </trkpt>
      <trkpt lat="44.27848" lon="0.85829">
        <ele>-7.8</ele>
        <time>2016-05-16T13:10:19Z</time>
      </trkpt>
      <trkpt lat="44.27847" lon="0.85811">
        <ele>-8.4</ele>
        <time>2016-05-16T13:10:21Z</time>
      </trkpt>
      <trkpt lat="44.27846" lon="0.85784">
        <ele>-8.8</ele>
        <time>2016-05-16T13:10:24Z</time>
      </trkpt>
      <trkpt lat="44.27846" lon="0.85775">
        <ele>-9</ele>
        <time>2016-05-16T13:10:25Z</time>
      </trkpt>
      <trkpt lat="44.27844" lon="0.85701">
        <ele>-9.6</ele>
        <time>2016-05-16T13:10:34Z</time>
      </trkpt>
      <trkpt lat="44.27844" lon="0.85693">
        <ele>-9.2</ele>
        <time>2016-05-16T13:10:35Z</time>
      </trkpt>
      <trkpt lat="44.27842" lon="0.85638">
        <ele>-10</ele>
        <time>2016-05-16T13:10:42Z</time>
      </trkpt>
      <trkpt lat="44.27842" lon="0.85623">
        <ele>-9.6</ele>
        <time>2016-05-16T13:10:44Z</time>
      </trkpt>
      <trkpt lat="44.27842" lon="0.85608">
        <ele>-11.6</ele>
        <time>2016-05-16T13:10:46Z</time>
      </trkpt>
      <trkpt lat="44.27841" lon="0.85586">
        <ele>-9.4</ele>
        <time>2016-05-16T13:10:49Z</time>
      </trkpt>
      <trkpt lat="44.2784" lon="0.8555">
        <ele>-9.6</ele>
        <time>2016-05-16T13:10:54Z</time>
      </trkpt>
      <trkpt lat="44.27839" lon="0.85484">
        <ele>-9.4</ele>
        <time>2016-05-16T13:11:03Z</time>
      </trkpt>
      <trkpt lat="44.27838" lon="0.85463">
        <ele>-9.8</ele>
        <time>2016-05-16T13:11:06Z</time>
      </trkpt>
      <trkpt lat="44.27838" lon="0.85444">
        <ele>-9.8</ele>
        <time>2016-05-16T13:11:09Z</time>
      </trkpt>
      <trkpt lat="44.27834" lon="0.85392">
        <ele>-9.4</ele>
        <time>2016-05-16T13:11:18Z</time>
      </trkpt>
      <trkpt lat="44.27826" lon="0.85346">
        <ele>-8.6</ele>
        <time>2016-05-16T13:11:27Z</time>
      </trkpt>
      <trkpt lat="44.27825" lon="0.85341">
        <ele>-8.2</ele>
        <time>2016-05-16T13:11:28Z</time>
      </trkpt>
      <trkpt lat="44.27818" lon="0.85312">
        <ele>-7.8</ele>
        <time>2016-05-16T13:11:34Z</time>
      </trkpt>
      <trkpt lat="44.27811" lon="0.85282">
        <ele>-7.2</ele>
        <time>2016-05-16T13:11:40Z</time>
      </trkpt>
      <trkpt lat="44.27809" lon="0.85272">
        <ele>-7</ele>
        <time>2016-05-16T13:11:42Z</time>
      </trkpt>
      <trkpt lat="44.27799" lon="0.85227">
        <ele>-6.4</ele>
        <time>2016-05-16T13:11:52Z</time>
      </trkpt>
      <trkpt lat="44.27796" lon="0.85213">
        <ele>-6.2</ele>
        <time>2016-05-16T13:11:55Z</time>
      </trkpt>
      <trkpt lat="44.27789" lon="0.85183">
        <ele>-5.6</ele>
        <time>2016-05-16T13:12:02Z</time>
      </trkpt>
      <trkpt lat="44.27786" lon="0.85163">
        <ele>-5.2</ele>
        <time>2016-05-16T13:12:08Z</time>
      </trkpt>
      <trkpt lat="44.27785" lon="0.85159">
        <ele>-4.8</ele>
        <time>2016-05-16T13:12:10Z</time>
      </trkpt>
      <trkpt lat="44.27785" lon="0.8516">
        <ele>-5</ele>
        <time>2016-05-16T13:12:13Z</time>
      </trkpt>
      <trkpt lat="44.27782" lon="0.85149">
        <ele>-4.8</ele>
        <time>2016-05-16T13:13:42Z</time>
      </trkpt>
      <trkpt lat="44.27779" lon="0.8514">
        <ele>-4.8</ele>
        <time>2016-05-16T13:13:44Z</time>
      </trkpt>
      <trkpt lat="44.27772" lon="0.85109">
        <ele>-4.2</ele>
        <time>2016-05-16T13:13:50Z</time>
      </trkpt>
      <trkpt lat="44.27763" lon="0.85072">
        <ele>-4.2</ele>
        <time>2016-05-16T13:13:57Z</time>
      </trkpt>
      <trkpt lat="44.27755" lon="0.85036">
        <ele>-3.2</ele>
        <time>2016-05-16T13:14:04Z</time>
      </trkpt>
      <trkpt lat="44.27754" lon="0.85031">
        <ele>-3</ele>
        <time>2016-05-16T13:14:05Z</time>
      </trkpt>
      <trkpt lat="44.27749" lon="0.8501">
        <ele>-2</ele>
        <time>2016-05-16T13:14:09Z</time>
      </trkpt>
      <trkpt lat="44.27747" lon="0.85">
        <ele>-1.8</ele>
        <time>2016-05-16T13:14:11Z</time>
      </trkpt>
      <trkpt lat="44.27744" lon="0.84985">
        <ele>-0.8</ele>
        <time>2016-05-16T13:14:14Z</time>
      </trkpt>
      <trkpt lat="44.2774" lon="0.84968">
        <ele>0.2</ele>
        <time>2016-05-16T13:14:18Z</time>
      </trkpt>
      <trkpt lat="44.27739" lon="0.84965">
        <ele>0.4</ele>
        <time>2016-05-16T13:14:19Z</time>
      </trkpt>
      <trkpt lat="44.27735" lon="0.84951">
        <ele>1.2</ele>
        <time>2016-05-16T13:14:23Z</time>
      </trkpt>
      <trkpt lat="44.27733" lon="0.84938">
        <ele>2</ele>
        <time>2016-05-16T13:14:27Z</time>
      </trkpt>
      <trkpt lat="44.27732" lon="0.84935">
        <ele>2.4</ele>
        <time>2016-05-16T13:14:28Z</time>
      </trkpt>
      <trkpt lat="44.27727" lon="0.84913">
        <ele>3.6</ele>
        <time>2016-05-16T13:14:35Z</time>
      </trkpt>
      <trkpt lat="44.27726" lon="0.8491">
        <ele>3.8</ele>
        <time>2016-05-16T13:14:36Z</time>
      </trkpt>
      <trkpt lat="44.27721" lon="0.84894">
        <ele>4.8</ele>
        <time>2016-05-16T13:14:41Z</time>
      </trkpt>
      <trkpt lat="44.27719" lon="0.84888">
        <ele>5.4</ele>
        <time>2016-05-16T13:14:43Z</time>
      </trkpt>
      <trkpt lat="44.27713" lon="0.8488">
        <ele>5.8</ele>
        <time>2016-05-16T13:14:46Z</time>
      </trkpt>
      <trkpt lat="44.27708" lon="0.84874">
        <ele>6</ele>
        <time>2016-05-16T13:14:49Z</time>
      </trkpt>
      <trkpt lat="44.27695" lon="0.84858">
        <ele>5.4</ele>
        <time>2016-05-16T13:14:54Z</time>
      </trkpt>
      <trkpt lat="44.27678" lon="0.84842">
        <ele>4.4</ele>
        <time>2016-05-16T13:14:58Z</time>
      </trkpt>
      <trkpt lat="44.27668" lon="0.84834">
        <ele>4</ele>
        <time>2016-05-16T13:15:00Z</time>
      </trkpt>
      <trkpt lat="44.27652" lon="0.84818">
        <ele>3.4</ele>
        <time>2016-05-16T13:15:03Z</time>
      </trkpt>
      <trkpt lat="44.2764" lon="0.84807">
        <ele>2.8</ele>
        <time>2016-05-16T13:15:05Z</time>
      </trkpt>
      <trkpt lat="44.27634" lon="0.848">
        <ele>2</ele>
        <time>2016-05-16T13:15:06Z</time>
      </trkpt>
      <trkpt lat="44.27614" lon="0.84781">
        <ele>0.4</ele>
        <time>2016-05-16T13:15:09Z</time>
      </trkpt>
      <trkpt lat="44.27599" lon="0.84771">
        <ele>0.2</ele>
        <time>2016-05-16T13:15:11Z</time>
      </trkpt>
      <trkpt lat="44.27583" lon="0.84763">
        <ele>-1</ele>
        <time>2016-05-16T13:15:13Z</time>
      </trkpt>
      <trkpt lat="44.27566" lon="0.84759">
        <ele>-1.8</ele>
        <time>2016-05-16T13:15:15Z</time>
      </trkpt>
      <trkpt lat="44.27557" lon="0.84757">
        <ele>-2.2</ele>
        <time>2016-05-16T13:15:16Z</time>
      </trkpt>
      <trkpt lat="44.27531" lon="0.8475">
        <ele>-3.4</ele>
        <time>2016-05-16T13:15:19Z</time>
      </trkpt>
      <trkpt lat="44.27515" lon="0.84742">
        <ele>-3.4</ele>
        <time>2016-05-16T13:15:21Z</time>
      </trkpt>
      <trkpt lat="44.27488" lon="0.84712">
        <ele>-4</ele>
        <time>2016-05-16T13:15:25Z</time>
      </trkpt>
      <trkpt lat="44.27477" lon="0.84693">
        <ele>-4.4</ele>
        <time>2016-05-16T13:15:27Z</time>
      </trkpt>
      <trkpt lat="44.27463" lon="0.84663">
        <ele>-5.4</ele>
        <time>2016-05-16T13:15:30Z</time>
      </trkpt>
      <trkpt lat="44.27459" lon="0.84652">
        <ele>-5.2</ele>
        <time>2016-05-16T13:15:31Z</time>
      </trkpt>
      <trkpt lat="44.2745" lon="0.8462">
        <ele>-5.4</ele>
        <time>2016-05-16T13:15:34Z</time>
      </trkpt>
      <trkpt lat="44.27434" lon="0.84559">
        <ele>-6.4</ele>
        <time>2016-05-16T13:15:40Z</time>
      </trkpt>
      <trkpt lat="44.27428" lon="0.8453">
        <ele>-6.6</ele>
        <time>2016-05-16T13:15:43Z</time>
      </trkpt>
      <trkpt lat="44.27427" lon="0.84521">
        <ele>-6.4</ele>
        <time>2016-05-16T13:15:44Z</time>
      </trkpt>
      <trkpt lat="44.27426" lon="0.84502">
        <ele>-6.4</ele>
        <time>2016-05-16T13:15:46Z</time>
      </trkpt>
      <trkpt lat="44.27428" lon="0.84484">
        <ele>-6.8</ele>
        <time>2016-05-16T13:15:48Z</time>
      </trkpt>
      <trkpt lat="44.27432" lon="0.84459">
        <ele>-6.8</ele>
        <time>2016-05-16T13:15:51Z</time>
      </trkpt>
      <trkpt lat="44.27441" lon="0.84408">
        <ele>-6.2</ele>
        <time>2016-05-16T13:15:58Z</time>
      </trkpt>
      <trkpt lat="44.27446" lon="0.84364">
        <ele>-5.6</ele>
        <time>2016-05-16T13:16:05Z</time>
      </trkpt>
      <trkpt lat="44.27446" lon="0.84357">
        <ele>-5.4</ele>
        <time>2016-05-16T13:16:06Z</time>
      </trkpt>
      <trkpt lat="44.27446" lon="0.84351">
        <ele>-5.2</ele>
        <time>2016-05-16T13:16:07Z</time>
      </trkpt>
      <trkpt lat="44.27441" lon="0.84327">
        <ele>-4.6</ele>
        <time>2016-05-16T13:16:11Z</time>
      </trkpt>
      <trkpt lat="44.2744" lon="0.84322">
        <ele>-4.4</ele>
        <time>2016-05-16T13:16:12Z</time>
      </trkpt>
      <trkpt lat="44.27429" lon="0.84294">
        <ele>-4</ele>
        <time>2016-05-16T13:16:17Z</time>
      </trkpt>
      <trkpt lat="44.27426" lon="0.84288">
        <ele>-2.6</ele>
        <time>2016-05-16T13:16:18Z</time>
      </trkpt>
      <trkpt lat="44.27418" lon="0.8427">
        <ele>-4.6</ele>
        <time>2016-05-16T13:16:21Z</time>
      </trkpt>
      <trkpt lat="44.27407" lon="0.84246">
        <ele>-4.4</ele>
        <time>2016-05-16T13:16:25Z</time>
      </trkpt>
      <trkpt lat="44.27382" lon="0.8419">
        <ele>-4.4</ele>
        <time>2016-05-16T13:16:34Z</time>
      </trkpt>
      <trkpt lat="44.27355" lon="0.84127">
        <ele>-3.8</ele>
        <time>2016-05-16T13:16:44Z</time>
      </trkpt>
      <trkpt lat="44.27352" lon="0.84122">
        <ele>-3.6</ele>
        <time>2016-05-16T13:16:45Z</time>
      </trkpt>
      <trkpt lat="44.27324" lon="0.84074">
        <ele>-3.2</ele>
        <time>2016-05-16T13:16:54Z</time>
      </trkpt>
      <trkpt lat="44.27303" lon="0.84049">
        <ele>-2.4</ele>
        <time>2016-05-16T13:17:00Z</time>
      </trkpt>
      <trkpt lat="44.27296" lon="0.84042">
        <ele>-2</ele>
        <time>2016-05-16T13:17:02Z</time>
      </trkpt>
      <trkpt lat="44.2728" lon="0.84022">
        <ele>-1.2</ele>
        <time>2016-05-16T13:17:07Z</time>
      </trkpt>
      <trkpt lat="44.27272" lon="0.8401">
        <ele>-0.8</ele>
        <time>2016-05-16T13:17:10Z</time>
      </trkpt>
      <trkpt lat="44.27263" lon="0.83993">
        <ele>-0.2</ele>
        <time>2016-05-16T13:17:14Z</time>
      </trkpt>
      <trkpt lat="44.27254" lon="0.83975">
        <ele>0.6</ele>
        <time>2016-05-16T13:17:18Z</time>
      </trkpt>
      <trkpt lat="44.27252" lon="0.83971">
        <ele>0.8</ele>
        <time>2016-05-16T13:17:19Z</time>
      </trkpt>
      <trkpt lat="44.27231" lon="0.83932">
        <ele>0.8</ele>
        <time>2016-05-16T13:17:27Z</time>
      </trkpt>
      <trkpt lat="44.27203" lon="0.83887">
        <ele>1.2</ele>
        <time>2016-05-16T13:17:36Z</time>
      </trkpt>
      <trkpt lat="44.27171" lon="0.83845">
        <ele>1</ele>
        <time>2016-05-16T13:17:45Z</time>
      </trkpt>
      <trkpt lat="44.27149" lon="0.83818">
        <ele>-0.4</ele>
        <time>2016-05-16T13:17:50Z</time>
      </trkpt>
      <trkpt lat="44.27139" lon="0.83807">
        <ele>-1</ele>
        <time>2016-05-16T13:17:52Z</time>
      </trkpt>
      <trkpt lat="44.27106" lon="0.8377">
        <ele>-2.2</ele>
        <time>2016-05-16T13:17:58Z</time>
      </trkpt>
      <trkpt lat="44.27101" lon="0.83763">
        <ele>-2.6</ele>
        <time>2016-05-16T13:17:59Z</time>
      </trkpt>
      <trkpt lat="44.27084" lon="0.83739">
        <ele>-3.2</ele>
        <time>2016-05-16T13:18:02Z</time>
      </trkpt>
      <trkpt lat="44.27074" lon="0.83721">
        <ele>-3.8</ele>
        <time>2016-05-16T13:18:04Z</time>
      </trkpt>
      <trkpt lat="44.2707" lon="0.83711">
        <ele>-4.2</ele>
        <time>2016-05-16T13:18:05Z</time>
      </trkpt>
      <trkpt lat="44.27059" lon="0.8368">
        <ele>-5.2</ele>
        <time>2016-05-16T13:18:08Z</time>
      </trkpt>
      <trkpt lat="44.27052" lon="0.83659">
        <ele>-5.6</ele>
        <time>2016-05-16T13:18:10Z</time>
      </trkpt>
      <trkpt lat="44.27041" lon="0.83617">
        <ele>-6.6</ele>
        <time>2016-05-16T13:18:14Z</time>
      </trkpt>
      <trkpt lat="44.27037" lon="0.83596">
        <ele>-7</ele>
        <time>2016-05-16T13:18:16Z</time>
      </trkpt>
      <trkpt lat="44.27034" lon="0.8355">
        <ele>-6.4</ele>
        <time>2016-05-16T13:18:21Z</time>
      </trkpt>
      <trkpt lat="44.27029" lon="0.83484">
        <ele>-6.6</ele>
        <time>2016-05-16T13:18:29Z</time>
      </trkpt>
      <trkpt lat="44.27021" lon="0.8343">
        <ele>-6.2</ele>
        <time>2016-05-16T13:18:36Z</time>
      </trkpt>
      <trkpt lat="44.27019" lon="0.83423">
        <ele>-5.8</ele>
        <time>2016-05-16T13:18:37Z</time>
      </trkpt>
      <trkpt lat="44.27012" lon="0.83404">
        <ele>-5.4</ele>
        <time>2016-05-16T13:18:40Z</time>
      </trkpt>
      <trkpt lat="44.27003" lon="0.83386">
        <ele>-4.8</ele>
        <time>2016-05-16T13:18:43Z</time>
      </trkpt>
      <trkpt lat="44.26984" lon="0.83351">
        <ele>-4.2</ele>
        <time>2016-05-16T13:18:49Z</time>
      </trkpt>
      <trkpt lat="44.26971" lon="0.83327">
        <ele>-4.4</ele>
        <time>2016-05-16T13:18:53Z</time>
      </trkpt>
      <trkpt lat="44.26935" lon="0.83262">
        <ele>-4.6</ele>
        <time>2016-05-16T13:19:03Z</time>
      </trkpt>
      <trkpt lat="44.26899" lon="0.83205">
        <ele>-4.8</ele>
        <time>2016-05-16T13:19:12Z</time>
      </trkpt>
      <trkpt lat="44.26867" lon="0.83167">
        <ele>-4.6</ele>
        <time>2016-05-16T13:19:19Z</time>
      </trkpt>
      <trkpt lat="44.26851" lon="0.83151">
        <ele>-5.4</ele>
        <time>2016-05-16T13:19:22Z</time>
      </trkpt>
      <trkpt lat="44.26826" lon="0.83131">
        <ele>-5.8</ele>
        <time>2016-05-16T13:19:26Z</time>
      </trkpt>
      <trkpt lat="44.2682" lon="0.83126">
        <ele>-6.6</ele>
        <time>2016-05-16T13:19:27Z</time>
      </trkpt>
      <trkpt lat="44.26793" lon="0.83104">
        <ele>-7.6</ele>
        <time>2016-05-16T13:19:31Z</time>
      </trkpt>
      <trkpt lat="44.26772" lon="0.83086">
        <ele>-8.6</ele>
        <time>2016-05-16T13:19:34Z</time>
      </trkpt>
      <trkpt lat="44.26766" lon="0.83079">
        <ele>-9.2</ele>
        <time>2016-05-16T13:19:35Z</time>
      </trkpt>
      <trkpt lat="44.26747" lon="0.83054">
        <ele>-10.4</ele>
        <time>2016-05-16T13:19:38Z</time>
      </trkpt>
      <trkpt lat="44.26741" lon="0.83045">
        <ele>-10.4</ele>
        <time>2016-05-16T13:19:39Z</time>
      </trkpt>
      <trkpt lat="44.26718" lon="0.83009">
        <ele>-11.6</ele>
        <time>2016-05-16T13:19:43Z</time>
      </trkpt>
      <trkpt lat="44.26699" lon="0.82985">
        <ele>-12.6</ele>
        <time>2016-05-16T13:19:46Z</time>
      </trkpt>
      <trkpt lat="44.26692" lon="0.82978">
        <ele>-12.6</ele>
        <time>2016-05-16T13:19:47Z</time>
      </trkpt>
      <trkpt lat="44.26654" lon="0.82947">
        <ele>-13.8</ele>
        <time>2016-05-16T13:19:52Z</time>
      </trkpt>
      <trkpt lat="44.26646" lon="0.82941">
        <ele>-14</ele>
        <time>2016-05-16T13:19:53Z</time>
      </trkpt>
      <trkpt lat="44.26614" lon="0.82906">
        <ele>-13.6</ele>
        <time>2016-05-16T13:19:58Z</time>
      </trkpt>
      <trkpt lat="44.26585" lon="0.82862">
        <ele>-13</ele>
        <time>2016-05-16T13:20:04Z</time>
      </trkpt>
      <trkpt lat="44.26546" lon="0.82799">
        <ele>-13.8</ele>
        <time>2016-05-16T13:20:13Z</time>
      </trkpt>
      <trkpt lat="44.26542" lon="0.82793">
        <ele>-13.8</ele>
        <time>2016-05-16T13:20:14Z</time>
      </trkpt>
      <trkpt lat="44.26506" lon="0.82738">
        <ele>-13.4</ele>
        <time>2016-05-16T13:20:23Z</time>
      </trkpt>
      <trkpt lat="44.26488" lon="0.8271">
        <ele>-12.8</ele>
        <time>2016-05-16T13:20:28Z</time>
      </trkpt>
      <trkpt lat="44.26466" lon="0.82675">
        <ele>-13.2</ele>
        <time>2016-05-16T13:20:34Z</time>
      </trkpt>
      <trkpt lat="44.26433" lon="0.82631">
        <ele>-13.2</ele>
        <time>2016-05-16T13:20:42Z</time>
      </trkpt>
      <trkpt lat="44.26393" lon="0.82598">
        <ele>-13.6</ele>
        <time>2016-05-16T13:20:50Z</time>
      </trkpt>
      <trkpt lat="44.26372" lon="0.82584">
        <ele>-13.2</ele>
        <time>2016-05-16T13:20:54Z</time>
      </trkpt>
      <trkpt lat="44.26355" lon="0.82579">
        <ele>-13.2</ele>
        <time>2016-05-16T13:20:57Z</time>
      </trkpt>
      <trkpt lat="44.2631" lon="0.82573">
        <ele>-13.6</ele>
        <time>2016-05-16T13:21:05Z</time>
      </trkpt>
      <trkpt lat="44.26275" lon="0.82571">
        <ele>-13.6</ele>
        <time>2016-05-16T13:21:11Z</time>
      </trkpt>
      <trkpt lat="44.26262" lon="0.8257">
        <ele>-14</ele>
        <time>2016-05-16T13:21:13Z</time>
      </trkpt>
      <trkpt lat="44.26249" lon="0.82568">
        <ele>-13.8</ele>
        <time>2016-05-16T13:21:15Z</time>
      </trkpt>
      <trkpt lat="44.26191" lon="0.82556">
        <ele>-14.4</ele>
        <time>2016-05-16T13:21:24Z</time>
      </trkpt>
      <trkpt lat="44.26141" lon="0.82529">
        <ele>-14.2</ele>
        <time>2016-05-16T13:21:32Z</time>
      </trkpt>
      <trkpt lat="44.26086" lon="0.825">
        <ele>-14.6</ele>
        <time>2016-05-16T13:21:41Z</time>
      </trkpt>
      <trkpt lat="44.26074" lon="0.82493">
        <ele>-14.4</ele>
        <time>2016-05-16T13:21:43Z</time>
      </trkpt>
      <trkpt lat="44.26032" lon="0.82476">
        <ele>-14</ele>
        <time>2016-05-16T13:21:50Z</time>
      </trkpt>
      <trkpt lat="44.25976" lon="0.82458">
        <ele>-14.4</ele>
        <time>2016-05-16T13:21:59Z</time>
      </trkpt>
      <trkpt lat="44.25943" lon="0.82444">
        <ele>-15</ele>
        <time>2016-05-16T13:22:04Z</time>
      </trkpt>
      <trkpt lat="44.25922" lon="0.82434">
        <ele>-15.6</ele>
        <time>2016-05-16T13:22:07Z</time>
      </trkpt>
      <trkpt lat="44.25894" lon="0.82421">
        <ele>-16.2</ele>
        <time>2016-05-16T13:22:11Z</time>
      </trkpt>
      <trkpt lat="44.25868" lon="0.8241">
        <ele>-16</ele>
        <time>2016-05-16T13:22:15Z</time>
      </trkpt>
      <trkpt lat="44.25819" lon="0.82384">
        <ele>-16</ele>
        <time>2016-05-16T13:22:23Z</time>
      </trkpt>
      <trkpt lat="44.25767" lon="0.82344">
        <ele>-16.6</ele>
        <time>2016-05-16T13:22:32Z</time>
      </trkpt>
      <trkpt lat="44.25761" lon="0.82339">
        <ele>-16.8</ele>
        <time>2016-05-16T13:22:33Z</time>
      </trkpt>
      <trkpt lat="44.25733" lon="0.82314">
        <ele>-17.4</ele>
        <time>2016-05-16T13:22:38Z</time>
      </trkpt>
      <trkpt lat="44.25718" lon="0.82297">
        <ele>-17.4</ele>
        <time>2016-05-16T13:22:41Z</time>
      </trkpt>
      <trkpt lat="44.25685" lon="0.82261">
        <ele>-17.2</ele>
        <time>2016-05-16T13:22:48Z</time>
      </trkpt>
      <trkpt lat="44.25645" lon="0.82228">
        <ele>-17.2</ele>
        <time>2016-05-16T13:22:56Z</time>
      </trkpt>
      <trkpt lat="44.25606" lon="0.8219">
        <ele>-17.4</ele>
        <time>2016-05-16T13:23:04Z</time>
      </trkpt>
      <trkpt lat="44.25572" lon="0.82142">
        <ele>-17.4</ele>
        <time>2016-05-16T13:23:12Z</time>
      </trkpt>
      <trkpt lat="44.25532" lon="0.82084">
        <ele>-17.4</ele>
        <time>2016-05-16T13:23:22Z</time>
      </trkpt>
      <trkpt lat="44.25494" lon="0.82029">
        <ele>-17.6</ele>
        <time>2016-05-16T13:23:32Z</time>
      </trkpt>
      <trkpt lat="44.2549" lon="0.82023">
        <ele>-17.2</ele>
        <time>2016-05-16T13:23:33Z</time>
      </trkpt>
      <trkpt lat="44.25459" lon="0.81968">
        <ele>-17</ele>
        <time>2016-05-16T13:23:42Z</time>
      </trkpt>
      <trkpt lat="44.2544" lon="0.81927">
        <ele>-17.6</ele>
        <time>2016-05-16T13:23:48Z</time>
      </trkpt>
      <trkpt lat="44.25431" lon="0.81916">
        <ele>-17.2</ele>
        <time>2016-05-16T13:23:50Z</time>
      </trkpt>
      <trkpt lat="44.2541" lon="0.81897">
        <ele>-17.8</ele>
        <time>2016-05-16T13:23:54Z</time>
      </trkpt>
      <trkpt lat="44.25405" lon="0.81893">
        <ele>-18</ele>
        <time>2016-05-16T13:23:55Z</time>
      </trkpt>
      <trkpt lat="44.25357" lon="0.81861">
        <ele>-18.8</ele>
        <time>2016-05-16T13:24:04Z</time>
      </trkpt>
      <trkpt lat="44.25342" lon="0.8185">
        <ele>-17.6</ele>
        <time>2016-05-16T13:24:07Z</time>
      </trkpt>
      <trkpt lat="44.25324" lon="0.81832">
        <ele>-18.2</ele>
        <time>2016-05-16T13:24:11Z</time>
      </trkpt>
      <trkpt lat="44.2529" lon="0.81792">
        <ele>-17.6</ele>
        <time>2016-05-16T13:24:19Z</time>
      </trkpt>
      <trkpt lat="44.25254" lon="0.81747">
        <ele>-17.4</ele>
        <time>2016-05-16T13:24:28Z</time>
      </trkpt>
      <trkpt lat="44.2522" lon="0.81705">
        <ele>-16.8</ele>
        <time>2016-05-16T13:24:37Z</time>
      </trkpt>
      <trkpt lat="44.25213" lon="0.81697">
        <ele>-16.4</ele>
        <time>2016-05-16T13:24:39Z</time>
      </trkpt>
      <trkpt lat="44.25183" lon="0.81663">
        <ele>-16.2</ele>
        <time>2016-05-16T13:24:47Z</time>
      </trkpt>
      <trkpt lat="44.25153" lon="0.81626">
        <ele>-16.4</ele>
        <time>2016-05-16T13:24:54Z</time>
      </trkpt>
      <trkpt lat="44.25111" lon="0.81573">
        <ele>-17.4</ele>
        <time>2016-05-16T13:25:03Z</time>
      </trkpt>
      <trkpt lat="44.25103" lon="0.81561">
        <ele>-17.6</ele>
        <time>2016-05-16T13:25:05Z</time>
      </trkpt>
      <trkpt lat="44.25089" lon="0.81533">
        <ele>-17.8</ele>
        <time>2016-05-16T13:25:09Z</time>
      </trkpt>
      <trkpt lat="44.25081" lon="0.81503">
        <ele>-17.8</ele>
        <time>2016-05-16T13:25:13Z</time>
      </trkpt>
      <trkpt lat="44.2508" lon="0.81496">
        <ele>-17.8</ele>
        <time>2016-05-16T13:25:14Z</time>
      </trkpt>
      <trkpt lat="44.25073" lon="0.81431">
        <ele>-17.4</ele>
        <time>2016-05-16T13:25:23Z</time>
      </trkpt>
      <trkpt lat="44.25065" lon="0.81368">
        <ele>-17.2</ele>
        <time>2016-05-16T13:25:32Z</time>
      </trkpt>
      <trkpt lat="44.25059" lon="0.81312">
        <ele>-16.2</ele>
        <time>2016-05-16T13:25:40Z</time>
      </trkpt>
      <trkpt lat="44.25058" lon="0.81304">
        <ele>-14.8</ele>
        <time>2016-05-16T13:25:41Z</time>
      </trkpt>
      <trkpt lat="44.25057" lon="0.81297">
        <ele>-14.6</ele>
        <time>2016-05-16T13:25:42Z</time>
      </trkpt>
      <trkpt lat="44.25056" lon="0.8129">
        <ele>-16.2</ele>
        <time>2016-05-16T13:25:43Z</time>
      </trkpt>
      <trkpt lat="44.25056" lon="0.81283">
        <ele>-17.2</ele>
        <time>2016-05-16T13:25:44Z</time>
      </trkpt>
      <trkpt lat="44.25048" lon="0.8122">
        <ele>-16.6</ele>
        <time>2016-05-16T13:25:53Z</time>
      </trkpt>
      <trkpt lat="44.25037" lon="0.81139">
        <ele>-16.4</ele>
        <time>2016-05-16T13:26:04Z</time>
      </trkpt>
      <trkpt lat="44.25026" lon="0.81084">
        <ele>-16.4</ele>
        <time>2016-05-16T13:26:12Z</time>
      </trkpt>
      <trkpt lat="44.25016" lon="0.8105">
        <ele>-16.2</ele>
        <time>2016-05-16T13:26:17Z</time>
      </trkpt>
      <trkpt lat="44.25008" lon="0.81032">
        <ele>-16</ele>
        <time>2016-05-16T13:26:20Z</time>
      </trkpt>
      <trkpt lat="44.24984" lon="0.80992">
        <ele>-16.2</ele>
        <time>2016-05-16T13:26:27Z</time>
      </trkpt>
      <trkpt lat="44.24945" lon="0.80948">
        <ele>-16.2</ele>
        <time>2016-05-16T13:26:36Z</time>
      </trkpt>
      <trkpt lat="44.24903" lon="0.80903">
        <ele>-16.8</ele>
        <time>2016-05-16T13:26:46Z</time>
      </trkpt>
      <trkpt lat="44.24864" lon="0.8086">
        <ele>-16.6</ele>
        <time>2016-05-16T13:26:55Z</time>
      </trkpt>
      <trkpt lat="44.24818" lon="0.80811">
        <ele>-16.8</ele>
        <time>2016-05-16T13:27:05Z</time>
      </trkpt>
      <trkpt lat="44.24813" lon="0.80806">
        <ele>-17.2</ele>
        <time>2016-05-16T13:27:06Z</time>
      </trkpt>
      <trkpt lat="44.24787" lon="0.80784">
        <ele>-17.4</ele>
        <time>2016-05-16T13:27:11Z</time>
      </trkpt>
      <trkpt lat="44.2477" lon="0.80771">
        <ele>-17.4</ele>
        <time>2016-05-16T13:27:14Z</time>
      </trkpt>
      <trkpt lat="44.24721" lon="0.80738">
        <ele>-18</ele>
        <time>2016-05-16T13:27:22Z</time>
      </trkpt>
      <trkpt lat="44.24714" lon="0.80735">
        <ele>-18.4</ele>
        <time>2016-05-16T13:27:23Z</time>
      </trkpt>
      <trkpt lat="44.24664" lon="0.80705">
        <ele>-19</ele>
        <time>2016-05-16T13:27:31Z</time>
      </trkpt>
      <trkpt lat="44.24658" lon="0.80702">
        <ele>-19</ele>
        <time>2016-05-16T13:27:32Z</time>
      </trkpt>
      <trkpt lat="44.24612" lon="0.80675">
        <ele>-18.6</ele>
        <time>2016-05-16T13:27:40Z</time>
      </trkpt>
      <trkpt lat="44.24565" lon="0.80649">
        <ele>-18.6</ele>
        <time>2016-05-16T13:27:49Z</time>
      </trkpt>
      <trkpt lat="44.24526" lon="0.80626">
        <ele>-18.8</ele>
        <time>2016-05-16T13:27:57Z</time>
      </trkpt>
      <trkpt lat="44.24515" lon="0.80618">
        <ele>-18.8</ele>
        <time>2016-05-16T13:28:01Z</time>
      </trkpt>
      <trkpt lat="44.24511" lon="0.80621">
        <ele>-19.2</ele>
        <time>2016-05-16T13:29:38Z</time>
      </trkpt>
      <trkpt lat="44.24505" lon="0.80619">
        <ele>-19.2</ele>
        <time>2016-05-16T13:29:40Z</time>
      </trkpt>
      <trkpt lat="44.24499" lon="0.80615">
        <ele>-19.4</ele>
        <time>2016-05-16T13:29:42Z</time>
      </trkpt>
      <trkpt lat="44.24486" lon="0.80611">
        <ele>-19.4</ele>
        <time>2016-05-16T13:29:45Z</time>
      </trkpt>
      <trkpt lat="44.24447" lon="0.80597">
        <ele>-20.2</ele>
        <time>2016-05-16T13:29:53Z</time>
      </trkpt>
      <trkpt lat="44.24425" lon="0.8059">
        <ele>-20.4</ele>
        <time>2016-05-16T13:29:57Z</time>
      </trkpt>
      <trkpt lat="44.24397" lon="0.8058">
        <ele>-20.6</ele>
        <time>2016-05-16T13:30:02Z</time>
      </trkpt>
      <trkpt lat="44.24357" lon="0.80566">
        <ele>-20.8</ele>
        <time>2016-05-16T13:30:08Z</time>
      </trkpt>
      <trkpt lat="44.24302" lon="0.80547">
        <ele>-20.8</ele>
        <time>2016-05-16T13:30:16Z</time>
      </trkpt>
      <trkpt lat="44.24288" lon="0.80542">
        <ele>-20.8</ele>
        <time>2016-05-16T13:30:18Z</time>
      </trkpt>
      <trkpt lat="44.24247" lon="0.80527">
        <ele>-20.6</ele>
        <time>2016-05-16T13:30:25Z</time>
      </trkpt>
      <trkpt lat="44.2421" lon="0.80518">
        <ele>-20.6</ele>
        <time>2016-05-16T13:30:32Z</time>
      </trkpt>
      <trkpt lat="44.24156" lon="0.80509">
        <ele>-21.6</ele>
        <time>2016-05-16T13:30:41Z</time>
      </trkpt>
      <trkpt lat="44.24144" lon="0.80507">
        <ele>-21.4</ele>
        <time>2016-05-16T13:30:43Z</time>
      </trkpt>
      <trkpt lat="44.24096" lon="0.80499">
        <ele>-21.4</ele>
        <time>2016-05-16T13:30:51Z</time>
      </trkpt>
      <trkpt lat="44.24042" lon="0.80492">
        <ele>-21.8</ele>
        <time>2016-05-16T13:31:00Z</time>
      </trkpt>
      <trkpt lat="44.24001" lon="0.80482">
        <ele>-22</ele>
        <time>2016-05-16T13:31:07Z</time>
      </trkpt>
      <trkpt lat="44.23957" lon="0.80463">
        <ele>-22.4</ele>
        <time>2016-05-16T13:31:14Z</time>
      </trkpt>
      <trkpt lat="44.23918" lon="0.80437">
        <ele>-22.2</ele>
        <time>2016-05-16T13:31:21Z</time>
      </trkpt>
      <trkpt lat="44.23906" lon="0.8043">
        <ele>-22.8</ele>
        <time>2016-05-16T13:31:23Z</time>
      </trkpt>
      <trkpt lat="44.23878" lon="0.80413">
        <ele>-22.8</ele>
        <time>2016-05-16T13:31:28Z</time>
      </trkpt>
      <trkpt lat="44.23834" lon="0.804">
        <ele>-22.8</ele>
        <time>2016-05-16T13:31:35Z</time>
      </trkpt>
      <trkpt lat="44.23785" lon="0.80388">
        <ele>-22.6</ele>
        <time>2016-05-16T13:31:43Z</time>
      </trkpt>
      <trkpt lat="44.23737" lon="0.80375">
        <ele>-23.2</ele>
        <time>2016-05-16T13:31:51Z</time>
      </trkpt>
      <trkpt lat="44.23687" lon="0.80363">
        <ele>-23.6</ele>
        <time>2016-05-16T13:31:59Z</time>
      </trkpt>
      <trkpt lat="44.2364" lon="0.80351">
        <ele>-23.4</ele>
        <time>2016-05-16T13:32:07Z</time>
      </trkpt>
      <trkpt lat="44.23586" lon="0.80336">
        <ele>-23.6</ele>
        <time>2016-05-16T13:32:16Z</time>
      </trkpt>
      <trkpt lat="44.2358" lon="0.80334">
        <ele>-23.8</ele>
        <time>2016-05-16T13:32:17Z</time>
      </trkpt>
      <trkpt lat="44.23528" lon="0.80315">
        <ele>-24.2</ele>
        <time>2016-05-16T13:32:26Z</time>
      </trkpt>
      <trkpt lat="44.23522" lon="0.80312">
        <ele>-24.2</ele>
        <time>2016-05-16T13:32:27Z</time>
      </trkpt>
      <trkpt lat="44.23467" lon="0.80293">
        <ele>-24.4</ele>
        <time>2016-05-16T13:32:36Z</time>
      </trkpt>
      <trkpt lat="44.23414" lon="0.80274">
        <ele>-24.2</ele>
        <time>2016-05-16T13:32:45Z</time>
      </trkpt>
      <trkpt lat="44.23368" lon="0.80258">
        <ele>-24.6</ele>
        <time>2016-05-16T13:32:53Z</time>
      </trkpt>
      <trkpt lat="44.23339" lon="0.80247">
        <ele>-24.8</ele>
        <time>2016-05-16T13:32:58Z</time>
      </trkpt>
      <trkpt lat="44.23327" lon="0.80243">
        <ele>-24.8</ele>
        <time>2016-05-16T13:33:00Z</time>
      </trkpt>
      <trkpt lat="44.23273" lon="0.80224">
        <ele>-25</ele>
        <time>2016-05-16T13:33:09Z</time>
      </trkpt>
      <trkpt lat="44.23255" lon="0.80218">
        <ele>-25.4</ele>
        <time>2016-05-16T13:33:12Z</time>
      </trkpt>
      <trkpt lat="44.23219" lon="0.80202">
        <ele>-25.4</ele>
        <time>2016-05-16T13:33:18Z</time>
      </trkpt>
      <trkpt lat="44.23179" lon="0.80178">
        <ele>-25.6</ele>
        <time>2016-05-16T13:33:25Z</time>
      </trkpt>
      <trkpt lat="44.2313" lon="0.80148">
        <ele>-24.8</ele>
        <time>2016-05-16T13:33:34Z</time>
      </trkpt>
      <trkpt lat="44.23088" lon="0.80122">
        <ele>-25.4</ele>
        <time>2016-05-16T13:33:42Z</time>
      </trkpt>
      <trkpt lat="44.2304" lon="0.80094">
        <ele>-25</ele>
        <time>2016-05-16T13:33:51Z</time>
      </trkpt>
      <trkpt lat="44.22999" lon="0.80069">
        <ele>-25</ele>
        <time>2016-05-16T13:33:59Z</time>
      </trkpt>
      <trkpt lat="44.22955" lon="0.80042">
        <ele>-25.4</ele>
        <time>2016-05-16T13:34:07Z</time>
      </trkpt>
      <trkpt lat="44.22923" lon="0.80019">
        <ele>-25.8</ele>
        <time>2016-05-16T13:34:13Z</time>
      </trkpt>
      <trkpt lat="44.22918" lon="0.80015">
        <ele>-25.6</ele>
        <time>2016-05-16T13:34:14Z</time>
      </trkpt>
      <trkpt lat="44.22875" lon="0.79984">
        <ele>-25.6</ele>
        <time>2016-05-16T13:34:22Z</time>
      </trkpt>
      <trkpt lat="44.22837" lon="0.79955">
        <ele>-25.6</ele>
        <time>2016-05-16T13:34:29Z</time>
      </trkpt>
      <trkpt lat="44.22804" lon="0.7993">
        <ele>-25.6</ele>
        <time>2016-05-16T13:34:35Z</time>
      </trkpt>
      <trkpt lat="44.22767" lon="0.79904">
        <ele>-25.6</ele>
        <time>2016-05-16T13:34:42Z</time>
      </trkpt>
      <trkpt lat="44.22743" lon="0.79885">
        <ele>-25.4</ele>
        <time>2016-05-16T13:34:48Z</time>
      </trkpt>
      <trkpt lat="44.22732" lon="0.79878">
        <ele>-25.2</ele>
        <time>2016-05-16T13:34:53Z</time>
      </trkpt>
      <trkpt lat="44.22731" lon="0.79878">
        <ele>-25</ele>
        <time>2016-05-16T13:34:56Z</time>
      </trkpt>
      <trkpt lat="44.22729" lon="0.79875">
        <ele>-24.8</ele>
        <time>2016-05-16T13:34:59Z</time>
      </trkpt>
      <trkpt lat="44.22727" lon="0.79874">
        <ele>-25</ele>
        <time>2016-05-16T13:35:00Z</time>
      </trkpt>
      <trkpt lat="44.22717" lon="0.79865">
        <ele>-25</ele>
        <time>2016-05-16T13:35:05Z</time>
      </trkpt>
      <trkpt lat="44.2271" lon="0.79859">
        <ele>-25</ele>
        <time>2016-05-16T13:35:07Z</time>
      </trkpt>
      <trkpt lat="44.22699" lon="0.79851">
        <ele>-25</ele>
        <time>2016-05-16T13:35:10Z</time>
      </trkpt>
      <trkpt lat="44.22669" lon="0.79834">
        <ele>-24.6</ele>
        <time>2016-05-16T13:35:17Z</time>
      </trkpt>
      <trkpt lat="44.22647" lon="0.79821">
        <ele>-24.6</ele>
        <time>2016-05-16T13:35:22Z</time>
      </trkpt>
      <trkpt lat="44.22639" lon="0.79817">
        <ele>-24.4</ele>
        <time>2016-05-16T13:35:24Z</time>
      </trkpt>
      <trkpt lat="44.22605" lon="0.79796">
        <ele>-24.6</ele>
        <time>2016-05-16T13:35:31Z</time>
      </trkpt>
      <trkpt lat="44.2256" lon="0.79771">
        <ele>-25.6</ele>
        <time>2016-05-16T13:35:39Z</time>
      </trkpt>
      <trkpt lat="44.22548" lon="0.79764">
        <ele>-26</ele>
        <time>2016-05-16T13:35:41Z</time>
      </trkpt>
      <trkpt lat="44.22517" lon="0.79747">
        <ele>-26.2</ele>
        <time>2016-05-16T13:35:46Z</time>
      </trkpt>
      <trkpt lat="44.22475" lon="0.79727">
        <ele>-26.4</ele>
        <time>2016-05-16T13:35:53Z</time>
      </trkpt>
      <trkpt lat="44.2244" lon="0.79711">
        <ele>-26.4</ele>
        <time>2016-05-16T13:35:59Z</time>
      </trkpt>
      <trkpt lat="44.22411" lon="0.79697">
        <ele>-27.2</ele>
        <time>2016-05-16T13:36:04Z</time>
      </trkpt>
      <trkpt lat="44.22388" lon="0.79685">
        <ele>-27.4</ele>
        <time>2016-05-16T13:36:08Z</time>
      </trkpt>
      <trkpt lat="44.22347" lon="0.79667">
        <ele>-27.4</ele>
        <time>2016-05-16T13:36:15Z</time>
      </trkpt>
      <trkpt lat="44.22307" lon="0.79646">
        <ele>-27.4</ele>
        <time>2016-05-16T13:36:22Z</time>
      </trkpt>
      <trkpt lat="44.22264" lon="0.79615">
        <ele>-27.4</ele>
        <time>2016-05-16T13:36:30Z</time>
      </trkpt>
      <trkpt lat="44.22218" lon="0.79579">
        <ele>-27.4</ele>
        <time>2016-05-16T13:36:39Z</time>
      </trkpt>
      <trkpt lat="44.22176" lon="0.79538">
        <ele>-27.6</ele>
        <time>2016-05-16T13:36:48Z</time>
      </trkpt>
      <trkpt lat="44.22135" lon="0.79484">
        <ele>-27.2</ele>
        <time>2016-05-16T13:36:58Z</time>
      </trkpt>
      <trkpt lat="44.22112" lon="0.79442">
        <ele>-27.4</ele>
        <time>2016-05-16T13:37:05Z</time>
      </trkpt>
      <trkpt lat="44.22088" lon="0.79382">
        <ele>-26.8</ele>
        <time>2016-05-16T13:37:14Z</time>
      </trkpt>
      <trkpt lat="44.22064" lon="0.79341">
        <ele>-27</ele>
        <time>2016-05-16T13:37:21Z</time>
      </trkpt>
      <trkpt lat="44.22028" lon="0.79293">
        <ele>-27.4</ele>
        <time>2016-05-16T13:37:29Z</time>
      </trkpt>
      <trkpt lat="44.21994" lon="0.79245">
        <ele>-28</ele>
        <time>2016-05-16T13:37:37Z</time>
      </trkpt>
      <trkpt lat="44.21986" lon="0.79232">
        <ele>-28.2</ele>
        <time>2016-05-16T13:37:39Z</time>
      </trkpt>
      <trkpt lat="44.21963" lon="0.79194">
        <ele>-27.8</ele>
        <time>2016-05-16T13:37:45Z</time>
      </trkpt>
      <trkpt lat="44.21933" lon="0.79146">
        <ele>-27.2</ele>
        <time>2016-05-16T13:37:53Z</time>
      </trkpt>
      <trkpt lat="44.21926" lon="0.79134">
        <ele>-27</ele>
        <time>2016-05-16T13:37:55Z</time>
      </trkpt>
      <trkpt lat="44.21898" lon="0.79094">
        <ele>-26.8</ele>
        <time>2016-05-16T13:38:02Z</time>
      </trkpt>
      <trkpt lat="44.21869" lon="0.79051">
        <ele>-27.4</ele>
        <time>2016-05-16T13:38:09Z</time>
      </trkpt>
      <trkpt lat="44.21842" lon="0.79007">
        <ele>-27.8</ele>
        <time>2016-05-16T13:38:16Z</time>
      </trkpt>
      <trkpt lat="44.21807" lon="0.78947">
        <ele>-27.6</ele>
        <time>2016-05-16T13:38:26Z</time>
      </trkpt>
      <trkpt lat="44.21779" lon="0.789">
        <ele>-27.2</ele>
        <time>2016-05-16T13:38:34Z</time>
      </trkpt>
      <trkpt lat="44.21753" lon="0.78864">
        <ele>-28</ele>
        <time>2016-05-16T13:38:40Z</time>
      </trkpt>
      <trkpt lat="44.21714" lon="0.7882">
        <ele>-28.8</ele>
        <time>2016-05-16T13:38:48Z</time>
      </trkpt>
      <trkpt lat="44.21674" lon="0.78776">
        <ele>-28.8</ele>
        <time>2016-05-16T13:38:56Z</time>
      </trkpt>
      <trkpt lat="44.21639" lon="0.78739">
        <ele>-29</ele>
        <time>2016-05-16T13:39:03Z</time>
      </trkpt>
      <trkpt lat="44.21633" lon="0.78733">
        <ele>-28.6</ele>
        <time>2016-05-16T13:39:04Z</time>
      </trkpt>
      <trkpt lat="44.21582" lon="0.78692">
        <ele>-29.8</ele>
        <time>2016-05-16T13:39:13Z</time>
      </trkpt>
      <trkpt lat="44.21564" lon="0.78679">
        <ele>-30</ele>
        <time>2016-05-16T13:39:16Z</time>
      </trkpt>
      <trkpt lat="44.21531" lon="0.78654">
        <ele>-30</ele>
        <time>2016-05-16T13:39:22Z</time>
      </trkpt>
      <trkpt lat="44.21489" lon="0.7862">
        <ele>-30.4</ele>
        <time>2016-05-16T13:39:30Z</time>
      </trkpt>
      <trkpt lat="44.21451" lon="0.78591">
        <ele>-30.4</ele>
        <time>2016-05-16T13:39:37Z</time>
      </trkpt>
      <trkpt lat="44.21405" lon="0.78556">
        <ele>-30</ele>
        <time>2016-05-16T13:39:46Z</time>
      </trkpt>
      <trkpt lat="44.21373" lon="0.78523">
        <ele>-29.8</ele>
        <time>2016-05-16T13:39:53Z</time>
      </trkpt>
      <trkpt lat="44.21336" lon="0.78477">
        <ele>-30.4</ele>
        <time>2016-05-16T13:40:01Z</time>
      </trkpt>
      <trkpt lat="44.21296" lon="0.78424">
        <ele>-30.2</ele>
        <time>2016-05-16T13:40:10Z</time>
      </trkpt>
      <trkpt lat="44.21292" lon="0.78419">
        <ele>-30</ele>
        <time>2016-05-16T13:40:11Z</time>
      </trkpt>
      <trkpt lat="44.21251" lon="0.78362">
        <ele>-30</ele>
        <time>2016-05-16T13:40:21Z</time>
      </trkpt>
      <trkpt lat="44.21216" lon="0.78315">
        <ele>-29.4</ele>
        <time>2016-05-16T13:40:30Z</time>
      </trkpt>
      <trkpt lat="44.21183" lon="0.78271">
        <ele>-29.4</ele>
        <time>2016-05-16T13:40:38Z</time>
      </trkpt>
      <trkpt lat="44.21141" lon="0.78218">
        <ele>-29.4</ele>
        <time>2016-05-16T13:40:48Z</time>
      </trkpt>
      <trkpt lat="44.2111" lon="0.78175">
        <ele>-29.4</ele>
        <time>2016-05-16T13:40:56Z</time>
      </trkpt>
      <trkpt lat="44.21073" lon="0.78125">
        <ele>-29.8</ele>
        <time>2016-05-16T13:41:05Z</time>
      </trkpt>
      <trkpt lat="44.21038" lon="0.78091">
        <ele>-29.8</ele>
        <time>2016-05-16T13:41:12Z</time>
      </trkpt>
      <trkpt lat="44.21" lon="0.78048">
        <ele>-30.2</ele>
        <time>2016-05-16T13:41:20Z</time>
      </trkpt>
      <trkpt lat="44.20974" lon="0.78003">
        <ele>-30.6</ele>
        <time>2016-05-16T13:41:27Z</time>
      </trkpt>
      <trkpt lat="44.20944" lon="0.77943">
        <ele>-30.8</ele>
        <time>2016-05-16T13:41:36Z</time>
      </trkpt>
      <trkpt lat="44.20937" lon="0.77931">
        <ele>-31</ele>
        <time>2016-05-16T13:41:38Z</time>
      </trkpt>
      <trkpt lat="44.20923" lon="0.77915">
        <ele>-31.2</ele>
        <time>2016-05-16T13:41:41Z</time>
      </trkpt>
      <trkpt lat="44.20885" lon="0.77881">
        <ele>-31.8</ele>
        <time>2016-05-16T13:41:48Z</time>
      </trkpt>
      <trkpt lat="44.20849" lon="0.77851">
        <ele>-31.6</ele>
        <time>2016-05-16T13:41:55Z</time>
      </trkpt>
      <trkpt lat="44.20805" lon="0.77814">
        <ele>-31.6</ele>
        <time>2016-05-16T13:42:04Z</time>
      </trkpt>
      <trkpt lat="44.20757" lon="0.77774">
        <ele>-31.6</ele>
        <time>2016-05-16T13:42:14Z</time>
      </trkpt>
      <trkpt lat="44.20752" lon="0.77769">
        <ele>-31.8</ele>
        <time>2016-05-16T13:42:15Z</time>
      </trkpt>
      <trkpt lat="44.20709" lon="0.77733">
        <ele>-31.8</ele>
        <time>2016-05-16T13:42:24Z</time>
      </trkpt>
      <trkpt lat="44.2067" lon="0.77701">
        <ele>-31.6</ele>
        <time>2016-05-16T13:42:32Z</time>
      </trkpt>
      <trkpt lat="44.20633" lon="0.77667">
        <ele>-31.8</ele>
        <time>2016-05-16T13:42:40Z</time>
      </trkpt>
      <trkpt lat="44.20611" lon="0.77644">
        <ele>-32</ele>
        <time>2016-05-16T13:42:45Z</time>
      </trkpt>
      <trkpt lat="44.20599" lon="0.77627">
        <ele>-31.4</ele>
        <time>2016-05-16T13:42:48Z</time>
      </trkpt>
      <trkpt lat="44.20565" lon="0.77585">
        <ele>-31.8</ele>
        <time>2016-05-16T13:42:56Z</time>
      </trkpt>
      <trkpt lat="44.20523" lon="0.77532">
        <ele>-31.8</ele>
        <time>2016-05-16T13:43:06Z</time>
      </trkpt>
      <trkpt lat="44.20489" lon="0.7749">
        <ele>-32</ele>
        <time>2016-05-16T13:43:14Z</time>
      </trkpt>
      <trkpt lat="44.20446" lon="0.77437">
        <ele>-32.2</ele>
        <time>2016-05-16T13:43:24Z</time>
      </trkpt>
      <trkpt lat="44.20437" lon="0.77427">
        <ele>-32.6</ele>
        <time>2016-05-16T13:43:26Z</time>
      </trkpt>
      <trkpt lat="44.20412" lon="0.77395">
        <ele>-32.8</ele>
        <time>2016-05-16T13:43:32Z</time>
      </trkpt>
      <trkpt lat="44.20372" lon="0.77349">
        <ele>-32.4</ele>
        <time>2016-05-16T13:43:41Z</time>
      </trkpt>
      <trkpt lat="44.20338" lon="0.77309">
        <ele>-32.8</ele>
        <time>2016-05-16T13:43:49Z</time>
      </trkpt>
      <trkpt lat="44.20308" lon="0.77274">
        <ele>-32.8</ele>
        <time>2016-05-16T13:43:56Z</time>
      </trkpt>
      <trkpt lat="44.20272" lon="0.77233">
        <ele>-33</ele>
        <time>2016-05-16T13:44:04Z</time>
      </trkpt>
      <trkpt lat="44.20234" lon="0.7719">
        <ele>-32.8</ele>
        <time>2016-05-16T13:44:13Z</time>
      </trkpt>
      <trkpt lat="44.20204" lon="0.77156">
        <ele>-32.8</ele>
        <time>2016-05-16T13:44:20Z</time>
      </trkpt>
      <trkpt lat="44.20165" lon="0.77113">
        <ele>-32.4</ele>
        <time>2016-05-16T13:44:29Z</time>
      </trkpt>
      <trkpt lat="44.20132" lon="0.77064">
        <ele>-32.2</ele>
        <time>2016-05-16T13:44:38Z</time>
      </trkpt>
      <trkpt lat="44.20117" lon="0.77018">
        <ele>-32</ele>
        <time>2016-05-16T13:44:45Z</time>
      </trkpt>
      <trkpt lat="44.201" lon="0.76964">
        <ele>-31.8</ele>
        <time>2016-05-16T13:44:53Z</time>
      </trkpt>
      <trkpt lat="44.20094" lon="0.76952">
        <ele>-31.8</ele>
        <time>2016-05-16T13:44:55Z</time>
      </trkpt>
      <trkpt lat="44.20078" lon="0.76932">
        <ele>-31.8</ele>
        <time>2016-05-16T13:44:59Z</time>
      </trkpt>
      <trkpt lat="44.20044" lon="0.76897">
        <ele>-31.6</ele>
        <time>2016-05-16T13:45:07Z</time>
      </trkpt>
      <trkpt lat="44.19998" lon="0.76852">
        <ele>-31.6</ele>
        <time>2016-05-16T13:45:17Z</time>
      </trkpt>
      <trkpt lat="44.19974" lon="0.76834">
        <ele>-31.6</ele>
        <time>2016-05-16T13:45:22Z</time>
      </trkpt>
      <trkpt lat="44.19962" lon="0.7683">
        <ele>-31.8</ele>
        <time>2016-05-16T13:45:24Z</time>
      </trkpt>
      <trkpt lat="44.19922" lon="0.76821">
        <ele>-31.6</ele>
        <time>2016-05-16T13:45:31Z</time>
      </trkpt>
      <trkpt lat="44.1987" lon="0.76811">
        <ele>-31.6</ele>
        <time>2016-05-16T13:45:40Z</time>
      </trkpt>
      <trkpt lat="44.19828" lon="0.76799">
        <ele>-31.8</ele>
        <time>2016-05-16T13:45:47Z</time>
      </trkpt>
      <trkpt lat="44.19784" lon="0.76775">
        <ele>-31.6</ele>
        <time>2016-05-16T13:45:55Z</time>
      </trkpt>
      <trkpt lat="44.19769" lon="0.76764">
        <ele>-30.8</ele>
        <time>2016-05-16T13:45:58Z</time>
      </trkpt>
      <trkpt lat="44.1975" lon="0.76751">
        <ele>-31.2</ele>
        <time>2016-05-16T13:46:02Z</time>
      </trkpt>
      <trkpt lat="44.19717" lon="0.76735">
        <ele>-31</ele>
        <time>2016-05-16T13:46:08Z</time>
      </trkpt>
      <trkpt lat="44.19685" lon="0.76725">
        <ele>-31.8</ele>
        <time>2016-05-16T13:46:13Z</time>
      </trkpt>
      <trkpt lat="44.19678" lon="0.76723">
        <ele>-32.2</ele>
        <time>2016-05-16T13:46:14Z</time>
      </trkpt>
      <trkpt lat="44.1962" lon="0.76711">
        <ele>-33.2</ele>
        <time>2016-05-16T13:46:22Z</time>
      </trkpt>
      <trkpt lat="44.19565" lon="0.76698">
        <ele>-34</ele>
        <time>2016-05-16T13:46:30Z</time>
      </trkpt>
      <trkpt lat="44.19558" lon="0.76697">
        <ele>-33.8</ele>
        <time>2016-05-16T13:46:31Z</time>
      </trkpt>
      <trkpt lat="44.19551" lon="0.76695">
        <ele>-34.2</ele>
        <time>2016-05-16T13:46:32Z</time>
      </trkpt>
      <trkpt lat="44.19503" lon="0.76683">
        <ele>-34.4</ele>
        <time>2016-05-16T13:46:39Z</time>
      </trkpt>
      <trkpt lat="44.19453" lon="0.76662">
        <ele>-34.6</ele>
        <time>2016-05-16T13:46:47Z</time>
      </trkpt>
      <trkpt lat="44.19419" lon="0.76637">
        <ele>-34.6</ele>
        <time>2016-05-16T13:46:53Z</time>
      </trkpt>
      <trkpt lat="44.19377" lon="0.76606">
        <ele>-34.2</ele>
        <time>2016-05-16T13:47:01Z</time>
      </trkpt>
      <trkpt lat="44.19339" lon="0.76585">
        <ele>-34.2</ele>
        <time>2016-05-16T13:47:08Z</time>
      </trkpt>
      <trkpt lat="44.19294" lon="0.76562">
        <ele>-34.4</ele>
        <time>2016-05-16T13:47:16Z</time>
      </trkpt>
      <trkpt lat="44.1925" lon="0.76535">
        <ele>-34.4</ele>
        <time>2016-05-16T13:47:24Z</time>
      </trkpt>
      <trkpt lat="44.1924" lon="0.76526">
        <ele>-34.4</ele>
        <time>2016-05-16T13:47:26Z</time>
      </trkpt>
      <trkpt lat="44.19221" lon="0.76505">
        <ele>-34.6</ele>
        <time>2016-05-16T13:47:30Z</time>
      </trkpt>
      <trkpt lat="44.19179" lon="0.76457">
        <ele>-34.8</ele>
        <time>2016-05-16T13:47:39Z</time>
      </trkpt>
      <trkpt lat="44.19174" lon="0.76452">
        <ele>-34.8</ele>
        <time>2016-05-16T13:47:40Z</time>
      </trkpt>
      <trkpt lat="44.1914" lon="0.76403">
        <ele>-34.4</ele>
        <time>2016-05-16T13:47:48Z</time>
      </trkpt>
      <trkpt lat="44.19108" lon="0.76367">
        <ele>-34.4</ele>
        <time>2016-05-16T13:47:55Z</time>
      </trkpt>
      <trkpt lat="44.19071" lon="0.7634">
        <ele>-34.4</ele>
        <time>2016-05-16T13:48:02Z</time>
      </trkpt>
      <trkpt lat="44.19056" lon="0.76324">
        <ele>-34.8</ele>
        <time>2016-05-16T13:48:05Z</time>
      </trkpt>
      <trkpt lat="44.19048" lon="0.7631">
        <ele>-35</ele>
        <time>2016-05-16T13:48:07Z</time>
      </trkpt>
      <trkpt lat="44.19041" lon="0.76295">
        <ele>-35</ele>
        <time>2016-05-16T13:48:09Z</time>
      </trkpt>
      <trkpt lat="44.19029" lon="0.76265">
        <ele>-35</ele>
        <time>2016-05-16T13:48:13Z</time>
      </trkpt>
      <trkpt lat="44.19008" lon="0.76226">
        <ele>-34.6</ele>
        <time>2016-05-16T13:48:19Z</time>
      </trkpt>
      <trkpt lat="44.18979" lon="0.76197">
        <ele>-34.6</ele>
        <time>2016-05-16T13:48:25Z</time>
      </trkpt>
      <trkpt lat="44.18938" lon="0.76161">
        <ele>-34.8</ele>
        <time>2016-05-16T13:48:33Z</time>
      </trkpt>
      <trkpt lat="44.18897" lon="0.76129">
        <ele>-34.8</ele>
        <time>2016-05-16T13:48:41Z</time>
      </trkpt>
      <trkpt lat="44.18858" lon="0.7611">
        <ele>-34.6</ele>
        <time>2016-05-16T13:48:48Z</time>
      </trkpt>
      <trkpt lat="44.18818" lon="0.76077">
        <ele>-34.4</ele>
        <time>2016-05-16T13:48:56Z</time>
      </trkpt>
      <trkpt lat="44.18783" lon="0.76031">
        <ele>-35</ele>
        <time>2016-05-16T13:49:04Z</time>
      </trkpt>
      <trkpt lat="44.1875" lon="0.75996">
        <ele>-34.8</ele>
        <time>2016-05-16T13:49:11Z</time>
      </trkpt>
      <trkpt lat="44.18718" lon="0.75978">
        <ele>-34.4</ele>
        <time>2016-05-16T13:49:17Z</time>
      </trkpt>
      <trkpt lat="44.18664" lon="0.7595">
        <ele>-34</ele>
        <time>2016-05-16T13:49:27Z</time>
      </trkpt>
      <trkpt lat="44.18659" lon="0.75946">
        <ele>-34</ele>
        <time>2016-05-16T13:49:28Z</time>
      </trkpt>
      <trkpt lat="44.1863" lon="0.75918">
        <ele>-34</ele>
        <time>2016-05-16T13:49:34Z</time>
      </trkpt>
      <trkpt lat="44.18598" lon="0.75873">
        <ele>-33.6</ele>
        <time>2016-05-16T13:49:42Z</time>
      </trkpt>
      <trkpt lat="44.18584" lon="0.7584">
        <ele>-33</ele>
        <time>2016-05-16T13:49:47Z</time>
      </trkpt>
      <trkpt lat="44.18579" lon="0.75825">
        <ele>-33.2</ele>
        <time>2016-05-16T13:49:49Z</time>
      </trkpt>
      <trkpt lat="44.1857" lon="0.75794">
        <ele>-34</ele>
        <time>2016-05-16T13:49:53Z</time>
      </trkpt>
      <trkpt lat="44.18566" lon="0.75778">
        <ele>-34.2</ele>
        <time>2016-05-16T13:49:55Z</time>
      </trkpt>
      <trkpt lat="44.18552" lon="0.75716">
        <ele>-34.4</ele>
        <time>2016-05-16T13:50:03Z</time>
      </trkpt>
      <trkpt lat="44.18541" lon="0.75665">
        <ele>-34.8</ele>
        <time>2016-05-16T13:50:10Z</time>
      </trkpt>
      <trkpt lat="44.18535" lon="0.75607">
        <ele>-35</ele>
        <time>2016-05-16T13:50:18Z</time>
      </trkpt>
      <trkpt lat="44.18534" lon="0.756">
        <ele>-35.2</ele>
        <time>2016-05-16T13:50:19Z</time>
      </trkpt>
      <trkpt lat="44.18526" lon="0.75555">
        <ele>-35.4</ele>
        <time>2016-05-16T13:50:25Z</time>
      </trkpt>
      <trkpt lat="44.18507" lon="0.75483">
        <ele>-35.4</ele>
        <time>2016-05-16T13:50:35Z</time>
      </trkpt>
      <trkpt lat="44.18497" lon="0.75422">
        <ele>-35.2</ele>
        <time>2016-05-16T13:50:43Z</time>
      </trkpt>
      <trkpt lat="44.18494" lon="0.75366">
        <ele>-34</ele>
        <time>2016-05-16T13:50:51Z</time>
      </trkpt>
      <trkpt lat="44.18493" lon="0.75333">
        <ele>-33</ele>
        <time>2016-05-16T13:50:56Z</time>
      </trkpt>
      <trkpt lat="44.18493" lon="0.75321">
        <ele>-33.2</ele>
        <time>2016-05-16T13:50:58Z</time>
      </trkpt>
      <trkpt lat="44.18495" lon="0.75278">
        <ele>-32.2</ele>
        <time>2016-05-16T13:51:05Z</time>
      </trkpt>
      <trkpt lat="44.18495" lon="0.75272">
        <ele>-32</ele>
        <time>2016-05-16T13:51:06Z</time>
      </trkpt>
      <trkpt lat="44.18496" lon="0.75241">
        <ele>-31.4</ele>
        <time>2016-05-16T13:51:11Z</time>
      </trkpt>
      <trkpt lat="44.18497" lon="0.75204">
        <ele>-31</ele>
        <time>2016-05-16T13:51:17Z</time>
      </trkpt>
      <trkpt lat="44.18499" lon="0.75169">
        <ele>-31</ele>
        <time>2016-05-16T13:51:22Z</time>
      </trkpt>
      <trkpt lat="44.185" lon="0.75147">
        <ele>-31.4</ele>
        <time>2016-05-16T13:51:25Z</time>
      </trkpt>
      <trkpt lat="44.18499" lon="0.75084">
        <ele>-30.4</ele>
        <time>2016-05-16T13:51:34Z</time>
      </trkpt>
      <trkpt lat="44.18495" lon="0.75016">
        <ele>-31</ele>
        <time>2016-05-16T13:51:43Z</time>
      </trkpt>
      <trkpt lat="44.18493" lon="0.74954">
        <ele>-31</ele>
        <time>2016-05-16T13:51:51Z</time>
      </trkpt>
      <trkpt lat="44.18492" lon="0.74883">
        <ele>-31</ele>
        <time>2016-05-16T13:52:00Z</time>
      </trkpt>
      <trkpt lat="44.18491" lon="0.74814">
        <ele>-31.4</ele>
        <time>2016-05-16T13:52:09Z</time>
      </trkpt>
      <trkpt lat="44.18486" lon="0.74752">
        <ele>-31.2</ele>
        <time>2016-05-16T13:52:17Z</time>
      </trkpt>
      <trkpt lat="44.18485" lon="0.74744">
        <ele>-31</ele>
        <time>2016-05-16T13:52:18Z</time>
      </trkpt>
      <trkpt lat="44.18471" lon="0.74693">
        <ele>-31.6</ele>
        <time>2016-05-16T13:52:25Z</time>
      </trkpt>
      <trkpt lat="44.18446" lon="0.74634">
        <ele>-31.6</ele>
        <time>2016-05-16T13:52:34Z</time>
      </trkpt>
      <trkpt lat="44.18413" lon="0.74579">
        <ele>-31.6</ele>
        <time>2016-05-16T13:52:43Z</time>
      </trkpt>
      <trkpt lat="44.18404" lon="0.7457">
        <ele>-31.6</ele>
        <time>2016-05-16T13:52:45Z</time>
      </trkpt>
      <trkpt lat="44.18389" lon="0.74559">
        <ele>-31.8</ele>
        <time>2016-05-16T13:52:48Z</time>
      </trkpt>
      <trkpt lat="44.18383" lon="0.74554">
        <ele>-32</ele>
        <time>2016-05-16T13:52:49Z</time>
      </trkpt>
      <trkpt lat="44.18333" lon="0.74517">
        <ele>-32.8</ele>
        <time>2016-05-16T13:52:58Z</time>
      </trkpt>
      <trkpt lat="44.18321" lon="0.74508">
        <ele>-33</ele>
        <time>2016-05-16T13:53:00Z</time>
      </trkpt>
      <trkpt lat="44.18306" lon="0.74491">
        <ele>-33.2</ele>
        <time>2016-05-16T13:53:03Z</time>
      </trkpt>
      <trkpt lat="44.18298" lon="0.74477">
        <ele>-33.2</ele>
        <time>2016-05-16T13:53:05Z</time>
      </trkpt>
      <trkpt lat="44.18289" lon="0.74444">
        <ele>-33.2</ele>
        <time>2016-05-16T13:53:09Z</time>
      </trkpt>
      <trkpt lat="44.18274" lon="0.74378">
        <ele>-33.4</ele>
        <time>2016-05-16T13:53:17Z</time>
      </trkpt>
      <trkpt lat="44.18259" lon="0.74339">
        <ele>-34</ele>
        <time>2016-05-16T13:53:22Z</time>
      </trkpt>
      <trkpt lat="44.18252" lon="0.74323">
        <ele>-34.2</ele>
        <time>2016-05-16T13:53:24Z</time>
      </trkpt>
      <trkpt lat="44.18224" lon="0.74257">
        <ele>-34.8</ele>
        <time>2016-05-16T13:53:33Z</time>
      </trkpt>
      <trkpt lat="44.18209" lon="0.74229">
        <ele>-35.2</ele>
        <time>2016-05-16T13:53:37Z</time>
      </trkpt>
      <trkpt lat="44.18192" lon="0.74201">
        <ele>-35.2</ele>
        <time>2016-05-16T13:53:41Z</time>
      </trkpt>
      <trkpt lat="44.18171" lon="0.74149">
        <ele>-35.2</ele>
        <time>2016-05-16T13:53:48Z</time>
      </trkpt>
      <trkpt lat="44.18155" lon="0.74098">
        <ele>-34.8</ele>
        <time>2016-05-16T13:53:55Z</time>
      </trkpt>
      <trkpt lat="44.1812" lon="0.74031">
        <ele>-35</ele>
        <time>2016-05-16T13:54:05Z</time>
      </trkpt>
      <trkpt lat="44.18092" lon="0.73972">
        <ele>-34.2</ele>
        <time>2016-05-16T13:54:14Z</time>
      </trkpt>
      <trkpt lat="44.18077" lon="0.73919">
        <ele>-34.8</ele>
        <time>2016-05-16T13:54:21Z</time>
      </trkpt>
      <trkpt lat="44.18055" lon="0.73848">
        <ele>-35.2</ele>
        <time>2016-05-16T13:54:30Z</time>
      </trkpt>
      <trkpt lat="44.18037" lon="0.73786">
        <ele>-35.6</ele>
        <time>2016-05-16T13:54:38Z</time>
      </trkpt>
      <trkpt lat="44.18023" lon="0.7374">
        <ele>-36.2</ele>
        <time>2016-05-16T13:54:44Z</time>
      </trkpt>
      <trkpt lat="44.1802" lon="0.73733">
        <ele>-36.2</ele>
        <time>2016-05-16T13:54:45Z</time>
      </trkpt>
      <trkpt lat="44.18002" lon="0.73675">
        <ele>-36.2</ele>
        <time>2016-05-16T13:54:53Z</time>
      </trkpt>
      <trkpt lat="44.17982" lon="0.73611">
        <ele>-36.2</ele>
        <time>2016-05-16T13:55:02Z</time>
      </trkpt>
      <trkpt lat="44.17975" lon="0.7359">
        <ele>-35.8</ele>
        <time>2016-05-16T13:55:05Z</time>
      </trkpt>
      <trkpt lat="44.17964" lon="0.73564">
        <ele>-36.4</ele>
        <time>2016-05-16T13:55:09Z</time>
      </trkpt>
      <trkpt lat="44.17936" lon="0.73496">
        <ele>-36.2</ele>
        <time>2016-05-16T13:55:19Z</time>
      </trkpt>
      <trkpt lat="44.17933" lon="0.73489">
        <ele>-36</ele>
        <time>2016-05-16T13:55:20Z</time>
      </trkpt>
      <trkpt lat="44.17904" lon="0.73426">
        <ele>-35.8</ele>
        <time>2016-05-16T13:55:30Z</time>
      </trkpt>
      <trkpt lat="44.17879" lon="0.73375">
        <ele>-35.8</ele>
        <time>2016-05-16T13:55:38Z</time>
      </trkpt>
      <trkpt lat="44.17848" lon="0.73318">
        <ele>-36.2</ele>
        <time>2016-05-16T13:55:47Z</time>
      </trkpt>
      <trkpt lat="44.17816" lon="0.73263">
        <ele>-36</ele>
        <time>2016-05-16T13:55:56Z</time>
      </trkpt>
      <trkpt lat="44.1779" lon="0.7322">
        <ele>-36.4</ele>
        <time>2016-05-16T13:56:03Z</time>
      </trkpt>
      <trkpt lat="44.17779" lon="0.73202">
        <ele>-36.6</ele>
        <time>2016-05-16T13:56:06Z</time>
      </trkpt>
      <trkpt lat="44.17768" lon="0.73183">
        <ele>-36.4</ele>
        <time>2016-05-16T13:56:09Z</time>
      </trkpt>
      <trkpt lat="44.17738" lon="0.73134">
        <ele>-36.8</ele>
        <time>2016-05-16T13:56:17Z</time>
      </trkpt>
      <trkpt lat="44.17709" lon="0.73084">
        <ele>-36.8</ele>
        <time>2016-05-16T13:56:25Z</time>
      </trkpt>
      <trkpt lat="44.17681" lon="0.73035">
        <ele>-37</ele>
        <time>2016-05-16T13:56:33Z</time>
      </trkpt>
      <trkpt lat="44.17656" lon="0.72989">
        <ele>-37</ele>
        <time>2016-05-16T13:56:41Z</time>
      </trkpt>
      <trkpt lat="44.17626" lon="0.72928">
        <ele>-36.4</ele>
        <time>2016-05-16T13:56:51Z</time>
      </trkpt>
      <trkpt lat="44.17594" lon="0.72861">
        <ele>-36</ele>
        <time>2016-05-16T13:57:02Z</time>
      </trkpt>
      <trkpt lat="44.17591" lon="0.72855">
        <ele>-35.8</ele>
        <time>2016-05-16T13:57:03Z</time>
      </trkpt>
      <trkpt lat="44.17563" lon="0.72791">
        <ele>-35.6</ele>
        <time>2016-05-16T13:57:13Z</time>
      </trkpt>
      <trkpt lat="44.17557" lon="0.72778">
        <ele>-35.6</ele>
        <time>2016-05-16T13:57:15Z</time>
      </trkpt>
      <trkpt lat="44.1753" lon="0.72714">
        <ele>-35.6</ele>
        <time>2016-05-16T13:57:25Z</time>
      </trkpt>
      <trkpt lat="44.17505" lon="0.72653">
        <ele>-36.2</ele>
        <time>2016-05-16T13:57:34Z</time>
      </trkpt>
      <trkpt lat="44.17481" lon="0.72588">
        <ele>-36.8</ele>
        <time>2016-05-16T13:57:43Z</time>
      </trkpt>
      <trkpt lat="44.17467" lon="0.72551">
        <ele>-37.2</ele>
        <time>2016-05-16T13:57:48Z</time>
      </trkpt>
      <trkpt lat="44.17453" lon="0.72515">
        <ele>-37.4</ele>
        <time>2016-05-16T13:57:53Z</time>
      </trkpt>
      <trkpt lat="44.17426" lon="0.72442">
        <ele>-37.6</ele>
        <time>2016-05-16T13:58:03Z</time>
      </trkpt>
      <trkpt lat="44.17423" lon="0.72435">
        <ele>-37.6</ele>
        <time>2016-05-16T13:58:04Z</time>
      </trkpt>
      <trkpt lat="44.17403" lon="0.72379">
        <ele>-37.6</ele>
        <time>2016-05-16T13:58:12Z</time>
      </trkpt>
      <trkpt lat="44.174" lon="0.72372">
        <ele>-37.8</ele>
        <time>2016-05-16T13:58:13Z</time>
      </trkpt>
      <trkpt lat="44.17388" lon="0.72339">
        <ele>-36.8</ele>
        <time>2016-05-16T13:58:18Z</time>
      </trkpt>
      <trkpt lat="44.17366" lon="0.72271">
        <ele>-36.8</ele>
        <time>2016-05-16T13:58:28Z</time>
      </trkpt>
      <trkpt lat="44.17348" lon="0.72207">
        <ele>-36.8</ele>
        <time>2016-05-16T13:58:37Z</time>
      </trkpt>
      <trkpt lat="44.1733" lon="0.72128">
        <ele>-37.4</ele>
        <time>2016-05-16T13:58:47Z</time>
      </trkpt>
      <trkpt lat="44.1732" lon="0.72067">
        <ele>-38</ele>
        <time>2016-05-16T13:58:54Z</time>
      </trkpt>
      <trkpt lat="44.17317" lon="0.72049">
        <ele>-38.2</ele>
        <time>2016-05-16T13:58:56Z</time>
      </trkpt>
      <trkpt lat="44.1731" lon="0.71994">
        <ele>-39</ele>
        <time>2016-05-16T13:59:02Z</time>
      </trkpt>
      <trkpt lat="44.17308" lon="0.71977">
        <ele>-39.6</ele>
        <time>2016-05-16T13:59:04Z</time>
      </trkpt>
      <trkpt lat="44.17303" lon="0.71922">
        <ele>-40</ele>
        <time>2016-05-16T13:59:10Z</time>
      </trkpt>
      <trkpt lat="44.17299" lon="0.71853">
        <ele>-40.4</ele>
        <time>2016-05-16T13:59:18Z</time>
      </trkpt>
      <trkpt lat="44.17299" lon="0.71845">
        <ele>-40.6</ele>
        <time>2016-05-16T13:59:19Z</time>
      </trkpt>
      <trkpt lat="44.17299" lon="0.71781">
        <ele>-40.4</ele>
        <time>2016-05-16T13:59:27Z</time>
      </trkpt>
      <trkpt lat="44.17299" lon="0.71716">
        <ele>-40.6</ele>
        <time>2016-05-16T13:59:35Z</time>
      </trkpt>
      <trkpt lat="44.17299" lon="0.71648">
        <ele>-40.8</ele>
        <time>2016-05-16T13:59:44Z</time>
      </trkpt>
      <trkpt lat="44.17299" lon="0.71573">
        <ele>-41.2</ele>
        <time>2016-05-16T13:59:54Z</time>
      </trkpt>
      <trkpt lat="44.17299" lon="0.71565">
        <ele>-41.2</ele>
        <time>2016-05-16T13:59:55Z</time>
      </trkpt>
      <trkpt lat="44.17299" lon="0.71488">
        <ele>-41</ele>
        <time>2016-05-16T14:00:05Z</time>
      </trkpt>
      <trkpt lat="44.173" lon="0.71435">
        <ele>-40.8</ele>
        <time>2016-05-16T14:00:12Z</time>
      </trkpt>
      <trkpt lat="44.173" lon="0.71364">
        <ele>-41.4</ele>
        <time>2016-05-16T14:00:21Z</time>
      </trkpt>
      <trkpt lat="44.173" lon="0.71355">
        <ele>-41.6</ele>
        <time>2016-05-16T14:00:22Z</time>
      </trkpt>
      <trkpt lat="44.173" lon="0.71292">
        <ele>-41.8</ele>
        <time>2016-05-16T14:00:30Z</time>
      </trkpt>
      <trkpt lat="44.173" lon="0.71213">
        <ele>-41.8</ele>
        <time>2016-05-16T14:00:40Z</time>
      </trkpt>
      <trkpt lat="44.173" lon="0.71152">
        <ele>-41.8</ele>
        <time>2016-05-16T14:00:48Z</time>
      </trkpt>
      <trkpt lat="44.173" lon="0.71097">
        <ele>-42.2</ele>
        <time>2016-05-16T14:00:55Z</time>
      </trkpt>
      <trkpt lat="44.17298" lon="0.7103">
        <ele>-42.2</ele>
        <time>2016-05-16T14:01:04Z</time>
      </trkpt>
      <trkpt lat="44.17297" lon="0.70976">
        <ele>-42.4</ele>
        <time>2016-05-16T14:01:11Z</time>
      </trkpt>
      <trkpt lat="44.17295" lon="0.70933">
        <ele>-42.2</ele>
        <time>2016-05-16T14:01:17Z</time>
      </trkpt>
      <trkpt lat="44.17293" lon="0.70874">
        <ele>-42.4</ele>
        <time>2016-05-16T14:01:25Z</time>
      </trkpt>
      <trkpt lat="44.17291" lon="0.70851">
        <ele>-42.6</ele>
        <time>2016-05-16T14:01:28Z</time>
      </trkpt>
      <trkpt lat="44.1729" lon="0.70822">
        <ele>-42.4</ele>
        <time>2016-05-16T14:01:32Z</time>
      </trkpt>
      <trkpt lat="44.17286" lon="0.70771">
        <ele>-42.6</ele>
        <time>2016-05-16T14:01:39Z</time>
      </trkpt>
      <trkpt lat="44.17282" lon="0.70705">
        <ele>-42.2</ele>
        <time>2016-05-16T14:01:48Z</time>
      </trkpt>
      <trkpt lat="44.17276" lon="0.70631">
        <ele>-42.6</ele>
        <time>2016-05-16T14:01:58Z</time>
      </trkpt>
      <trkpt lat="44.17272" lon="0.70574">
        <ele>-41.8</ele>
        <time>2016-05-16T14:02:06Z</time>
      </trkpt>
      <trkpt lat="44.17268" lon="0.70516">
        <ele>-42.2</ele>
        <time>2016-05-16T14:02:14Z</time>
      </trkpt>
      <trkpt lat="44.17264" lon="0.70454">
        <ele>-42.6</ele>
        <time>2016-05-16T14:02:22Z</time>
      </trkpt>
      <trkpt lat="44.17259" lon="0.70392">
        <ele>-42.4</ele>
        <time>2016-05-16T14:02:30Z</time>
      </trkpt>
      <trkpt lat="44.17254" lon="0.70325">
        <ele>-42.2</ele>
        <time>2016-05-16T14:02:39Z</time>
      </trkpt>
      <trkpt lat="44.17251" lon="0.7026">
        <ele>-42.2</ele>
        <time>2016-05-16T14:02:48Z</time>
      </trkpt>
      <trkpt lat="44.17249" lon="0.70231">
        <ele>-41.6</ele>
        <time>2016-05-16T14:02:52Z</time>
      </trkpt>
      <trkpt lat="44.17248" lon="0.70195">
        <ele>-42.2</ele>
        <time>2016-05-16T14:02:57Z</time>
      </trkpt>
      <trkpt lat="44.17247" lon="0.70136">
        <ele>-42</ele>
        <time>2016-05-16T14:03:05Z</time>
      </trkpt>
      <trkpt lat="44.17249" lon="0.70074">
        <ele>-41.8</ele>
        <time>2016-05-16T14:03:14Z</time>
      </trkpt>
      <trkpt lat="44.17246" lon="0.70041">
        <ele>-41.4</ele>
        <time>2016-05-16T14:03:20Z</time>
      </trkpt>
      <trkpt lat="44.1724" lon="0.70033">
        <ele>-41.6</ele>
        <time>2016-05-16T14:03:23Z</time>
      </trkpt>
      <trkpt lat="44.17238" lon="0.70032">
        <ele>-42</ele>
        <time>2016-05-16T14:03:27Z</time>
      </trkpt>
      <trkpt lat="44.17233" lon="0.70033">
        <ele>-41.8</ele>
        <time>2016-05-16T14:04:09Z</time>
      </trkpt>
      <trkpt lat="44.1723" lon="0.70033">
        <ele>-41.8</ele>
        <time>2016-05-16T14:04:10Z</time>
      </trkpt>
      <trkpt lat="44.17212" lon="0.70031">
        <ele>-41.8</ele>
        <time>2016-05-16T14:04:15Z</time>
      </trkpt>
      <trkpt lat="44.17193" lon="0.7003">
        <ele>-42</ele>
        <time>2016-05-16T14:04:20Z</time>
      </trkpt>
      <trkpt lat="44.17182" lon="0.7003">
        <ele>-42.2</ele>
        <time>2016-05-16T14:04:24Z</time>
      </trkpt>
      <trkpt lat="44.1718" lon="0.70029">
        <ele>-42.2</ele>
        <time>2016-05-16T14:04:25Z</time>
      </trkpt>
      <trkpt lat="44.17169" lon="0.70026">
        <ele>-42.2</ele>
        <time>2016-05-16T14:04:31Z</time>
      </trkpt>
      <trkpt lat="44.17156" lon="0.70022">
        <ele>-42.4</ele>
        <time>2016-05-16T14:04:37Z</time>
      </trkpt>
      <trkpt lat="44.17135" lon="0.70013">
        <ele>-42.4</ele>
        <time>2016-05-16T14:04:44Z</time>
      </trkpt>
      <trkpt lat="44.17112" lon="0.70004">
        <ele>-42.4</ele>
        <time>2016-05-16T14:04:50Z</time>
      </trkpt>
      <trkpt lat="44.17076" lon="0.69989">
        <ele>-42.6</ele>
        <time>2016-05-16T14:04:58Z</time>
      </trkpt>
      <trkpt lat="44.17061" lon="0.69983">
        <ele>-42.8</ele>
        <time>2016-05-16T14:05:01Z</time>
      </trkpt>
      <trkpt lat="44.17031" lon="0.69971">
        <ele>-42.6</ele>
        <time>2016-05-16T14:05:07Z</time>
      </trkpt>
      <trkpt lat="44.17002" lon="0.69953">
        <ele>-43.2</ele>
        <time>2016-05-16T14:05:13Z</time>
      </trkpt>
      <trkpt lat="44.16998" lon="0.69949">
        <ele>-42.8</ele>
        <time>2016-05-16T14:05:14Z</time>
      </trkpt>
      <trkpt lat="44.16967" lon="0.69917">
        <ele>-43.2</ele>
        <time>2016-05-16T14:05:22Z</time>
      </trkpt>
      <trkpt lat="44.16964" lon="0.69913">
        <ele>-43</ele>
        <time>2016-05-16T14:05:23Z</time>
      </trkpt>
      <trkpt lat="44.16955" lon="0.69897">
        <ele>-42.8</ele>
        <time>2016-05-16T14:05:27Z</time>
      </trkpt>
      <trkpt lat="44.16953" lon="0.69885">
        <ele>-43.2</ele>
        <time>2016-05-16T14:05:31Z</time>
      </trkpt>
      <trkpt lat="44.16953" lon="0.69884">
        <ele>-43.2</ele>
        <time>2016-05-16T14:05:46Z</time>
      </trkpt>
      <trkpt lat="44.16956" lon="0.69877">
        <ele>-43</ele>
        <time>2016-05-16T14:05:49Z</time>
      </trkpt>
      <trkpt lat="44.16965" lon="0.69858">
        <ele>-42.8</ele>
        <time>2016-05-16T14:05:54Z</time>
      </trkpt>
      <trkpt lat="44.16973" lon="0.69827">
        <ele>-42.8</ele>
        <time>2016-05-16T14:06:00Z</time>
      </trkpt>
      <trkpt lat="44.16973" lon="0.69814">
        <ele>-42.8</ele>
        <time>2016-05-16T14:06:04Z</time>
      </trkpt>
      <trkpt lat="44.16971" lon="0.69823">
        <ele>-42.8</ele>
        <time>2016-05-16T14:06:26Z</time>
      </trkpt>
      <trkpt lat="44.16968" lon="0.69832">
        <ele>-42.8</ele>
        <time>2016-05-16T14:06:28Z</time>
      </trkpt>
      <trkpt lat="44.16952" lon="0.69866">
        <ele>-43</ele>
        <time>2016-05-16T14:06:34Z</time>
      </trkpt>
      <trkpt lat="44.16938" lon="0.69895">
        <ele>-42.6</ele>
        <time>2016-05-16T14:06:39Z</time>
      </trkpt>
      <trkpt lat="44.16932" lon="0.69905">
        <ele>-43</ele>
        <time>2016-05-16T14:06:41Z</time>
      </trkpt>
      <trkpt lat="44.16916" lon="0.69939">
        <ele>-42.4</ele>
        <time>2016-05-16T14:06:48Z</time>
      </trkpt>
      <trkpt lat="44.16905" lon="0.69957">
        <ele>-42.2</ele>
        <time>2016-05-16T14:06:54Z</time>
      </trkpt>
      <trkpt lat="44.16894" lon="0.6995">
        <ele>-42.8</ele>
        <time>2016-05-16T14:06:58Z</time>
      </trkpt>
      <trkpt lat="44.16884" lon="0.69937">
        <ele>-43.2</ele>
        <time>2016-05-16T14:07:01Z</time>
      </trkpt>
      <trkpt lat="44.16878" lon="0.69928">
        <ele>-43.2</ele>
        <time>2016-05-16T14:07:03Z</time>
      </trkpt>
      <trkpt lat="44.16855" lon="0.6989">
        <ele>-42.8</ele>
        <time>2016-05-16T14:07:11Z</time>
      </trkpt>
      <trkpt lat="44.16841" lon="0.69849">
        <ele>-42</ele>
        <time>2016-05-16T14:07:18Z</time>
      </trkpt>
      <trkpt lat="44.16836" lon="0.69832">
        <ele>-41.8</ele>
        <time>2016-05-16T14:07:21Z</time>
      </trkpt>
      <trkpt lat="44.16829" lon="0.69816">
        <ele>-42</ele>
        <time>2016-05-16T14:07:24Z</time>
      </trkpt>
      <trkpt lat="44.16822" lon="0.69806">
        <ele>-42</ele>
        <time>2016-05-16T14:07:26Z</time>
      </trkpt>
      <trkpt lat="44.16811" lon="0.69793">
        <ele>-41.8</ele>
        <time>2016-05-16T14:07:29Z</time>
      </trkpt>
      <trkpt lat="44.16772" lon="0.69759">
        <ele>-41.6</ele>
        <time>2016-05-16T14:07:38Z</time>
      </trkpt>
      <trkpt lat="44.16737" lon="0.69729">
        <ele>-41.4</ele>
        <time>2016-05-16T14:07:46Z</time>
      </trkpt>
      <trkpt lat="44.16719" lon="0.69713">
        <ele>-40.6</ele>
        <time>2016-05-16T14:07:51Z</time>
      </trkpt>
      <trkpt lat="44.16715" lon="0.6971">
        <ele>-40.6</ele>
        <time>2016-05-16T14:07:52Z</time>
      </trkpt>
      <trkpt lat="44.16699" lon="0.69696">
        <ele>-39.6</ele>
        <time>2016-05-16T14:07:57Z</time>
      </trkpt>
      <trkpt lat="44.16696" lon="0.69694">
        <ele>-39.4</ele>
        <time>2016-05-16T14:07:58Z</time>
      </trkpt>
      <trkpt lat="44.1668" lon="0.69679">
        <ele>-38.4</ele>
        <time>2016-05-16T14:08:03Z</time>
      </trkpt>
      <trkpt lat="44.16674" lon="0.69674">
        <ele>-37.8</ele>
        <time>2016-05-16T14:08:05Z</time>
      </trkpt>
      <trkpt lat="44.16666" lon="0.69665">
        <ele>-37.4</ele>
        <time>2016-05-16T14:08:08Z</time>
      </trkpt>
      <trkpt lat="44.16658" lon="0.69657">
        <ele>-36.6</ele>
        <time>2016-05-16T14:08:12Z</time>
      </trkpt>
      <trkpt lat="44.16661" lon="0.69643">
        <ele>-36.6</ele>
        <time>2016-05-16T14:08:16Z</time>
      </trkpt>
      <trkpt lat="44.16672" lon="0.69616">
        <ele>-37.4</ele>
        <time>2016-05-16T14:08:21Z</time>
      </trkpt>
      <trkpt lat="44.16682" lon="0.69595">
        <ele>-38.6</ele>
        <time>2016-05-16T14:08:24Z</time>
      </trkpt>
      <trkpt lat="44.16688" lon="0.69579">
        <ele>-38.6</ele>
        <time>2016-05-16T14:08:26Z</time>
      </trkpt>
      <trkpt lat="44.16699" lon="0.69555">
        <ele>-40.2</ele>
        <time>2016-05-16T14:08:29Z</time>
      </trkpt>
      <trkpt lat="44.16714" lon="0.69525">
        <ele>-40.6</ele>
        <time>2016-05-16T14:08:33Z</time>
      </trkpt>
      <trkpt lat="44.16733" lon="0.69484">
        <ele>-41.8</ele>
        <time>2016-05-16T14:08:39Z</time>
      </trkpt>
      <trkpt lat="44.16736" lon="0.69478">
        <ele>-41.4</ele>
        <time>2016-05-16T14:08:40Z</time>
      </trkpt>
      <trkpt lat="44.16755" lon="0.69441">
        <ele>-41.4</ele>
        <time>2016-05-16T14:08:46Z</time>
      </trkpt>
      <trkpt lat="44.16778" lon="0.69392">
        <ele>-41.6</ele>
        <time>2016-05-16T14:08:54Z</time>
      </trkpt>
      <trkpt lat="44.16807" lon="0.69332">
        <ele>-41.8</ele>
        <time>2016-05-16T14:09:04Z</time>
      </trkpt>
      <trkpt lat="44.16812" lon="0.6931">
        <ele>-40.8</ele>
        <time>2016-05-16T14:09:08Z</time>
      </trkpt>
      <trkpt lat="44.16816" lon="0.693">
        <ele>-40.6</ele>
        <time>2016-05-16T14:09:10Z</time>
      </trkpt>
      <trkpt lat="44.16828" lon="0.69275">
        <ele>-40.6</ele>
        <time>2016-05-16T14:09:15Z</time>
      </trkpt>
      <trkpt lat="44.16848" lon="0.69231">
        <ele>-40.6</ele>
        <time>2016-05-16T14:09:23Z</time>
      </trkpt>
      <trkpt lat="44.16871" lon="0.69185">
        <ele>-40.4</ele>
        <time>2016-05-16T14:09:31Z</time>
      </trkpt>
      <trkpt lat="44.16898" lon="0.69132">
        <ele>-40.4</ele>
        <time>2016-05-16T14:09:40Z</time>
      </trkpt>
      <trkpt lat="44.16924" lon="0.69077">
        <ele>-40.6</ele>
        <time>2016-05-16T14:09:49Z</time>
      </trkpt>
      <trkpt lat="44.16944" lon="0.69025">
        <ele>-40.6</ele>
        <time>2016-05-16T14:09:57Z</time>
      </trkpt>
      <trkpt lat="44.16945" lon="0.69018">
        <ele>-40.6</ele>
        <time>2016-05-16T14:09:58Z</time>
      </trkpt>
      <trkpt lat="44.16951" lon="0.69001">
        <ele>-40.8</ele>
        <time>2016-05-16T14:10:01Z</time>
      </trkpt>
      <trkpt lat="44.16954" lon="0.68995">
        <ele>-41</ele>
        <time>2016-05-16T14:10:02Z</time>
      </trkpt>
      <trkpt lat="44.16962" lon="0.68979">
        <ele>-41</ele>
        <time>2016-05-16T14:10:05Z</time>
      </trkpt>
      <trkpt lat="44.1697" lon="0.68973">
        <ele>-40.8</ele>
        <time>2016-05-16T14:10:07Z</time>
      </trkpt>
      <trkpt lat="44.16974" lon="0.68969">
        <ele>-40.8</ele>
        <time>2016-05-16T14:10:08Z</time>
      </trkpt>
      <trkpt lat="44.16983" lon="0.68953">
        <ele>-40.8</ele>
        <time>2016-05-16T14:10:11Z</time>
      </trkpt>
      <trkpt lat="44.17002" lon="0.68912">
        <ele>-40.8</ele>
        <time>2016-05-16T14:10:18Z</time>
      </trkpt>
      <trkpt lat="44.17019" lon="0.68862">
        <ele>-40.8</ele>
        <time>2016-05-16T14:10:26Z</time>
      </trkpt>
      <trkpt lat="44.17037" lon="0.68803">
        <ele>-40.8</ele>
        <time>2016-05-16T14:10:35Z</time>
      </trkpt>
      <trkpt lat="44.17053" lon="0.68739">
        <ele>-41</ele>
        <time>2016-05-16T14:10:44Z</time>
      </trkpt>
      <trkpt lat="44.17066" lon="0.68673">
        <ele>-41.6</ele>
        <time>2016-05-16T14:10:53Z</time>
      </trkpt>
      <trkpt lat="44.17074" lon="0.68622">
        <ele>-40.8</ele>
        <time>2016-05-16T14:11:00Z</time>
      </trkpt>
      <trkpt lat="44.17077" lon="0.68609">
        <ele>-40.6</ele>
        <time>2016-05-16T14:11:02Z</time>
      </trkpt>
      <trkpt lat="44.17084" lon="0.68584">
        <ele>-40.4</ele>
        <time>2016-05-16T14:11:06Z</time>
      </trkpt>
      <trkpt lat="44.17086" lon="0.68579">
        <ele>-39.8</ele>
        <time>2016-05-16T14:11:07Z</time>
      </trkpt>
      <trkpt lat="44.17087" lon="0.68573">
        <ele>-39.6</ele>
        <time>2016-05-16T14:11:08Z</time>
      </trkpt>
      <trkpt lat="44.17089" lon="0.68561">
        <ele>-38.8</ele>
        <time>2016-05-16T14:11:10Z</time>
      </trkpt>
      <trkpt lat="44.1709" lon="0.68555">
        <ele>-38.4</ele>
        <time>2016-05-16T14:11:11Z</time>
      </trkpt>
      <trkpt lat="44.17092" lon="0.68545">
        <ele>-37.8</ele>
        <time>2016-05-16T14:11:13Z</time>
      </trkpt>
      <trkpt lat="44.17094" lon="0.68542">
        <ele>-37.4</ele>
        <time>2016-05-16T14:11:14Z</time>
      </trkpt>
      <trkpt lat="44.17098" lon="0.68537">
        <ele>-36.6</ele>
        <time>2016-05-16T14:11:17Z</time>
      </trkpt>
      <trkpt lat="44.17099" lon="0.68536">
        <ele>-36.4</ele>
        <time>2016-05-16T14:11:18Z</time>
      </trkpt>
      <trkpt lat="44.171" lon="0.68522">
        <ele>-36.4</ele>
        <time>2016-05-16T14:11:22Z</time>
      </trkpt>
      <trkpt lat="44.171" lon="0.68516">
        <ele>-36.8</ele>
        <time>2016-05-16T14:11:23Z</time>
      </trkpt>
      <trkpt lat="44.17099" lon="0.6851">
        <ele>-37.2</ele>
        <time>2016-05-16T14:11:24Z</time>
      </trkpt>
      <trkpt lat="44.171" lon="0.68504">
        <ele>-37.6</ele>
        <time>2016-05-16T14:11:25Z</time>
      </trkpt>
      <trkpt lat="44.17101" lon="0.68487">
        <ele>-38</ele>
        <time>2016-05-16T14:11:27Z</time>
      </trkpt>
      <trkpt lat="44.17102" lon="0.68468">
        <ele>-39.2</ele>
        <time>2016-05-16T14:11:29Z</time>
      </trkpt>
      <trkpt lat="44.17104" lon="0.68437">
        <ele>-39.8</ele>
        <time>2016-05-16T14:11:32Z</time>
      </trkpt>
      <trkpt lat="44.17105" lon="0.68427">
        <ele>-40.2</ele>
        <time>2016-05-16T14:11:33Z</time>
      </trkpt>
      <trkpt lat="44.17112" lon="0.68373">
        <ele>-40.4</ele>
        <time>2016-05-16T14:11:39Z</time>
      </trkpt>
      <trkpt lat="44.1712" lon="0.68319">
        <ele>-40.2</ele>
        <time>2016-05-16T14:11:46Z</time>
      </trkpt>
      <trkpt lat="44.17128" lon="0.68262">
        <ele>-40.2</ele>
        <time>2016-05-16T14:11:54Z</time>
      </trkpt>
      <trkpt lat="44.17139" lon="0.68206">
        <ele>-40</ele>
        <time>2016-05-16T14:12:02Z</time>
      </trkpt>
      <trkpt lat="44.17147" lon="0.68168">
        <ele>-40</ele>
        <time>2016-05-16T14:12:07Z</time>
      </trkpt>
      <trkpt lat="44.1715" lon="0.68143">
        <ele>-40.2</ele>
        <time>2016-05-16T14:12:10Z</time>
      </trkpt>
      <trkpt lat="44.17157" lon="0.68099">
        <ele>-40.2</ele>
        <time>2016-05-16T14:12:16Z</time>
      </trkpt>
      <trkpt lat="44.17163" lon="0.68072">
        <ele>-40.4</ele>
        <time>2016-05-16T14:12:20Z</time>
      </trkpt>
      <trkpt lat="44.17162" lon="0.68066">
        <ele>-40.4</ele>
        <time>2016-05-16T14:12:21Z</time>
      </trkpt>
      <trkpt lat="44.17162" lon="0.68039">
        <ele>-40.6</ele>
        <time>2016-05-16T14:12:25Z</time>
      </trkpt>
      <trkpt lat="44.17163" lon="0.68031">
        <ele>-40.6</ele>
        <time>2016-05-16T14:12:26Z</time>
      </trkpt>
      <trkpt lat="44.17166" lon="0.68002">
        <ele>-40.6</ele>
        <time>2016-05-16T14:12:30Z</time>
      </trkpt>
      <trkpt lat="44.17168" lon="0.6798">
        <ele>-40.8</ele>
        <time>2016-05-16T14:12:33Z</time>
      </trkpt>
      <trkpt lat="44.17175" lon="0.67919">
        <ele>-40.8</ele>
        <time>2016-05-16T14:12:41Z</time>
      </trkpt>
      <trkpt lat="44.17186" lon="0.67842">
        <ele>-40.6</ele>
        <time>2016-05-16T14:12:51Z</time>
      </trkpt>
      <trkpt lat="44.17197" lon="0.67764">
        <ele>-40.6</ele>
        <time>2016-05-16T14:13:01Z</time>
      </trkpt>
      <trkpt lat="44.17208" lon="0.67689">
        <ele>-40.2</ele>
        <time>2016-05-16T14:13:11Z</time>
      </trkpt>
      <trkpt lat="44.17216" lon="0.67637">
        <ele>-40.4</ele>
        <time>2016-05-16T14:13:18Z</time>
      </trkpt>
      <trkpt lat="44.17227" lon="0.6757">
        <ele>-40.4</ele>
        <time>2016-05-16T14:13:27Z</time>
      </trkpt>
      <trkpt lat="44.17233" lon="0.67516">
        <ele>-40.4</ele>
        <time>2016-05-16T14:13:34Z</time>
      </trkpt>
      <trkpt lat="44.17243" lon="0.67445">
        <ele>-40.6</ele>
        <time>2016-05-16T14:13:43Z</time>
      </trkpt>
      <trkpt lat="44.17253" lon="0.67385">
        <ele>-40.8</ele>
        <time>2016-05-16T14:13:51Z</time>
      </trkpt>
      <trkpt lat="44.1726" lon="0.6733">
        <ele>-40.8</ele>
        <time>2016-05-16T14:13:58Z</time>
      </trkpt>
      <trkpt lat="44.17268" lon="0.67293">
        <ele>-40.8</ele>
        <time>2016-05-16T14:14:03Z</time>
      </trkpt>
      <trkpt lat="44.17269" lon="0.67286">
        <ele>-40.8</ele>
        <time>2016-05-16T14:14:04Z</time>
      </trkpt>
      <trkpt lat="44.17275" lon="0.6723">
        <ele>-40.6</ele>
        <time>2016-05-16T14:14:12Z</time>
      </trkpt>
      <trkpt lat="44.17276" lon="0.67224">
        <ele>-40.8</ele>
        <time>2016-05-16T14:14:13Z</time>
      </trkpt>
      <trkpt lat="44.17279" lon="0.672">
        <ele>-40.6</ele>
        <time>2016-05-16T14:14:17Z</time>
      </trkpt>
      <trkpt lat="44.17289" lon="0.67128">
        <ele>-40.8</ele>
        <time>2016-05-16T14:14:27Z</time>
      </trkpt>
      <trkpt lat="44.17299" lon="0.67061">
        <ele>-40.6</ele>
        <time>2016-05-16T14:14:36Z</time>
      </trkpt>
      <trkpt lat="44.17311" lon="0.66995">
        <ele>-40.4</ele>
        <time>2016-05-16T14:14:45Z</time>
      </trkpt>
      <trkpt lat="44.17325" lon="0.66929">
        <ele>-40.8</ele>
        <time>2016-05-16T14:14:54Z</time>
      </trkpt>
      <trkpt lat="44.17339" lon="0.66879">
        <ele>-40.8</ele>
        <time>2016-05-16T14:15:01Z</time>
      </trkpt>
      <trkpt lat="44.17363" lon="0.66811">
        <ele>-40.6</ele>
        <time>2016-05-16T14:15:11Z</time>
      </trkpt>
      <trkpt lat="44.17384" lon="0.66766">
        <ele>-40.6</ele>
        <time>2016-05-16T14:15:19Z</time>
      </trkpt>
      <trkpt lat="44.17404" lon="0.6673">
        <ele>-41</ele>
        <time>2016-05-16T14:15:26Z</time>
      </trkpt>
      <trkpt lat="44.17429" lon="0.66694">
        <ele>-40.8</ele>
        <time>2016-05-16T14:15:33Z</time>
      </trkpt>
      <trkpt lat="44.17447" lon="0.66672">
        <ele>-40.8</ele>
        <time>2016-05-16T14:15:38Z</time>
      </trkpt>
      <trkpt lat="44.17459" lon="0.66658">
        <ele>-40.8</ele>
        <time>2016-05-16T14:15:41Z</time>
      </trkpt>
      <trkpt lat="44.17501" lon="0.66616">
        <ele>-40.8</ele>
        <time>2016-05-16T14:15:51Z</time>
      </trkpt>
      <trkpt lat="44.17536" lon="0.66585">
        <ele>-40.4</ele>
        <time>2016-05-16T14:15:59Z</time>
      </trkpt>
      <trkpt lat="44.17567" lon="0.66556">
        <ele>-40.6</ele>
        <time>2016-05-16T14:16:06Z</time>
      </trkpt>
      <trkpt lat="44.17609" lon="0.66515">
        <ele>-40.8</ele>
        <time>2016-05-16T14:16:16Z</time>
      </trkpt>
      <trkpt lat="44.1765" lon="0.66479">
        <ele>-40.6</ele>
        <time>2016-05-16T14:16:26Z</time>
      </trkpt>
      <trkpt lat="44.17666" lon="0.6648">
        <ele>-40.8</ele>
        <time>2016-05-16T14:16:30Z</time>
      </trkpt>
      <trkpt lat="44.17681" lon="0.66482">
        <ele>-40.2</ele>
        <time>2016-05-16T14:16:34Z</time>
      </trkpt>
      <trkpt lat="44.17691" lon="0.66471">
        <ele>-40.2</ele>
        <time>2016-05-16T14:16:37Z</time>
      </trkpt>
      <trkpt lat="44.17695" lon="0.66467">
        <ele>-40.4</ele>
        <time>2016-05-16T14:16:38Z</time>
      </trkpt>
      <trkpt lat="44.17704" lon="0.66454">
        <ele>-39.8</ele>
        <time>2016-05-16T14:16:41Z</time>
      </trkpt>
      <trkpt lat="44.17707" lon="0.66441">
        <ele>-39.8</ele>
        <time>2016-05-16T14:16:43Z</time>
      </trkpt>
      <trkpt lat="44.17718" lon="0.66419">
        <ele>-40</ele>
        <time>2016-05-16T14:16:47Z</time>
      </trkpt>
      <trkpt lat="44.17722" lon="0.66415">
        <ele>-39.8</ele>
        <time>2016-05-16T14:16:48Z</time>
      </trkpt>
      <trkpt lat="44.1773" lon="0.66406">
        <ele>-40</ele>
        <time>2016-05-16T14:16:51Z</time>
      </trkpt>
      <trkpt lat="44.17742" lon="0.66389">
        <ele>-40.8</ele>
        <time>2016-05-16T14:16:54Z</time>
      </trkpt>
      <trkpt lat="44.17773" lon="0.66358">
        <ele>-40.8</ele>
        <time>2016-05-16T14:17:01Z</time>
      </trkpt>
      <trkpt lat="44.17802" lon="0.66331">
        <ele>-40.4</ele>
        <time>2016-05-16T14:17:08Z</time>
      </trkpt>
      <trkpt lat="44.17835" lon="0.66301">
        <ele>-40.6</ele>
        <time>2016-05-16T14:17:16Z</time>
      </trkpt>
      <trkpt lat="44.17867" lon="0.66271">
        <ele>-40.6</ele>
        <time>2016-05-16T14:17:24Z</time>
      </trkpt>
      <trkpt lat="44.17874" lon="0.66263">
        <ele>-40.6</ele>
        <time>2016-05-16T14:17:26Z</time>
      </trkpt>
      <trkpt lat="44.17887" lon="0.66251">
        <ele>-40.6</ele>
        <time>2016-05-16T14:17:30Z</time>
      </trkpt>
      <trkpt lat="44.17898" lon="0.66242">
        <ele>-40.4</ele>
        <time>2016-05-16T14:17:33Z</time>
      </trkpt>
      <trkpt lat="44.1791" lon="0.6623">
        <ele>-40.4</ele>
        <time>2016-05-16T14:17:36Z</time>
      </trkpt>
      <trkpt lat="44.17938" lon="0.66204">
        <ele>-40</ele>
        <time>2016-05-16T14:17:43Z</time>
      </trkpt>
      <trkpt lat="44.17959" lon="0.66184">
        <ele>-40</ele>
        <time>2016-05-16T14:17:48Z</time>
      </trkpt>
      <trkpt lat="44.17968" lon="0.66176">
        <ele>-40.2</ele>
        <time>2016-05-16T14:17:50Z</time>
      </trkpt>
      <trkpt lat="44.18002" lon="0.66142">
        <ele>-40.4</ele>
        <time>2016-05-16T14:17:58Z</time>
      </trkpt>
      <trkpt lat="44.18042" lon="0.66104">
        <ele>-39.8</ele>
        <time>2016-05-16T14:18:07Z</time>
      </trkpt>
      <trkpt lat="44.18083" lon="0.66066">
        <ele>-40</ele>
        <time>2016-05-16T14:18:16Z</time>
      </trkpt>
      <trkpt lat="44.18118" lon="0.66033">
        <ele>-40.4</ele>
        <time>2016-05-16T14:18:24Z</time>
      </trkpt>
      <trkpt lat="44.18154" lon="0.65998">
        <ele>-40.4</ele>
        <time>2016-05-16T14:18:33Z</time>
      </trkpt>
      <trkpt lat="44.18194" lon="0.65959">
        <ele>-40.6</ele>
        <time>2016-05-16T14:18:43Z</time>
      </trkpt>
      <trkpt lat="44.18228" lon="0.65928">
        <ele>-40.4</ele>
        <time>2016-05-16T14:18:51Z</time>
      </trkpt>
      <trkpt lat="44.18262" lon="0.65894">
        <ele>-40.6</ele>
        <time>2016-05-16T14:18:59Z</time>
      </trkpt>
      <trkpt lat="44.18266" lon="0.6589">
        <ele>-40.6</ele>
        <time>2016-05-16T14:19:00Z</time>
      </trkpt>
      <trkpt lat="44.18303" lon="0.65848">
        <ele>-40.4</ele>
        <time>2016-05-16T14:19:09Z</time>
      </trkpt>
      <trkpt lat="44.18345" lon="0.65795">
        <ele>-40.2</ele>
        <time>2016-05-16T14:19:19Z</time>
      </trkpt>
      <trkpt lat="44.18379" lon="0.65745">
        <ele>-40.4</ele>
        <time>2016-05-16T14:19:28Z</time>
      </trkpt>
      <trkpt lat="44.18405" lon="0.65716">
        <ele>-40.6</ele>
        <time>2016-05-16T14:19:34Z</time>
      </trkpt>
      <trkpt lat="44.18427" lon="0.65681">
        <ele>-40.8</ele>
        <time>2016-05-16T14:19:40Z</time>
      </trkpt>
      <trkpt lat="44.18457" lon="0.65631">
        <ele>-40.6</ele>
        <time>2016-05-16T14:19:48Z</time>
      </trkpt>
      <trkpt lat="44.18491" lon="0.65576">
        <ele>-41</ele>
        <time>2016-05-16T14:19:57Z</time>
      </trkpt>
      <trkpt lat="44.18523" lon="0.65523">
        <ele>-40</ele>
        <time>2016-05-16T14:20:06Z</time>
      </trkpt>
      <trkpt lat="44.18545" lon="0.65485">
        <ele>-40</ele>
        <time>2016-05-16T14:20:12Z</time>
      </trkpt>
      <trkpt lat="44.18579" lon="0.65431">
        <ele>-40</ele>
        <time>2016-05-16T14:20:21Z</time>
      </trkpt>
      <trkpt lat="44.1861" lon="0.65378">
        <ele>-39.4</ele>
        <time>2016-05-16T14:20:30Z</time>
      </trkpt>
      <trkpt lat="44.18638" lon="0.65333">
        <ele>-39.8</ele>
        <time>2016-05-16T14:20:38Z</time>
      </trkpt>
      <trkpt lat="44.18671" lon="0.65291">
        <ele>-40</ele>
        <time>2016-05-16T14:20:46Z</time>
      </trkpt>
      <trkpt lat="44.18676" lon="0.65288">
        <ele>-39.8</ele>
        <time>2016-05-16T14:20:47Z</time>
      </trkpt>
      <trkpt lat="44.1869" lon="0.6528">
        <ele>-40.2</ele>
        <time>2016-05-16T14:20:50Z</time>
      </trkpt>
      <trkpt lat="44.18695" lon="0.65276">
        <ele>-40</ele>
        <time>2016-05-16T14:20:51Z</time>
      </trkpt>
      <trkpt lat="44.18721" lon="0.65257">
        <ele>-39.8</ele>
        <time>2016-05-16T14:20:56Z</time>
      </trkpt>
      <trkpt lat="44.18741" lon="0.65244">
        <ele>-39</ele>
        <time>2016-05-16T14:21:00Z</time>
      </trkpt>
      <trkpt lat="44.18756" lon="0.65237">
        <ele>-38.2</ele>
        <time>2016-05-16T14:21:03Z</time>
      </trkpt>
      <trkpt lat="44.18761" lon="0.65235">
        <ele>-38</ele>
        <time>2016-05-16T14:21:04Z</time>
      </trkpt>
      <trkpt lat="44.18794" lon="0.6522">
        <ele>-39</ele>
        <time>2016-05-16T14:21:10Z</time>
      </trkpt>
      <trkpt lat="44.18835" lon="0.6521">
        <ele>-40</ele>
        <time>2016-05-16T14:21:16Z</time>
      </trkpt>
      <trkpt lat="44.18853" lon="0.6521">
        <ele>-39.8</ele>
        <time>2016-05-16T14:21:19Z</time>
      </trkpt>
      <trkpt lat="44.18859" lon="0.6521">
        <ele>-40</ele>
        <time>2016-05-16T14:21:20Z</time>
      </trkpt>
      <trkpt lat="44.18871" lon="0.65211">
        <ele>-40.6</ele>
        <time>2016-05-16T14:21:22Z</time>
      </trkpt>
      <trkpt lat="44.18919" lon="0.6522">
        <ele>-40.6</ele>
        <time>2016-05-16T14:21:30Z</time>
      </trkpt>
      <trkpt lat="44.18934" lon="0.65226">
        <ele>-40.4</ele>
        <time>2016-05-16T14:21:33Z</time>
      </trkpt>
      <trkpt lat="44.1894" lon="0.65236">
        <ele>-40.4</ele>
        <time>2016-05-16T14:21:35Z</time>
      </trkpt>
      <trkpt lat="44.18943" lon="0.65248">
        <ele>-40.2</ele>
        <time>2016-05-16T14:21:37Z</time>
      </trkpt>
      <trkpt lat="44.18945" lon="0.65254">
        <ele>-40.4</ele>
        <time>2016-05-16T14:21:38Z</time>
      </trkpt>
      <trkpt lat="44.18947" lon="0.65259">
        <ele>-40.4</ele>
        <time>2016-05-16T14:21:39Z</time>
      </trkpt>
      <trkpt lat="44.18959" lon="0.65262">
        <ele>-40.4</ele>
        <time>2016-05-16T14:21:42Z</time>
      </trkpt>
      <trkpt lat="44.18972" lon="0.65252">
        <ele>-40.4</ele>
        <time>2016-05-16T14:21:45Z</time>
      </trkpt>
      <trkpt lat="44.18976" lon="0.6525">
        <ele>-40</ele>
        <time>2016-05-16T14:21:46Z</time>
      </trkpt>
      <trkpt lat="44.18981" lon="0.65249">
        <ele>-40.2</ele>
        <time>2016-05-16T14:21:47Z</time>
      </trkpt>
      <trkpt lat="44.1899" lon="0.65254">
        <ele>-40</ele>
        <time>2016-05-16T14:21:49Z</time>
      </trkpt>
      <trkpt lat="44.19017" lon="0.65273">
        <ele>-40.2</ele>
        <time>2016-05-16T14:21:55Z</time>
      </trkpt>
      <trkpt lat="44.19024" lon="0.65283">
        <ele>-40.2</ele>
        <time>2016-05-16T14:21:57Z</time>
      </trkpt>
      <trkpt lat="44.19038" lon="0.65301">
        <ele>-40.2</ele>
        <time>2016-05-16T14:22:01Z</time>
      </trkpt>
      <trkpt lat="44.19048" lon="0.65308">
        <ele>-40.2</ele>
        <time>2016-05-16T14:22:03Z</time>
      </trkpt>
      <trkpt lat="44.19052" lon="0.65312">
        <ele>-40.2</ele>
        <time>2016-05-16T14:22:04Z</time>
      </trkpt>
      <trkpt lat="44.1906" lon="0.65321">
        <ele>-39.6</ele>
        <time>2016-05-16T14:22:06Z</time>
      </trkpt>
      <trkpt lat="44.19063" lon="0.65324">
        <ele>-39</ele>
        <time>2016-05-16T14:22:07Z</time>
      </trkpt>
      <trkpt lat="44.19066" lon="0.65327">
        <ele>-38.6</ele>
        <time>2016-05-16T14:22:08Z</time>
      </trkpt>
      <trkpt lat="44.19077" lon="0.65334">
        <ele>-38</ele>
        <time>2016-05-16T14:22:11Z</time>
      </trkpt>
      <trkpt lat="44.19107" lon="0.65352">
        <ele>-38.6</ele>
        <time>2016-05-16T14:22:18Z</time>
      </trkpt>
      <trkpt lat="44.19127" lon="0.65349">
        <ele>-39</ele>
        <time>2016-05-16T14:22:22Z</time>
      </trkpt>
      <trkpt lat="44.19165" lon="0.6534">
        <ele>-40.2</ele>
        <time>2016-05-16T14:22:28Z</time>
      </trkpt>
      <trkpt lat="44.19188" lon="0.65328">
        <ele>-40.2</ele>
        <time>2016-05-16T14:22:32Z</time>
      </trkpt>
      <trkpt lat="44.19193" lon="0.65324">
        <ele>-40.2</ele>
        <time>2016-05-16T14:22:33Z</time>
      </trkpt>
      <trkpt lat="44.1922" lon="0.65293">
        <ele>-40.2</ele>
        <time>2016-05-16T14:22:39Z</time>
      </trkpt>
      <trkpt lat="44.19245" lon="0.65249">
        <ele>-40.4</ele>
        <time>2016-05-16T14:22:46Z</time>
      </trkpt>
      <trkpt lat="44.19269" lon="0.65204">
        <ele>-40.4</ele>
        <time>2016-05-16T14:22:53Z</time>
      </trkpt>
      <trkpt lat="44.19302" lon="0.65145">
        <ele>-40.2</ele>
        <time>2016-05-16T14:23:02Z</time>
      </trkpt>
      <trkpt lat="44.19332" lon="0.65089">
        <ele>-40.2</ele>
        <time>2016-05-16T14:23:10Z</time>
      </trkpt>
      <trkpt lat="44.19359" lon="0.65043">
        <ele>-40.2</ele>
        <time>2016-05-16T14:23:17Z</time>
      </trkpt>
      <trkpt lat="44.19388" lon="0.64991">
        <ele>-40</ele>
        <time>2016-05-16T14:23:25Z</time>
      </trkpt>
      <trkpt lat="44.19418" lon="0.64938">
        <ele>-40</ele>
        <time>2016-05-16T14:23:33Z</time>
      </trkpt>
      <trkpt lat="44.19451" lon="0.64878">
        <ele>-40.4</ele>
        <time>2016-05-16T14:23:42Z</time>
      </trkpt>
      <trkpt lat="44.19478" lon="0.6483">
        <ele>-40</ele>
        <time>2016-05-16T14:23:49Z</time>
      </trkpt>
      <trkpt lat="44.19509" lon="0.64778">
        <ele>-40.2</ele>
        <time>2016-05-16T14:23:57Z</time>
      </trkpt>
      <trkpt lat="44.19536" lon="0.64733">
        <ele>-40.2</ele>
        <time>2016-05-16T14:24:04Z</time>
      </trkpt>
      <trkpt lat="44.1954" lon="0.64727">
        <ele>-40.2</ele>
        <time>2016-05-16T14:24:05Z</time>
      </trkpt>
      <trkpt lat="44.19571" lon="0.64688">
        <ele>-40</ele>
        <time>2016-05-16T14:24:12Z</time>
      </trkpt>
      <trkpt lat="44.19608" lon="0.64645">
        <ele>-40.2</ele>
        <time>2016-05-16T14:24:20Z</time>
      </trkpt>
      <trkpt lat="44.19644" lon="0.64609">
        <ele>-40.6</ele>
        <time>2016-05-16T14:24:28Z</time>
      </trkpt>
      <trkpt lat="44.19667" lon="0.64589">
        <ele>-40.4</ele>
        <time>2016-05-16T14:24:34Z</time>
      </trkpt>
      <trkpt lat="44.19696" lon="0.64565">
        <ele>-40.6</ele>
        <time>2016-05-16T14:24:42Z</time>
      </trkpt>
      <trkpt lat="44.1972" lon="0.64548">
        <ele>-40.6</ele>
        <time>2016-05-16T14:24:48Z</time>
      </trkpt>
      <trkpt lat="44.19724" lon="0.64546">
        <ele>-40.4</ele>
        <time>2016-05-16T14:24:49Z</time>
      </trkpt>
      <trkpt lat="44.19763" lon="0.64523">
        <ele>-40.2</ele>
        <time>2016-05-16T14:24:58Z</time>
      </trkpt>
      <trkpt lat="44.19802" lon="0.645">
        <ele>-40.4</ele>
        <time>2016-05-16T14:25:07Z</time>
      </trkpt>
      <trkpt lat="44.19833" lon="0.64482">
        <ele>-40.4</ele>
        <time>2016-05-16T14:25:14Z</time>
      </trkpt>
      <trkpt lat="44.19842" lon="0.64476">
        <ele>-40</ele>
        <time>2016-05-16T14:25:16Z</time>
      </trkpt>
      <trkpt lat="44.1986" lon="0.64467">
        <ele>-40.4</ele>
        <time>2016-05-16T14:25:20Z</time>
      </trkpt>
      <trkpt lat="44.19891" lon="0.6445">
        <ele>-40.4</ele>
        <time>2016-05-16T14:25:27Z</time>
      </trkpt>
      <trkpt lat="44.19927" lon="0.64429">
        <ele>-40.6</ele>
        <time>2016-05-16T14:25:35Z</time>
      </trkpt>
      <trkpt lat="44.19956" lon="0.64413">
        <ele>-40.4</ele>
        <time>2016-05-16T14:25:41Z</time>
      </trkpt>
      <trkpt lat="44.19991" lon="0.64394">
        <ele>-40.6</ele>
        <time>2016-05-16T14:25:48Z</time>
      </trkpt>
      <trkpt lat="44.20034" lon="0.64369">
        <ele>-40.4</ele>
        <time>2016-05-16T14:25:57Z</time>
      </trkpt>
      <trkpt lat="44.20079" lon="0.64344">
        <ele>-40.6</ele>
        <time>2016-05-16T14:26:06Z</time>
      </trkpt>
      <trkpt lat="44.20109" lon="0.64329">
        <ele>-40.6</ele>
        <time>2016-05-16T14:26:12Z</time>
      </trkpt>
      <trkpt lat="44.20154" lon="0.64313">
        <ele>-40.2</ele>
        <time>2016-05-16T14:26:21Z</time>
      </trkpt>
      <trkpt lat="44.20195" lon="0.64304">
        <ele>-40.4</ele>
        <time>2016-05-16T14:26:29Z</time>
      </trkpt>
      <trkpt lat="44.20237" lon="0.643">
        <ele>-40.4</ele>
        <time>2016-05-16T14:26:37Z</time>
      </trkpt>
      <trkpt lat="44.20272" lon="0.64302">
        <ele>-40.2</ele>
        <time>2016-05-16T14:26:44Z</time>
      </trkpt>
      <trkpt lat="44.20318" lon="0.64304">
        <ele>-40.2</ele>
        <time>2016-05-16T14:26:53Z</time>
      </trkpt>
      <trkpt lat="44.20352" lon="0.64306">
        <ele>-40.6</ele>
        <time>2016-05-16T14:27:00Z</time>
      </trkpt>
      <trkpt lat="44.20404" lon="0.64308">
        <ele>-40.6</ele>
        <time>2016-05-16T14:27:10Z</time>
      </trkpt>
      <trkpt lat="44.20434" lon="0.64308">
        <ele>-40.2</ele>
        <time>2016-05-16T14:27:16Z</time>
      </trkpt>
      <trkpt lat="44.20464" lon="0.64309">
        <ele>-40.6</ele>
        <time>2016-05-16T14:27:22Z</time>
      </trkpt>
      <trkpt lat="44.20499" lon="0.64309">
        <ele>-40.4</ele>
        <time>2016-05-16T14:27:29Z</time>
      </trkpt>
      <trkpt lat="44.20539" lon="0.64306">
        <ele>-40</ele>
        <time>2016-05-16T14:27:37Z</time>
      </trkpt>
      <trkpt lat="44.20571" lon="0.64296">
        <ele>-40.2</ele>
        <time>2016-05-16T14:27:43Z</time>
      </trkpt>
      <trkpt lat="44.20594" lon="0.64294">
        <ele>-40.2</ele>
        <time>2016-05-16T14:27:48Z</time>
      </trkpt>
      <trkpt lat="44.20615" lon="0.64287">
        <ele>-40.4</ele>
        <time>2016-05-16T14:27:53Z</time>
      </trkpt>
      <trkpt lat="44.20653" lon="0.6427">
        <ele>-40.6</ele>
        <time>2016-05-16T14:28:01Z</time>
      </trkpt>
      <trkpt lat="44.20658" lon="0.64268">
        <ele>-41.4</ele>
        <time>2016-05-16T14:28:02Z</time>
      </trkpt>
      <trkpt lat="44.20666" lon="0.64263">
        <ele>-40.2</ele>
        <time>2016-05-16T14:28:04Z</time>
      </trkpt>
      <trkpt lat="44.20685" lon="0.64251">
        <ele>-40.6</ele>
        <time>2016-05-16T14:28:08Z</time>
      </trkpt>
      <trkpt lat="44.2072" lon="0.64226">
        <ele>-40.4</ele>
        <time>2016-05-16T14:28:16Z</time>
      </trkpt>
      <trkpt lat="44.20725" lon="0.64223">
        <ele>-40.4</ele>
        <time>2016-05-16T14:28:17Z</time>
      </trkpt>
      <trkpt lat="44.20747" lon="0.64204">
        <ele>-42</ele>
        <time>2016-05-16T14:28:22Z</time>
      </trkpt>
      <trkpt lat="44.20751" lon="0.642">
        <ele>-40</ele>
        <time>2016-05-16T14:28:23Z</time>
      </trkpt>
      <trkpt lat="44.20755" lon="0.64196">
        <ele>-42.2</ele>
        <time>2016-05-16T14:28:24Z</time>
      </trkpt>
      <trkpt lat="44.2076" lon="0.64191">
        <ele>-39.4</ele>
        <time>2016-05-16T14:28:25Z</time>
      </trkpt>
      <trkpt lat="44.2078" lon="0.64169">
        <ele>-39.8</ele>
        <time>2016-05-16T14:28:30Z</time>
      </trkpt>
      <trkpt lat="44.20816" lon="0.64127">
        <ele>-40.2</ele>
        <time>2016-05-16T14:28:39Z</time>
      </trkpt>
      <trkpt lat="44.20824" lon="0.64117">
        <ele>-40.4</ele>
        <time>2016-05-16T14:28:41Z</time>
      </trkpt>
      <trkpt lat="44.20834" lon="0.64103">
        <ele>-40.2</ele>
        <time>2016-05-16T14:28:44Z</time>
      </trkpt>
      <trkpt lat="44.20838" lon="0.64099">
        <ele>-39.8</ele>
        <time>2016-05-16T14:28:45Z</time>
      </trkpt>
      <trkpt lat="44.20866" lon="0.64065">
        <ele>-40.2</ele>
        <time>2016-05-16T14:28:52Z</time>
      </trkpt>
      <trkpt lat="44.20895" lon="0.64033">
        <ele>-40.6</ele>
        <time>2016-05-16T14:28:59Z</time>
      </trkpt>
      <trkpt lat="44.20925" lon="0.63996">
        <ele>-40.4</ele>
        <time>2016-05-16T14:29:07Z</time>
      </trkpt>
      <trkpt lat="44.2095" lon="0.6396">
        <ele>-40.6</ele>
        <time>2016-05-16T14:29:14Z</time>
      </trkpt>
      <trkpt lat="44.20972" lon="0.63924">
        <ele>-40.2</ele>
        <time>2016-05-16T14:29:21Z</time>
      </trkpt>
      <trkpt lat="44.20997" lon="0.63875">
        <ele>-40.4</ele>
        <time>2016-05-16T14:29:29Z</time>
      </trkpt>
      <trkpt lat="44.21009" lon="0.63852">
        <ele>-40.6</ele>
        <time>2016-05-16T14:29:34Z</time>
      </trkpt>
      <trkpt lat="44.21018" lon="0.63826">
        <ele>-40.4</ele>
        <time>2016-05-16T14:29:38Z</time>
      </trkpt>
      <trkpt lat="44.21035" lon="0.63774">
        <ele>-40.2</ele>
        <time>2016-05-16T14:29:45Z</time>
      </trkpt>
      <trkpt lat="44.21052" lon="0.63708">
        <ele>-40.2</ele>
        <time>2016-05-16T14:29:54Z</time>
      </trkpt>
      <trkpt lat="44.21063" lon="0.63639">
        <ele>-40.4</ele>
        <time>2016-05-16T14:30:03Z</time>
      </trkpt>
      <trkpt lat="44.21068" lon="0.63576">
        <ele>-40.4</ele>
        <time>2016-05-16T14:30:11Z</time>
      </trkpt>
      <trkpt lat="44.21069" lon="0.63531">
        <ele>-40.2</ele>
        <time>2016-05-16T14:30:17Z</time>
      </trkpt>
      <trkpt lat="44.21066" lon="0.63484">
        <ele>-40</ele>
        <time>2016-05-16T14:30:23Z</time>
      </trkpt>
      <trkpt lat="44.21059" lon="0.6342">
        <ele>-40</ele>
        <time>2016-05-16T14:30:31Z</time>
      </trkpt>
      <trkpt lat="44.2105" lon="0.63356">
        <ele>-40</ele>
        <time>2016-05-16T14:30:39Z</time>
      </trkpt>
      <trkpt lat="44.21039" lon="0.63274">
        <ele>-40.6</ele>
        <time>2016-05-16T14:30:49Z</time>
      </trkpt>
      <trkpt lat="44.21037" lon="0.63266">
        <ele>-40.6</ele>
        <time>2016-05-16T14:30:50Z</time>
      </trkpt>
      <trkpt lat="44.21029" lon="0.63208">
        <ele>-40.2</ele>
        <time>2016-05-16T14:30:58Z</time>
      </trkpt>
      <trkpt lat="44.2102" lon="0.6315">
        <ele>-40.4</ele>
        <time>2016-05-16T14:31:06Z</time>
      </trkpt>
      <trkpt lat="44.21011" lon="0.63086">
        <ele>-40.2</ele>
        <time>2016-05-16T14:31:15Z</time>
      </trkpt>
      <trkpt lat="44.21003" lon="0.63016">
        <ele>-39.8</ele>
        <time>2016-05-16T14:31:25Z</time>
      </trkpt>
      <trkpt lat="44.20999" lon="0.62982">
        <ele>-39.8</ele>
        <time>2016-05-16T14:31:31Z</time>
      </trkpt>
      <trkpt lat="44.20994" lon="0.62943">
        <ele>-40.2</ele>
        <time>2016-05-16T14:31:38Z</time>
      </trkpt>
      <trkpt lat="44.20997" lon="0.62931">
        <ele>-39.8</ele>
        <time>2016-05-16T14:31:41Z</time>
      </trkpt>
      <trkpt lat="44.20995" lon="0.62921">
        <ele>-39.2</ele>
        <time>2016-05-16T14:31:43Z</time>
      </trkpt>
      <trkpt lat="44.20993" lon="0.62913">
        <ele>-38</ele>
        <time>2016-05-16T14:31:46Z</time>
      </trkpt>
      <trkpt lat="44.20992" lon="0.62907">
        <ele>-37</ele>
        <time>2016-05-16T14:31:49Z</time>
      </trkpt>
      <trkpt lat="44.2099" lon="0.62905">
        <ele>-36.6</ele>
        <time>2016-05-16T14:31:51Z</time>
      </trkpt>
      <trkpt lat="44.20988" lon="0.62903">
        <ele>-36.6</ele>
        <time>2016-05-16T14:31:57Z</time>
      </trkpt>
      <trkpt lat="44.20987" lon="0.62896">
        <ele>-36.4</ele>
        <time>2016-05-16T14:32:33Z</time>
      </trkpt>
      <trkpt lat="44.20983" lon="0.62889">
        <ele>-36.4</ele>
        <time>2016-05-16T14:32:36Z</time>
      </trkpt>
      <trkpt lat="44.20977" lon="0.62883">
        <ele>-35.8</ele>
        <time>2016-05-16T14:32:39Z</time>
      </trkpt>
      <trkpt lat="44.20972" lon="0.62879">
        <ele>-36</ele>
        <time>2016-05-16T14:32:41Z</time>
      </trkpt>
      <trkpt lat="44.20949" lon="0.62863">
        <ele>-36</ele>
        <time>2016-05-16T14:32:49Z</time>
      </trkpt>
      <trkpt lat="44.20935" lon="0.62851">
        <ele>-37</ele>
        <time>2016-05-16T14:32:53Z</time>
      </trkpt>
      <trkpt lat="44.20927" lon="0.62845">
        <ele>-37.6</ele>
        <time>2016-05-16T14:32:55Z</time>
      </trkpt>
      <trkpt lat="44.20909" lon="0.62831">
        <ele>-38.4</ele>
        <time>2016-05-16T14:32:59Z</time>
      </trkpt>
      <trkpt lat="44.20903" lon="0.62827">
        <ele>-39</ele>
        <time>2016-05-16T14:33:00Z</time>
      </trkpt>
      <trkpt lat="44.20897" lon="0.62822">
        <ele>-38.8</ele>
        <time>2016-05-16T14:33:01Z</time>
      </trkpt>
      <trkpt lat="44.2088" lon="0.62807">
        <ele>-39.4</ele>
        <time>2016-05-16T14:33:04Z</time>
      </trkpt>
      <trkpt lat="44.20867" lon="0.62802">
        <ele>-39.6</ele>
        <time>2016-05-16T14:33:06Z</time>
      </trkpt>
      <trkpt lat="44.20853" lon="0.62794">
        <ele>-40</ele>
        <time>2016-05-16T14:33:08Z</time>
      </trkpt>
      <trkpt lat="44.20841" lon="0.62785">
        <ele>-40.6</ele>
        <time>2016-05-16T14:33:10Z</time>
      </trkpt>
      <trkpt lat="44.20806" lon="0.62759">
        <ele>-39.8</ele>
        <time>2016-05-16T14:33:17Z</time>
      </trkpt>
      <trkpt lat="44.20797" lon="0.62754">
        <ele>-39.2</ele>
        <time>2016-05-16T14:33:19Z</time>
      </trkpt>
      <trkpt lat="44.20794" lon="0.6275">
        <ele>-39.2</ele>
        <time>2016-05-16T14:33:20Z</time>
      </trkpt>
      <trkpt lat="44.20781" lon="0.62743">
        <ele>-38.8</ele>
        <time>2016-05-16T14:33:23Z</time>
      </trkpt>
      <trkpt lat="44.20746" lon="0.6272">
        <ele>-38</ele>
        <time>2016-05-16T14:33:32Z</time>
      </trkpt>
      <trkpt lat="44.20743" lon="0.62718">
        <ele>-38.2</ele>
        <time>2016-05-16T14:33:33Z</time>
      </trkpt>
      <trkpt lat="44.20707" lon="0.62695">
        <ele>-38.4</ele>
        <time>2016-05-16T14:33:42Z</time>
      </trkpt>
      <trkpt lat="44.20688" lon="0.62681">
        <ele>-38.8</ele>
        <time>2016-05-16T14:33:47Z</time>
      </trkpt>
      <trkpt lat="44.2068" lon="0.62675">
        <ele>-38.8</ele>
        <time>2016-05-16T14:33:49Z</time>
      </trkpt>
      <trkpt lat="44.20668" lon="0.62666">
        <ele>-39.2</ele>
        <time>2016-05-16T14:33:52Z</time>
      </trkpt>
      <trkpt lat="44.20643" lon="0.62649">
        <ele>-40</ele>
        <time>2016-05-16T14:33:57Z</time>
      </trkpt>
      <trkpt lat="44.20637" lon="0.62646">
        <ele>-40.2</ele>
        <time>2016-05-16T14:33:58Z</time>
      </trkpt>
      <trkpt lat="44.20616" lon="0.62631">
        <ele>-41.2</ele>
        <time>2016-05-16T14:34:02Z</time>
      </trkpt>
      <trkpt lat="44.20599" lon="0.62619">
        <ele>-42.2</ele>
        <time>2016-05-16T14:34:07Z</time>
      </trkpt>
      <trkpt lat="44.20597" lon="0.62617">
        <ele>-42.4</ele>
        <time>2016-05-16T14:34:08Z</time>
      </trkpt>
      <trkpt lat="44.20592" lon="0.62612">
        <ele>-42.8</ele>
        <time>2016-05-16T14:34:12Z</time>
      </trkpt>
      <trkpt lat="44.20581" lon="0.62603">
        <ele>-43.6</ele>
        <time>2016-05-16T14:34:18Z</time>
      </trkpt>
      <trkpt lat="44.2057" lon="0.62586">
        <ele>-43.6</ele>
        <time>2016-05-16T14:34:24Z</time>
      </trkpt>
      <trkpt lat="44.20571" lon="0.62581">
        <ele>-43.6</ele>
        <time>2016-05-16T14:34:25Z</time>
      </trkpt>
      <trkpt lat="44.20578" lon="0.62572">
        <ele>-43.6</ele>
        <time>2016-05-16T14:34:27Z</time>
      </trkpt>
      <trkpt lat="44.20581" lon="0.62568">
        <ele>-43.8</ele>
        <time>2016-05-16T14:34:28Z</time>
      </trkpt>
      <trkpt lat="44.20596" lon="0.6255">
        <ele>-44</ele>
        <time>2016-05-16T14:34:32Z</time>
      </trkpt>
      <trkpt lat="44.20615" lon="0.62518">
        <ele>-44.6</ele>
        <time>2016-05-16T14:34:38Z</time>
      </trkpt>
      <trkpt lat="44.20622" lon="0.62507">
        <ele>-44.6</ele>
        <time>2016-05-16T14:34:40Z</time>
      </trkpt>
      <trkpt lat="44.20634" lon="0.62484">
        <ele>-44.8</ele>
        <time>2016-05-16T14:34:44Z</time>
      </trkpt>
      <trkpt lat="44.20642" lon="0.62467">
        <ele>-44.8</ele>
        <time>2016-05-16T14:34:47Z</time>
      </trkpt>
      <trkpt lat="44.20662" lon="0.62428">
        <ele>-45</ele>
        <time>2016-05-16T14:34:54Z</time>
      </trkpt>
      <trkpt lat="44.20686" lon="0.62395">
        <ele>-45</ele>
        <time>2016-05-16T14:35:03Z</time>
      </trkpt>
      <trkpt lat="44.20697" lon="0.62374">
        <ele>-44.4</ele>
        <time>2016-05-16T14:35:09Z</time>
      </trkpt>
      <trkpt lat="44.20703" lon="0.62364">
        <ele>-44.2</ele>
        <time>2016-05-16T14:35:11Z</time>
      </trkpt>
      <trkpt lat="44.20711" lon="0.62352">
        <ele>-44.6</ele>
        <time>2016-05-16T14:35:14Z</time>
      </trkpt>
      <trkpt lat="44.20726" lon="0.62329">
        <ele>-44.2</ele>
        <time>2016-05-16T14:35:20Z</time>
      </trkpt>
      <trkpt lat="44.20734" lon="0.62326">
        <ele>-44.4</ele>
        <time>2016-05-16T14:35:22Z</time>
      </trkpt>
      <trkpt lat="44.2074" lon="0.62324">
        <ele>-44.4</ele>
        <time>2016-05-16T14:35:23Z</time>
      </trkpt>
      <trkpt lat="44.20747" lon="0.62309">
        <ele>-44.6</ele>
        <time>2016-05-16T14:35:26Z</time>
      </trkpt>
      <trkpt lat="44.20757" lon="0.62294">
        <ele>-44.6</ele>
        <time>2016-05-16T14:35:30Z</time>
      </trkpt>
      <trkpt lat="44.20763" lon="0.62283">
        <ele>-44.4</ele>
        <time>2016-05-16T14:35:32Z</time>
      </trkpt>
      <trkpt lat="44.2077" lon="0.62266">
        <ele>-44.8</ele>
        <time>2016-05-16T14:35:35Z</time>
      </trkpt>
      <trkpt lat="44.20773" lon="0.62249">
        <ele>-44.8</ele>
        <time>2016-05-16T14:35:38Z</time>
      </trkpt>
      <trkpt lat="44.20776" lon="0.62239">
        <ele>-44.8</ele>
        <time>2016-05-16T14:35:40Z</time>
      </trkpt>
      <trkpt lat="44.20782" lon="0.62205">
        <ele>-44.6</ele>
        <time>2016-05-16T14:35:47Z</time>
      </trkpt>
      <trkpt lat="44.20788" lon="0.6217">
        <ele>-44.4</ele>
        <time>2016-05-16T14:35:54Z</time>
      </trkpt>
      <trkpt lat="44.20794" lon="0.62139">
        <ele>-44.8</ele>
        <time>2016-05-16T14:36:01Z</time>
      </trkpt>
      <trkpt lat="44.20801" lon="0.62103">
        <ele>-44.8</ele>
        <time>2016-05-16T14:36:09Z</time>
      </trkpt>
      <trkpt lat="44.20805" lon="0.62087">
        <ele>-44.2</ele>
        <time>2016-05-16T14:36:15Z</time>
      </trkpt>
      <trkpt lat="44.20805" lon="0.62088">
        <ele>-44</ele>
        <time>2016-05-16T14:36:20Z</time>
      </trkpt>
      <trkpt lat="44.20807" lon="0.62089">
        <ele>-43.8</ele>
        <time>2016-05-16T14:36:29Z</time>
      </trkpt>
      <trkpt lat="44.20808" lon="0.62092">
        <ele>-44</ele>
        <time>2016-05-16T14:36:38Z</time>
      </trkpt>
      <trkpt lat="44.20811" lon="0.62089">
        <ele>-44</ele>
        <time>2016-05-16T14:37:24Z</time>
      </trkpt>
      <trkpt lat="44.20812" lon="0.62087">
        <ele>-44</ele>
        <time>2016-05-16T14:37:27Z</time>
      </trkpt>
      <trkpt lat="44.20814" lon="0.62082">
        <ele>-44</ele>
        <time>2016-05-16T14:37:34Z</time>
      </trkpt>
      <trkpt lat="44.20815" lon="0.62085">
        <ele>-44</ele>
        <time>2016-05-16T14:37:39Z</time>
      </trkpt>
    </trkseg>
  </trk>
</gpx>